Darstellungsparameter: Aktuell verwendete Einstellungen:
Skalierung der Graphiken ... ?
xyx+y,   Skalierungsfaktor:      Skalierung: Modus: x, Faktor: 1
Darstellungszeitraum ... ?
Vom - - bis: - -   Zeitraum: 05.11.2014 - 04.11.2015
Min/Max/Avg-Anzeige ... ?
Zeige MMA aktuell
Zeige MMA Monat
Zeige MMA alles
Zeige --A aktuell
Zeige --A Monat
Zeige --A alles
Keine MMA-Anzeige
MMA:
Average (ber die Originaldaten)
MMA-Basis: 23.02.2003 - 03.08.2020
Quicknavigation für Darstellung... ?
Tage:      1T, 2T, 3T, 5T -1T -2T -3T -5T +1T +2T +3T +5T
Wochen: 1W, 2W, 3W -1W -2W -3W +1W +2W +3W
Monate: 1M, 3M, 6M -1M -3M -6M +1M +3M +6M
Jahre:    1J, 3J, 5J, 10J -1J -3J -5J -10J +1J +3J +5J +10J
Nutze für die Darstellung ... ?
Originaldaten oder ...
Mittelwerte Minima Maxima auf...
Stundenbasis Tagesbasis Wochenbasis
Monatsbasis Jahresbasis      Datenbasis: Mittelwerte auf Stundenbasis
Darstellen als:
Statistik (Auto) Statistik J:M      Darstellung:
Zur Graphik,    zurück zur Übersicht aller Sensoren.
 
Tabellarische Datenbersicht: ?
 
Sensor: Nr:Datum:Temp:Abs-Feuchte:Windchill:Wind:
Aussen-T/F 1 05-11-2014 00:00:00 9.3 C 8.81 g/m*3 9.3 C 0 km/h
2 05-11-2014 01:00:00 9.36667 C 8.84 g/m*3 9.37 C 0 km/h
3 05-11-2014 02:00:00 9.41667 C 8.87 g/m*3 9.42 C 0.13333 km/h
4 05-11-2014 03:00:00 9.3 C 8.81 g/m*3 9.3 C 0 km/h
5 05-11-2014 04:00:00 9.175 C 8.74 g/m*3 9.18 C 0.13333 km/h
6 05-11-2014 05:00:00 9.075 C 8.68 g/m*3 9.07 C 0 km/h
7 05-11-2014 06:00:00 8.84167 C 8.55 g/m*3 8.84 C 0 km/h
8 05-11-2014 07:00:00 8.90833 C 8.6 g/m*3 8.91 C 0 km/h
9 05-11-2014 08:00:00 8.91667 C 8.59 g/m*3 8.92 C 0 km/h
10 05-11-2014 09:00:00 8.84167 C 8.55 g/m*3 8.84 C 2.00833 km/h
11 05-11-2014 10:00:00 9.3 C 8.57 g/m*3 8.85 C 5.35833 km/h
12 05-11-2014 11:00:00 9.99167 C 8.7 g/m*3 9.28 C 6.725 km/h
13 05-11-2014 12:00:00 10.49167 C 8.7 g/m*3 9.83 C 6.85 km/h
14 05-11-2014 13:00:00 10.725 C 8.67 g/m*3 9.9 C 7.78333 km/h
15 05-11-2014 14:00:00 10.8 C 8.67 g/m*3 10.8 C 2.94167 km/h
16 05-11-2014 15:00:00 10.79167 C 8.9 g/m*3 10.79 C 0.66667 km/h
17 05-11-2014 16:00:00 9.825 C 8.8 g/m*3 9.82 C 0 km/h
18 05-11-2014 17:00:00 9.26667 C 8.61 g/m*3 9.27 C 0 km/h
19 05-11-2014 18:00:00 8.9 C 8.45 g/m*3 8.9 C 0.4 km/h
20 05-11-2014 19:00:00 8.75 C 8.39 g/m*3 8.75 C 0 km/h
21 05-11-2014 20:00:00 8.60833 C 8.3 g/m*3 8.61 C 0.26667 km/h
22 05-11-2014 21:00:00 8.625 C 8.21 g/m*3 8.63 C 0.8 km/h
23 05-11-2014 22:00:00 8.45 C 7.99 g/m*3 8.45 C 2.13333 km/h
24 05-11-2014 23:00:00 8.30833 C 7.77 g/m*3 8.31 C 2.53333 km/h
25 06-11-2014 00:00:00 7.625 C 7.52 g/m*3 7.63 C 0.26667 km/h
Sensor: Nr:Datum:Temp:Abs-Feuchte:Windchill:Wind:
Aussen-T/F 26 06-11-2014 01:00:00 7.01667 C 7.34 g/m*3 7.02 C 0.4 km/h
27 06-11-2014 02:00:00 6.8 C 7.27 g/m*3 6.8 C 0 km/h
28 06-11-2014 03:00:00 6.71667 C 7.3 g/m*3 6.72 C 0 km/h
29 06-11-2014 04:00:00 6.6 C 7.24 g/m*3 6.6 C 0 km/h
30 06-11-2014 05:00:00 6.11667 C 7.01 g/m*3 6.12 C 1.06667 km/h
31 06-11-2014 06:00:00 5.93333 C 6.88 g/m*3 5.93 C 1.73333 km/h
32 06-11-2014 07:00:00 5.225 C 6.62 g/m*3 5.23 C 0.13333 km/h
33 06-11-2014 08:00:00 4.51667 C 6.36 g/m*3 4.52 C 0 km/h
34 06-11-2014 09:00:00 4.73333 C 6.49 g/m*3 4.73 C 0 km/h
35 06-11-2014 10:00:00 6.66667 C 7.22 g/m*3 6.67 C 4.025 km/h
36 06-11-2014 11:00:00 8.61667 C 7.48 g/m*3 8.62 C 4.00833 km/h
37 06-11-2014 12:00:00 9.2 C 7.59 g/m*3 8.73 C 5.36667 km/h
38 06-11-2014 13:00:00 8.98333 C 7.6 g/m*3 7.86 C 7.775 km/h
39 06-11-2014 14:00:00 9.225 C 7.59 g/m*3 7.94 C 8.73333 km/h
40 06-11-2014 15:00:00 9.29167 C 7.51 g/m*3 9.29 C 4.81667 km/h
41 06-11-2014 16:00:00 8.95833 C 7.36 g/m*3 8.38 C 5.625 km/h
42 06-11-2014 17:00:00 8.11667 C 7.36 g/m*3 8.12 C 1.6 km/h
43 06-11-2014 18:00:00 6.575 C 6.98 g/m*3 6.58 C 1.46667 km/h
44 06-11-2014 19:00:00 5.49167 C 6.65 g/m*3 5.49 C 0.26667 km/h
45 06-11-2014 20:00:00 4.79167 C 6.43 g/m*3 4.79 C 0 km/h
46 06-11-2014 21:00:00 4.2 C 6.2 g/m*3 4.2 C 0 km/h
47 06-11-2014 22:00:00 3.625 C 6.01 g/m*3 3.63 C 0 km/h
48 06-11-2014 23:00:00 3.25833 C 5.87 g/m*3 3.26 C 0 km/h
49 07-11-2014 00:00:00 3.19167 C 5.85 g/m*3 3.19 C 0.13333 km/h
50 07-11-2014 01:00:00 3.2 C 5.91 g/m*3 3.2 C 1.2 km/h
Sensor: Nr:Datum:Temp:Abs-Feuchte:Windchill:Wind:
Aussen-T/F 51 07-11-2014 02:00:00 2.725 C 5.72 g/m*3 2.73 C 2.4 km/h
52 07-11-2014 03:00:00 2.55833 C 5.66 g/m*3 2.56 C 0.4 km/h
53 07-11-2014 04:00:00 2.44167 C 5.61 g/m*3 2.44 C 0 km/h
54 07-11-2014 05:00:00 2.59167 C 5.67 g/m*3 2.59 C 0.13333 km/h
55 07-11-2014 06:00:00 2.60833 C 5.67 g/m*3 2.61 C 0 km/h
56 07-11-2014 07:00:00 2.15833 C 5.5 g/m*3 2.16 C 0 km/h
57 07-11-2014 08:00:00 2.675 C 5.73 g/m*3 2.68 C 0 km/h
58 07-11-2014 09:00:00 3.775 C 6.2 g/m*3 3.78 C 0.66667 km/h
59 07-11-2014 10:00:00 4.81667 C 6.63 g/m*3 4.82 C 4.95 km/h
60 07-11-2014 11:00:00 6.01667 C 6.96 g/m*3 6.02 C 3.46667 km/h
61 07-11-2014 12:00:00 7.325 C 7.1 g/m*3 7.33 C 3.86667 km/h
62 07-11-2014 13:00:00 8.09167 C 7.22 g/m*3 8.09 C 3.46667 km/h
63 07-11-2014 14:00:00 8.2 C 7.26 g/m*3 8.2 C 2 km/h
64 07-11-2014 15:00:00 8.19167 C 7.3 g/m*3 8.19 C 1.73333 km/h
65 07-11-2014 16:00:00 8.075 C 7.4 g/m*3 8.07 C 1.46667 km/h
66 07-11-2014 17:00:00 8.15 C 7.53 g/m*3 8.15 C 2 km/h
67 07-11-2014 18:00:00 8.1 C 7.82 g/m*3 8.1 C 0.8 km/h
68 07-11-2014 19:00:00 8.13333 C 7.93 g/m*3 8.13 C 0 km/h
69 07-11-2014 20:00:00 7.925 C 7.84 g/m*3 7.93 C 1.46667 km/h
70 07-11-2014 21:00:00 7.60833 C 7.69 g/m*3 7.61 C 0.8 km/h
71 07-11-2014 22:00:00 7.9 C 7.87 g/m*3 7.9 C 2.80833 km/h
72 07-11-2014 23:00:00 7.99167 C 7.86 g/m*3 7.99 C 0.4 km/h
73 08-11-2014 00:00:00 7.18333 C 7.56 g/m*3 7.18 C 0.53333 km/h
74 08-11-2014 01:00:00 7.49167 C 7.78 g/m*3 7.49 C 0.93333 km/h
75 08-11-2014 02:00:00 8.80833 C 8.42 g/m*3 8.81 C 1.6 km/h
Sensor: Nr:Datum:Temp:Abs-Feuchte:Windchill:Wind:
Aussen-T/F 76 08-11-2014 03:00:00 9.19167 C 8.37 g/m*3 9.19 C 1.33333 km/h
77 08-11-2014 04:00:00 8.90833 C 8.32 g/m*3 8.91 C 1.46667 km/h
78 08-11-2014 05:00:00 9.66667 C 8.44 g/m*3 9.67 C 1.86667 km/h
79 08-11-2014 06:00:00 9.125 C 8.13 g/m*3 9.13 C 1.46667 km/h
80 08-11-2014 07:00:00 8.19167 C 7.87 g/m*3 8.19 C 1.33333 km/h
81 08-11-2014 08:00:00 7.775 C 7.77 g/m*3 7.78 C 1.33333 km/h
82 08-11-2014 09:00:00 8.55 C 8.03 g/m*3 8.55 C 2.13333 km/h
83 08-11-2014 10:00:00 9.85 C 7.99 g/m*3 8.68 C 8.74167 km/h
84 08-11-2014 11:00:00 11.03333 C 8.13 g/m*3 11.03 C 9 km/h
85 08-11-2014 12:00:00 11.975 C 8.38 g/m*3 11.98 C 5.225 km/h
86 08-11-2014 13:00:00 12.25833 C 8.84 g/m*3 12.26 C 2.68333 km/h
87 08-11-2014 14:00:00 12.53333 C 8.93 g/m*3 12.53 C 1.875 km/h
88 08-11-2014 15:00:00 11.79167 C 8.94 g/m*3 11.79 C 1.33333 km/h
89 08-11-2014 16:00:00 10.43333 C 8.35 g/m*3 10.43 C 1.875 km/h
90 08-11-2014 17:00:00 8.325 C 7.84 g/m*3 8.32 C 1.73333 km/h
91 08-11-2014 18:00:00 7.64167 C 7.61 g/m*3 7.64 C 2.13333 km/h
92 08-11-2014 19:00:00 6.975 C 7.37 g/m*3 6.98 C 1.6 km/h
93 08-11-2014 20:00:00 6.75 C 7.32 g/m*3 6.75 C 0.26667 km/h
94 08-11-2014 21:00:00 6.45833 C 7.25 g/m*3 6.46 C 0.53333 km/h
95 08-11-2014 22:00:00 6.55 C 7.3 g/m*3 6.55 C 0.8 km/h
96 08-11-2014 23:00:00 5.99167 C 7.04 g/m*3 5.99 C 0 km/h
97 09-11-2014 00:00:00 5.69167 C 6.93 g/m*3 5.69 C 0.13333 km/h
98 09-11-2014 01:00:00 5.34167 C 6.78 g/m*3 5.34 C 0 km/h
99 09-11-2014 02:00:00 5.23333 C 6.76 g/m*3 5.23 C 0 km/h
100 09-11-2014 03:00:00 5.06667 C 6.69 g/m*3 5.07 C 0.26667 km/h
Sensor: Nr:Datum:Temp:Abs-Feuchte:Windchill:Wind:
Aussen-T/F 101 09-11-2014 04:00:00 4.675 C 6.52 g/m*3 4.68 C 0.53333 km/h
102 09-11-2014 05:00:00 4.40833 C 6.4 g/m*3 4.41 C 0 km/h
103 09-11-2014 06:00:00 4.125 C 6.28 g/m*3 4.13 C 0.13333 km/h
104 09-11-2014 07:00:00 3.89167 C 6.19 g/m*3 3.89 C 0 km/h
105 09-11-2014 08:00:00 4.25833 C 6.34 g/m*3 4.26 C 0 km/h
106 09-11-2014 09:00:00 4.7 C 6.55 g/m*3 4.7 C 0 km/h
107 09-11-2014 10:00:00 5.325 C 6.85 g/m*3 5.33 C 0.66667 km/h
108 09-11-2014 11:00:00 6.075 C 7.22 g/m*3 6.08 C 0.13333 km/h
109 09-11-2014 12:00:00 7.225 C 7.78 g/m*3 7.23 C 0.4 km/h
110 09-11-2014 13:00:00 8.6 C 8.51 g/m*3 8.6 C 0.13333 km/h
111 09-11-2014 14:00:00 9.55 C 8.88 g/m*3 9.55 C 0.53333 km/h
112 09-11-2014 15:00:00 10.25833 C 8.64 g/m*3 10.26 C 2 km/h
113 09-11-2014 16:00:00 9.875 C 8.25 g/m*3 9.88 C 1.86667 km/h
114 09-11-2014 17:00:00 7.91667 C 7.72 g/m*3 7.92 C 0.93333 km/h
115 09-11-2014 18:00:00 7.78333 C 7.73 g/m*3 7.78 C 1.6 km/h
116 09-11-2014 19:00:00 7.45833 C 7.66 g/m*3 7.46 C 0.13333 km/h
117 09-11-2014 20:00:00 7.83333 C 7.93 g/m*3 7.83 C 0.26667 km/h
118 09-11-2014 21:00:00 7.875 C 7.93 g/m*3 7.88 C 0.13333 km/h
119 09-11-2014 22:00:00 7.875 C 7.95 g/m*3 7.88 C 0 km/h
120 09-11-2014 23:00:00 7.9 C 7.97 g/m*3 7.9 C 0 km/h
121 10-11-2014 00:00:00 8.08333 C 8.06 g/m*3 8.08 C 0 km/h
122 10-11-2014 01:00:00 8.05 C 8.05 g/m*3 8.05 C 0 km/h
123 10-11-2014 02:00:00 7.9 C 8.03 g/m*3 7.9 C 0 km/h
124 10-11-2014 03:00:00 7.99167 C 8.1 g/m*3 7.99 C 0 km/h
125 10-11-2014 04:00:00 8.18333 C 8.2 g/m*3 8.18 C 0 km/h
Sensor: Nr:Datum:Temp:Abs-Feuchte:Windchill:Wind:
Aussen-T/F 126 10-11-2014 05:00:00 8.26667 C 8.24 g/m*3 8.27 C 0.4 km/h
127 10-11-2014 06:00:00 8.44167 C 8.34 g/m*3 8.44 C 0.4 km/h
128 10-11-2014 07:00:00 8.56667 C 8.4 g/m*3 8.57 C 2.66667 km/h
129 10-11-2014 08:00:00 8.775 C 8.52 g/m*3 8.78 C 0.4 km/h
130 10-11-2014 09:00:00 9.3 C 8.81 g/m*3 9.3 C 0.53333 km/h
131 10-11-2014 10:00:00 9.95833 C 9.17 g/m*3 9.96 C 1.33333 km/h
132 10-11-2014 11:00:00 10.81667 C 9.39 g/m*3 10.82 C 1.06667 km/h
133 10-11-2014 12:00:00 11.71667 C 9.54 g/m*3 11.72 C 0.66667 km/h
134 10-11-2014 13:00:00 11.95833 C 9.48 g/m*3 11.96 C 0.93333 km/h
135 10-11-2014 14:00:00 11.78333 C 9.64 g/m*3 11.78 C 0.26667 km/h
136 10-11-2014 15:00:00 11.275 C 9.62 g/m*3 11.28 C 0 km/h
137 10-11-2014 16:00:00 10.625 C 9.3 g/m*3 10.63 C 2.13333 km/h
138 10-11-2014 17:00:00 8.90833 C 8.39 g/m*3 8.91 C 3.06667 km/h
139 10-11-2014 18:00:00 7.925 C 7.94 g/m*3 7.93 C 1.06667 km/h
140 10-11-2014 19:00:00 7.30833 C 7.67 g/m*3 7.31 C 0.8 km/h
141 10-11-2014 20:00:00 6.825 C 7.48 g/m*3 6.83 C 0.8 km/h
142 10-11-2014 21:00:00 6.50833 C 7.35 g/m*3 6.51 C 0 km/h
143 10-11-2014 22:00:00 5.85 C 7.04 g/m*3 5.85 C 0 km/h
144 10-11-2014 23:00:00 5.31667 C 6.8 g/m*3 5.32 C 1.06667 km/h
145 11-11-2014 00:00:00 5.46667 C 6.87 g/m*3 5.47 C 0.26667 km/h
146 11-11-2014 01:00:00 5.55833 C 6.92 g/m*3 5.56 C 0 km/h
147 11-11-2014 02:00:00 6.04167 C 7.17 g/m*3 6.04 C 0 km/h
148 11-11-2014 03:00:00 6.25 C 7.3 g/m*3 6.25 C 0 km/h
149 11-11-2014 04:00:00 7.31667 C 7.83 g/m*3 7.32 C 0 km/h
150 11-11-2014 05:00:00 7.225 C 7.78 g/m*3 7.23 C 0.4 km/h
Sensor: Nr:Datum:Temp:Abs-Feuchte:Windchill:Wind:
Aussen-T/F 151 11-11-2014 06:00:00 7.275 C 7.81 g/m*3 7.28 C 1.2 km/h
152 11-11-2014 07:00:00 7.725 C 8.04 g/m*3 7.73 C 0.8 km/h
153 11-11-2014 08:00:00 7.85 C 8.11 g/m*3 7.85 C 0 km/h
154 11-11-2014 09:00:00 8.54167 C 8.48 g/m*3 8.54 C 0.26667 km/h
155 11-11-2014 10:00:00 8.81667 C 8.63 g/m*3 8.82 C 2.4 km/h
156 11-11-2014 11:00:00 9.14286 C 8.86 g/m*3 9.14 C 2.05714 km/h
157 11-11-2014 12:00:00 10.90909 C 9.12 g/m*3 10.91 C 4.52727 km/h
158 11-11-2014 13:00:00 11.41667 C 9.08 g/m*3 11.42 C 5.08333 km/h
159 11-11-2014 14:00:00 11.61667 C 8.95 g/m*3 11.62 C 5.35 km/h
160 11-11-2014 15:00:00 10.83333 C 8.55 g/m*3 10.29 C 6.58333 km/h
161 11-11-2014 16:00:00 9.80833 C 8.22 g/m*3 9.81 C 3.46667 km/h
162 11-11-2014 17:00:00 9.2 C 8.13 g/m*3 9.2 C 0.66667 km/h
163 11-11-2014 18:00:00 9.04167 C 8.15 g/m*3 9.04 C 0.66667 km/h
164 11-11-2014 19:00:00 8.85833 C 8.17 g/m*3 8.86 C 0.26667 km/h
165 11-11-2014 20:00:00 8.8 C 8.17 g/m*3 8.8 C 0.4 km/h
166 11-11-2014 21:00:00 8.8 C 8.21 g/m*3 8.8 C 0 km/h
167 11-11-2014 22:00:00 8.7 C 8.22 g/m*3 8.7 C 0 km/h
168 11-11-2014 23:00:00 8.7 C 8.2 g/m*3 8.7 C 0 km/h
169 12-11-2014 00:00:00 8.65 C 8.19 g/m*3 8.65 C 0 km/h
170 12-11-2014 01:00:00 8.40833 C 8.11 g/m*3 8.41 C 0 km/h
171 12-11-2014 02:00:00 8.39167 C 8.14 g/m*3 8.39 C 0.26667 km/h
172 12-11-2014 03:00:00 8.49167 C 8.19 g/m*3 8.49 C 0 km/h
173 12-11-2014 04:00:00 8.675 C 8.25 g/m*3 8.68 C 0.26667 km/h
174 12-11-2014 05:00:00 8.7 C 8.22 g/m*3 8.7 C 0.53333 km/h
175 12-11-2014 06:00:00 8.7 C 8.22 g/m*3 8.7 C 0.13333 km/h
Sensor: Nr:Datum:Temp:Abs-Feuchte:Windchill:Wind:
Aussen-T/F 176 12-11-2014 07:00:00 8.7 C 8.22 g/m*3 8.7 C 0.13333 km/h
177 12-11-2014 08:00:00 8.9 C 8.26 g/m*3 8.9 C 0.66667 km/h
178 12-11-2014 09:00:00 9.275 C 8.37 g/m*3 9.28 C 1.33333 km/h
179 12-11-2014 10:00:00 9.4 C 8.42 g/m*3 9.4 C 2 km/h
180 12-11-2014 11:00:00 9.63333 C 8.54 g/m*3 9.63 C 0.4 km/h
181 12-11-2014 12:00:00 10.20833 C 8.8 g/m*3 10.21 C 0.53333 km/h
182 12-11-2014 13:00:00 10.91667 C 9.06 g/m*3 10.92 C 0.26667 km/h
183 12-11-2014 14:00:00 11.16667 C 9.27 g/m*3 11.17 C 0 km/h
184 12-11-2014 15:00:00 10.925 C 9.41 g/m*3 10.93 C 0 km/h
185 12-11-2014 16:00:00 10.45833 C 9.33 g/m*3 10.46 C 0.13333 km/h
186 12-11-2014 17:00:00 10.15833 C 9.21 g/m*3 10.16 C 1.33333 km/h
187 12-11-2014 18:00:00 10.03333 C 9.15 g/m*3 10.03 C 1.06667 km/h
188 12-11-2014 19:00:00 9.88333 C 9.1 g/m*3 9.88 C 0.13333 km/h
189 12-11-2014 20:00:00 9.78333 C 9.05 g/m*3 9.78 C 0.53333 km/h
190 12-11-2014 21:00:00 9.68333 C 9.02 g/m*3 9.68 C 0 km/h
191 12-11-2014 22:00:00 9.575 C 8.96 g/m*3 9.57 C 0.26667 km/h
192 12-11-2014 23:00:00 9.30833 C 8.81 g/m*3 9.31 C 0.26667 km/h
193 13-11-2014 00:00:00 9.36667 C 8.84 g/m*3 9.37 C 0 km/h
194 13-11-2014 01:00:00 9.28333 C 8.8 g/m*3 9.28 C 0 km/h
195 13-11-2014 02:00:00 9.20833 C 8.76 g/m*3 9.21 C 0 km/h
196 13-11-2014 03:00:00 9.3 C 8.81 g/m*3 9.3 C 0 km/h
197 13-11-2014 04:00:00 9.10833 C 8.7 g/m*3 9.11 C 0 km/h
198 13-11-2014 05:00:00 9.00833 C 8.65 g/m*3 9.01 C 1.46667 km/h
199 13-11-2014 06:00:00 8.975 C 8.64 g/m*3 8.98 C 4.40833 km/h
200 13-11-2014 07:00:00 8.75 C 8.5 g/m*3 8.75 C 1.46667 km/h
Sensor: Nr:Datum:Temp:Abs-Feuchte:Windchill:Wind:
Aussen-T/F 201 13-11-2014 08:00:00 8.28333 C 8.25 g/m*3 8.28 C 3.06667 km/h
202 13-11-2014 09:00:00 8.46667 C 8.35 g/m*3 8.47 C 3.88333 km/h
203 13-11-2014 10:00:00 8.44167 C 8.34 g/m*3 7.32 C 7.4 km/h
204 13-11-2014 11:00:00 8.88333 C 8.56 g/m*3 8.88 C 3.74167 km/h
205 13-11-2014 12:00:00 9.79167 C 8.95 g/m*3 9.79 C 2.53333 km/h
206 13-11-2014 13:00:00 10.36667 C 9.15 g/m*3 10.37 C 0.8 km/h
207 13-11-2014 14:00:00 10.775 C 9.29 g/m*3 10.78 C 1.6 km/h
208 13-11-2014 15:00:00 10.8 C 9.29 g/m*3 10.8 C 1.2 km/h
209 13-11-2014 16:00:00 10.63333 C 9.26 g/m*3 10.63 C 0 km/h
210 13-11-2014 17:00:00 10.31667 C 9.23 g/m*3 10.32 C 0.8 km/h
211 13-11-2014 18:00:00 10.3 C 9.28 g/m*3 10.3 C 0.26667 km/h
212 13-11-2014 19:00:00 10.3 C 9.29 g/m*3 10.3 C 0 km/h
213 13-11-2014 20:00:00 10.4 C 9.26 g/m*3 10.4 C 0.53333 km/h
214 13-11-2014 21:00:00 10.525 C 9.19 g/m*3 10.53 C 1.73333 km/h
215 13-11-2014 22:00:00 10.54167 C 9.1 g/m*3 10.54 C 0.8 km/h
216 13-11-2014 23:00:00 10.19167 C 9.07 g/m*3 10.19 C 0.4 km/h
217 14-11-2014 00:00:00 10.09167 C 9.03 g/m*3 10.09 C 1.06667 km/h
218 14-11-2014 01:00:00 10.13333 C 8.89 g/m*3 10.13 C 0.93333 km/h
219 14-11-2014 02:00:00 9.925 C 8.78 g/m*3 9.93 C 1.06667 km/h
220 14-11-2014 03:00:00 9.9 C 8.7 g/m*3 9.9 C 1.46667 km/h
221 14-11-2014 04:00:00 9.85833 C 8.58 g/m*3 9.86 C 0.66667 km/h
222 14-11-2014 05:00:00 9.59167 C 8.6 g/m*3 9.59 C 0 km/h
223 14-11-2014 06:00:00 9.41667 C 8.54 g/m*3 9.42 C 0 km/h
224 14-11-2014 07:00:00 9.39167 C 8.59 g/m*3 9.39 C 0.66667 km/h
225 14-11-2014 08:00:00 9.68333 C 8.78 g/m*3 9.68 C 0 km/h
Sensor: Nr:Datum:Temp:Abs-Feuchte:Windchill:Wind:
Aussen-T/F 226 14-11-2014 09:00:00 10.10833 C 8.96 g/m*3 10.11 C 0 km/h
227 14-11-2014 10:00:00 10.975 C 9.05 g/m*3 10.98 C 0.4 km/h
228 14-11-2014 11:00:00 11.925 C 9.1 g/m*3 11.93 C 3.475 km/h
229 14-11-2014 12:00:00 12.4 C 8.88 g/m*3 12.4 C 6.45 km/h
230 14-11-2014 13:00:00 12.675 C 8.88 g/m*3 12.68 C 6.30833 km/h
231 14-11-2014 14:00:00 12.55 C 8.99 g/m*3 12.55 C 3.74167 km/h
232 14-11-2014 15:00:00 12.08333 C 8.87 g/m*3 12.08 C 2.93333 km/h
233 14-11-2014 16:00:00 11.11667 C 8.78 g/m*3 11.12 C 2.40833 km/h
234 14-11-2014 17:00:00 10.225 C 8.59 g/m*3 10.23 C 2.40833 km/h
235 14-11-2014 18:00:00 10.175 C 8.62 g/m*3 10.18 C 3.20833 km/h
236 14-11-2014 19:00:00 10.76667 C 8.7 g/m*3 10.6 C 5.08333 km/h
237 14-11-2014 20:00:00 10.63333 C 8.62 g/m*3 10.45 C 5.09167 km/h
238 14-11-2014 21:00:00 10.40833 C 8.6 g/m*3 10.41 C 4.68333 km/h
239 14-11-2014 22:00:00 10.50833 C 8.72 g/m*3 10.16 C 5.6 km/h
240 14-11-2014 23:00:00 9.9 C 8.75 g/m*3 9.9 C 1.06667 km/h
241 15-11-2014 00:00:00 9.38333 C 8.67 g/m*3 9.38 C 0.4 km/h
242 15-11-2014 01:00:00 8.75 C 8.39 g/m*3 8.75 C 2.4 km/h
243 15-11-2014 02:00:00 8.10833 C 8.08 g/m*3 8.11 C 1.73333 km/h
244 15-11-2014 03:00:00 7.86667 C 7.99 g/m*3 7.87 C 0.66667 km/h
245 15-11-2014 04:00:00 8.1 C 8.15 g/m*3 8.1 C 1.06667 km/h
246 15-11-2014 05:00:00 8.19167 C 8.2 g/m*3 8.19 C 1.86667 km/h
247 15-11-2014 06:00:00 8.3 C 8.26 g/m*3 8.3 C 2 km/h
248 15-11-2014 07:00:00 8.575 C 8.32 g/m*3 8.57 C 1.73333 km/h
249 15-11-2014 08:00:00 8.75 C 8.42 g/m*3 8.75 C 0.93333 km/h
250 15-11-2014 09:00:00 9.24167 C 8.57 g/m*3 9.24 C 1.73333 km/h
Sensor: Nr:Datum:Temp:Abs-Feuchte:Windchill:Wind:
Aussen-T/F 251 15-11-2014 10:00:00 10.06667 C 8.59 g/m*3 9.69 C 5.48333 km/h
252 15-11-2014 11:00:00 10.35 C 8.87 g/m*3 10.35 C 3.06667 km/h
253 15-11-2014 12:00:00 10.75833 C 8.93 g/m*3 10.76 C 3.74167 km/h
254 15-11-2014 13:00:00 11.30833 C 9.11 g/m*3 11.31 C 3.46667 km/h
255 15-11-2014 14:00:00 11.65 C 9.25 g/m*3 11.65 C 3.34167 km/h
256 15-11-2014 15:00:00 11.50833 C 9.26 g/m*3 11.51 C 2.13333 km/h
257 15-11-2014 16:00:00 11.1 C 9.28 g/m*3 11.1 C 0.53333 km/h
258 15-11-2014 17:00:00 10.95 C 9.13 g/m*3 10.95 C 2.13333 km/h
259 15-11-2014 18:00:00 10.775 C 9.17 g/m*3 10.78 C 0.8 km/h
260 15-11-2014 19:00:00 10.35833 C 9.13 g/m*3 10.36 C 0.26667 km/h
261 15-11-2014 20:00:00 10.325 C 9.11 g/m*3 10.33 C 0.13333 km/h
262 15-11-2014 21:00:00 10.26667 C 9.17 g/m*3 10.27 C 0.26667 km/h
263 15-11-2014 22:00:00 9.99167 C 9.11 g/m*3 9.99 C 0.8 km/h
264 15-11-2014 23:00:00 9.55 C 8.86 g/m*3 9.55 C 0.93333 km/h
265 16-11-2014 00:00:00 9.325 C 8.8 g/m*3 9.32 C 0.13333 km/h
266 16-11-2014 01:00:00 9.28333 C 8.8 g/m*3 9.28 C 0.13333 km/h
267 16-11-2014 02:00:00 9.18333 C 8.74 g/m*3 9.18 C 0.13333 km/h
268 16-11-2014 03:00:00 8.9 C 8.58 g/m*3 8.9 C 0.13333 km/h
269 16-11-2014 04:00:00 8.8 C 8.53 g/m*3 8.8 C 2.13333 km/h
270 16-11-2014 05:00:00 8.725 C 8.42 g/m*3 8.73 C 2.53333 km/h
271 16-11-2014 06:00:00 8.65833 C 8.37 g/m*3 8.66 C 2.26667 km/h
272 16-11-2014 07:00:00 8.46667 C 8.26 g/m*3 8.47 C 2.53333 km/h
273 16-11-2014 08:00:00 8.25 C 8.15 g/m*3 8.25 C 1.06667 km/h
274 16-11-2014 09:00:00 8.3 C 8.18 g/m*3 8.3 C 0.66667 km/h
275 16-11-2014 10:00:00 8.43333 C 8.25 g/m*3 8.43 C 0.4 km/h
Sensor: Nr:Datum:Temp:Abs-Feuchte:Windchill:Wind:
Aussen-T/F 276 16-11-2014 11:00:00 8.8 C 8.44 g/m*3 8.8 C 0.13333 km/h
277 16-11-2014 12:00:00 9.14167 C 8.63 g/m*3 9.14 C 0 km/h
278 16-11-2014 13:00:00 9.34167 C 8.74 g/m*3 9.34 C 0.53333 km/h
279 16-11-2014 14:00:00 9.73333 C 8.89 g/m*3 9.73 C 0 km/h
280 16-11-2014 15:00:00 9.9875 C 9.07 g/m*3 9.99 C 0 km/h
281 16-11-2014 16:00:00 9.21 C 8.67 g/m*3 9.21 C 0 km/h
282 16-11-2014 17:00:00 8.60833 C 8.39 g/m*3 8.61 C 0 km/h
283 16-11-2014 18:00:00 8.775 C 8.52 g/m*3 8.78 C 0 km/h
284 16-11-2014 19:00:00 8.7 C 8.48 g/m*3 8.7 C 0 km/h
285 16-11-2014 20:00:00 8.56667 C 8.4 g/m*3 8.57 C 0 km/h
286 16-11-2014 21:00:00 8.28333 C 8.25 g/m*3 8.28 C 0 km/h
287 16-11-2014 22:00:00 8.075 C 8.14 g/m*3 8.07 C 0 km/h
288 16-11-2014 23:00:00 7.1 C 7.64 g/m*3 7.1 C 0 km/h
289 17-11-2014 00:00:00 7.6 C 7.94 g/m*3 7.6 C 0 km/h
290 17-11-2014 01:00:00 7.80833 C 8.02 g/m*3 7.81 C 1.2 km/h
291 17-11-2014 02:00:00 8.08333 C 8.15 g/m*3 8.08 C 2.93333 km/h
292 17-11-2014 03:00:00 8.39167 C 8.36 g/m*3 8.39 C 1.06667 km/h
293 17-11-2014 04:00:00 8.45 C 8.34 g/m*3 8.45 C 1.6 km/h
294 17-11-2014 05:00:00 8.225 C 8.22 g/m*3 8.23 C 2 km/h
295 17-11-2014 06:00:00 8.21667 C 8.22 g/m*3 8.22 C 1.73333 km/h
296 17-11-2014 07:00:00 8.19167 C 8.2 g/m*3 8.19 C 0.93333 km/h
297 17-11-2014 08:00:00 8.06667 C 8.14 g/m*3 8.07 C 1.06667 km/h
298 17-11-2014 09:00:00 8.25833 C 8.24 g/m*3 8.26 C 0.66667 km/h
299 17-11-2014 10:00:00 8.8 C 8.53 g/m*3 8.8 C 0.4 km/h
300 17-11-2014 11:00:00 9.43333 C 8.84 g/m*3 9.43 C 0.8 km/h
Sensor: Nr:Datum:Temp:Abs-Feuchte:Windchill:Wind:
Aussen-T/F 301 17-11-2014 12:00:00 10.025 C 9.05 g/m*3 10.03 C 0.8 km/h
302 17-11-2014 13:00:00 9.93333 C 8.97 g/m*3 9.93 C 0.13333 km/h
303 17-11-2014 14:00:00 10.43333 C 9.12 g/m*3 10.43 C 0.13333 km/h
304 17-11-2014 15:00:00 10.175 C 9.14 g/m*3 10.18 C 0.26667 km/h
305 17-11-2014 16:00:00 9.50833 C 8.83 g/m*3 9.51 C 3.6 km/h
306 17-11-2014 17:00:00 8.75 C 8.44 g/m*3 8.75 C 4.53333 km/h
307 17-11-2014 18:00:00 8.66667 C 8.46 g/m*3 8.67 C 3.06667 km/h
308 17-11-2014 19:00:00 8.30833 C 8.26 g/m*3 8.31 C 2.53333 km/h
309 17-11-2014 20:00:00 8.44167 C 8.34 g/m*3 8.44 C 2.26667 km/h
310 17-11-2014 21:00:00 8.48333 C 8.36 g/m*3 8.48 C 0.93333 km/h
311 17-11-2014 22:00:00 8.50833 C 8.37 g/m*3 8.51 C 0.26667 km/h
312 17-11-2014 23:00:00 8.31667 C 8.27 g/m*3 8.32 C 1.06667 km/h
313 18-11-2014 00:00:00 8.15 C 8.18 g/m*3 8.15 C 1.46667 km/h
314 18-11-2014 01:00:00 7.95833 C 8.08 g/m*3 7.96 C 1.2 km/h
315 18-11-2014 02:00:00 7.6 C 7.9 g/m*3 7.6 C 1.73333 km/h
316 18-11-2014 03:00:00 7.75833 C 7.98 g/m*3 7.76 C 0 km/h
317 18-11-2014 04:00:00 7.8 C 8 g/m*3 7.8 C 0 km/h
318 18-11-2014 05:00:00 7.775 C 7.99 g/m*3 7.78 C 0 km/h
319 18-11-2014 06:00:00 7.71667 C 7.95 g/m*3 7.72 C 0 km/h
320 18-11-2014 07:00:00 7.76667 C 7.98 g/m*3 7.77 C 0 km/h
321 18-11-2014 08:00:00 7.90833 C 8.05 g/m*3 7.91 C 0 km/h
322 18-11-2014 09:00:00 8.19167 C 8.2 g/m*3 8.19 C 0 km/h
323 18-11-2014 10:00:00 8.40833 C 8.32 g/m*3 8.41 C 0 km/h
324 18-11-2014 11:00:00 8.675 C 8.45 g/m*3 8.68 C 0 km/h
325 18-11-2014 12:00:00 9.275 C 8.64 g/m*3 9.28 C 0.26667 km/h
Sensor: Nr:Datum:Temp:Abs-Feuchte:Windchill:Wind:
Aussen-T/F 326 18-11-2014 13:00:00 9.74167 C 8.63 g/m*3 9.74 C 0.26667 km/h
327 18-11-2014 14:00:00 10.07143 C 8.67 g/m*3 10.07 C 0.22857 km/h
328 18-11-2014 15:00:00 9.8 C 8.67 g/m*3 9.8 C 0.96 km/h
329 18-11-2014 16:00:00 9.75 C 8.59 g/m*3 9.75 C 3.06667 km/h
330 18-11-2014 17:00:00 9.6 C 8.53 g/m*3 9.6 C 3.46667 km/h
331 18-11-2014 18:00:00 9.35 C 8.53 g/m*3 9.35 C 2.53333 km/h
332 18-11-2014 19:00:00 9.05 C 8.56 g/m*3 9.05 C 0.93333 km/h
333 18-11-2014 20:00:00 8.925 C 8.52 g/m*3 8.93 C 1.46667 km/h
334 18-11-2014 21:00:00 8.9 C 8.58 g/m*3 8.9 C 0 km/h
335 18-11-2014 22:00:00 8.83333 C 8.55 g/m*3 8.83 C 0 km/h
336 18-11-2014 23:00:00 8.79167 C 8.53 g/m*3 8.79 C 0 km/h
337 19-11-2014 00:00:00 8.64167 C 8.44 g/m*3 8.64 C 0 km/h
338 19-11-2014 01:00:00 8.525 C 8.38 g/m*3 8.53 C 0.26667 km/h
339 19-11-2014 02:00:00 8.4 C 8.31 g/m*3 8.4 C 0 km/h
340 19-11-2014 03:00:00 8.31667 C 8.27 g/m*3 8.32 C 0 km/h
341 19-11-2014 04:00:00 8.26667 C 8.24 g/m*3 8.27 C 0.26667 km/h
342 19-11-2014 05:00:00 8.25 C 8.23 g/m*3 8.25 C 0.13333 km/h
343 19-11-2014 06:00:00 8.05 C 8.14 g/m*3 8.05 C 1.6 km/h
344 19-11-2014 07:00:00 8.1 C 8.2 g/m*3 8.1 C 0.26667 km/h
345 19-11-2014 08:00:00 8.11667 C 8.18 g/m*3 8.12 C 0.13333 km/h
346 19-11-2014 09:00:00 8.45833 C 8.41 g/m*3 8.46 C 0 km/h
347 19-11-2014 10:00:00 8.7 C 8.35 g/m*3 8.7 C 0.26667 km/h
348 19-11-2014 11:00:00 9.46667 C 8.19 g/m*3 9.47 C 0.13333 km/h
349 19-11-2014 12:00:00 9.99167 C 8.37 g/m*3 9.99 C 3.73333 km/h
350 19-11-2014 13:00:00 10.175 C 8.28 g/m*3 10.18 C 2.13333 km/h
Sensor: Nr:Datum:Temp:Abs-Feuchte:Windchill:Wind:
Aussen-T/F 351 19-11-2014 14:00:00 10.1 C 8.41 g/m*3 10.1 C 2.13333 km/h
352 19-11-2014 15:00:00 8.95833 C 8.28 g/m*3 8.96 C 2.93333 km/h
353 19-11-2014 16:00:00 8.36667 C 8.04 g/m*3 8.37 C 4.4 km/h
354 19-11-2014 17:00:00 7.45833 C 7.66 g/m*3 7.46 C 4 km/h
355 19-11-2014 18:00:00 6.76667 C 7.36 g/m*3 6.77 C 0.4 km/h
356 19-11-2014 19:00:00 6.525 C 7.31 g/m*3 6.53 C 0 km/h
357 19-11-2014 20:00:00 6.8 C 7.49 g/m*3 6.8 C 0 km/h
358 19-11-2014 21:00:00 6.41667 C 7.26 g/m*3 6.42 C 0 km/h
359 19-11-2014 22:00:00 5.575 C 6.87 g/m*3 5.58 C 0 km/h
360 19-11-2014 23:00:00 5.36667 C 6.82 g/m*3 5.37 C 0 km/h
361 20-11-2014 00:00:00 5.70833 C 6.98 g/m*3 5.71 C 0.26667 km/h
362 20-11-2014 01:00:00 5.625 C 6.94 g/m*3 5.63 C 1.2 km/h
363 20-11-2014 02:00:00 5.21667 C 6.76 g/m*3 5.22 C 0.26667 km/h
364 20-11-2014 03:00:00 5.05 C 6.68 g/m*3 5.05 C 0.4 km/h
365 20-11-2014 04:00:00 5.225 C 6.76 g/m*3 5.23 C 0.13333 km/h
366 20-11-2014 05:00:00 5.3 C 6.79 g/m*3 5.3 C 0 km/h
367 20-11-2014 06:00:00 5.38333 C 6.84 g/m*3 5.38 C 0.26667 km/h
368 20-11-2014 07:00:00 5.31667 C 6.8 g/m*3 5.32 C 0.53333 km/h
369 20-11-2014 08:00:00 5.40833 C 6.84 g/m*3 5.41 C 0.4 km/h
370 20-11-2014 09:00:00 5.56667 C 6.92 g/m*3 5.57 C 2.66667 km/h
371 20-11-2014 10:00:00 6.1 C 7.2 g/m*3 6.1 C 0.93333 km/h
372 20-11-2014 11:00:00 6.95833 C 7.51 g/m*3 6.96 C 1.73333 km/h
373 20-11-2014 12:00:00 8.08333 C 7.67 g/m*3 8.08 C 2.93333 km/h
374 20-11-2014 13:00:00 8.325 C 7.47 g/m*3 8.32 C 4.69167 km/h
375 20-11-2014 14:00:00 8.14167 C 7.31 g/m*3 8.14 C 2.93333 km/h
Sensor: Nr:Datum:Temp:Abs-Feuchte:Windchill:Wind:
Aussen-T/F 376 20-11-2014 15:00:00 7.95 C 7.19 g/m*3 7.95 C 3.2 km/h
377 20-11-2014 16:00:00 7.74167 C 7.26 g/m*3 7.74 C 0.93333 km/h
378 20-11-2014 17:00:00 7.31667 C 7.2 g/m*3 7.32 C 0.8 km/h
379 20-11-2014 18:00:00 6.85833 C 7.15 g/m*3 6.86 C 0.53333 km/h
380 20-11-2014 19:00:00 6.96667 C 7.2 g/m*3 6.97 C 0.13333 km/h
381 20-11-2014 20:00:00 6.99167 C 7.13 g/m*3 6.99 C 0.13333 km/h
382 20-11-2014 21:00:00 7 C 7.06 g/m*3 7 C 0.8 km/h
383 20-11-2014 22:00:00 6.36667 C 6.89 g/m*3 6.37 C 1.6 km/h
384 20-11-2014 23:00:00 6.31667 C 6.93 g/m*3 6.32 C 0.4 km/h
385 21-11-2014 00:00:00 6.23333 C 6.92 g/m*3 6.23 C 0 km/h
386 21-11-2014 01:00:00 6.075 C 6.83 g/m*3 6.08 C 0.26667 km/h
387 21-11-2014 02:00:00 6.06667 C 6.85 g/m*3 6.07 C 0 km/h
388 21-11-2014 03:00:00 5.55833 C 6.62 g/m*3 5.56 C 0.8 km/h
389 21-11-2014 04:00:00 4.81667 C 6.35 g/m*3 4.82 C 3.73333 km/h
390 21-11-2014 05:00:00 3.925 C 6.06 g/m*3 3.93 C 3.6 km/h
391 21-11-2014 06:00:00 3.39167 C 5.89 g/m*3 3.39 C 2.13333 km/h
392 21-11-2014 07:00:00 3.05833 C 5.79 g/m*3 3.06 C 2.26667 km/h
393 21-11-2014 08:00:00 2.81667 C 5.7 g/m*3 2.82 C 0.26667 km/h
394 21-11-2014 09:00:00 3.05 C 5.84 g/m*3 3.05 C 0 km/h
395 21-11-2014 10:00:00 3.56667 C 6.05 g/m*3 3.57 C 2.53333 km/h
396 21-11-2014 11:00:00 4.38333 C 6.39 g/m*3 4.38 C 3.33333 km/h
397 21-11-2014 12:00:00 5.44167 C 6.86 g/m*3 5.44 C 2.8 km/h
398 21-11-2014 13:00:00 6.16667 C 7.07 g/m*3 6.17 C 3.6 km/h
399 21-11-2014 14:00:00 6.70833 C 7.23 g/m*3 6.71 C 4.8 km/h
400 21-11-2014 15:00:00 6.725 C 7.21 g/m*3 6.73 C 4.4 km/h
Sensor: Nr:Datum:Temp:Abs-Feuchte:Windchill:Wind:
Aussen-T/F 401 21-11-2014 16:00:00 7.25833 C 7.49 g/m*3 7.26 C 2.26667 km/h
402 21-11-2014 17:00:00 7.4 C 7.48 g/m*3 7.4 C 0.8 km/h
403 21-11-2014 18:00:00 7.55 C 7.35 g/m*3 7.55 C 2 km/h
404 21-11-2014 19:00:00 7.76667 C 7.29 g/m*3 7.77 C 1.33333 km/h
405 21-11-2014 20:00:00 6.35 C 6.83 g/m*3 6.35 C 2.4 km/h
406 21-11-2014 21:00:00 5.275 C 6.53 g/m*3 5.28 C 3.2 km/h
407 21-11-2014 22:00:00 4.775 C 6.38 g/m*3 4.78 C 2.8 km/h
408 21-11-2014 23:00:00 4.39167 C 6.27 g/m*3 4.39 C 1.73333 km/h
409 22-11-2014 00:00:00 3.98333 C 6.11 g/m*3 3.98 C 2 km/h
410 22-11-2014 01:00:00 3.825 C 6.1 g/m*3 3.83 C 0.66667 km/h
411 22-11-2014 02:00:00 3.49167 C 5.96 g/m*3 3.49 C 1.46667 km/h
412 22-11-2014 03:00:00 3.14167 C 5.82 g/m*3 3.14 C 0.13333 km/h
413 22-11-2014 04:00:00 3.05833 C 5.81 g/m*3 3.06 C 1.86667 km/h
414 22-11-2014 05:00:00 3.11667 C 5.87 g/m*3 3.12 C 0.53333 km/h
415 22-11-2014 06:00:00 3.475 C 6.02 g/m*3 3.48 C 0.53333 km/h
416 22-11-2014 07:00:00 3.475 C 6.02 g/m*3 3.48 C 0.53333 km/h
417 22-11-2014 08:00:00 4.23333 C 6.33 g/m*3 4.23 C 1.33333 km/h
418 22-11-2014 09:00:00 5.36667 C 6.79 g/m*3 5.37 C 1.86667 km/h
419 22-11-2014 10:00:00 6.525 C 7.18 g/m*3 6.53 C 0.26667 km/h
420 22-11-2014 11:00:00 6.96667 C 7.33 g/m*3 6.97 C 1.2 km/h
421 22-11-2014 12:00:00 7.68333 C 7.78 g/m*3 7.68 C 2.13333 km/h
422 22-11-2014 13:00:00 8.9 C 8.34 g/m*3 8.9 C 1.46667 km/h
423 22-11-2014 14:00:00 10.44167 C 8.76 g/m*3 10.44 C 1.06667 km/h
424 22-11-2014 15:00:00 10.25833 C 8.5 g/m*3 10.26 C 2.53333 km/h
425 22-11-2014 16:00:00 8.8 C 7.91 g/m*3 8.8 C 3.34167 km/h
Sensor: Nr:Datum:Temp:Abs-Feuchte:Windchill:Wind:
Aussen-T/F 426 22-11-2014 17:00:00 7.41667 C 7.52 g/m*3 7.42 C 2.13333 km/h
427 22-11-2014 18:00:00 7.26667 C 7.46 g/m*3 7.27 C 2.675 km/h
428 22-11-2014 19:00:00 6.53333 C 7.16 g/m*3 6.53 C 1.46667 km/h
429 22-11-2014 20:00:00 5.96667 C 6.96 g/m*3 5.97 C 1.46667 km/h
430 22-11-2014 21:00:00 5.53333 C 6.8 g/m*3 5.53 C 2.66667 km/h
431 22-11-2014 22:00:00 5.30833 C 6.73 g/m*3 5.31 C 2 km/h
432 22-11-2014 23:00:00 5.29167 C 6.77 g/m*3 5.29 C 2.26667 km/h
433 23-11-2014 00:00:00 5.20833 C 6.73 g/m*3 5.21 C 0.93333 km/h
434 23-11-2014 01:00:00 4.975 C 6.65 g/m*3 4.97 C 0.4 km/h
435 23-11-2014 02:00:00 4.875 C 6.6 g/m*3 4.88 C 0 km/h
436 23-11-2014 03:00:00 4.53333 C 6.46 g/m*3 4.53 C 0.4 km/h
437 23-11-2014 04:00:00 4.31667 C 6.36 g/m*3 4.32 C 0 km/h
438 23-11-2014 05:00:00 4.31667 C 6.36 g/m*3 4.32 C 0.4 km/h
439 23-11-2014 06:00:00 4.50833 C 6.47 g/m*3 4.51 C 0 km/h
440 23-11-2014 07:00:00 5.19167 C 6.79 g/m*3 5.19 C 1.2 km/h
441 23-11-2014 08:00:00 5.325 C 6.86 g/m*3 5.33 C 0.66667 km/h
442 23-11-2014 09:00:00 5.575 C 6.98 g/m*3 5.58 C 0.13333 km/h
443 23-11-2014 10:00:00 6.45 C 7.4 g/m*3 6.45 C 1.06667 km/h
444 23-11-2014 11:00:00 6.71667 C 7.45 g/m*3 6.72 C 1.6 km/h
445 23-11-2014 12:00:00 7.18333 C 7.65 g/m*3 7.18 C 1.06667 km/h
446 23-11-2014 13:00:00 8.08333 C 7.92 g/m*3 8.08 C 2.53333 km/h
447 23-11-2014 14:00:00 8.34167 C 7.93 g/m*3 8.34 C 1.2 km/h
448 23-11-2014 15:00:00 8.25833 C 7.94 g/m*3 8.26 C 0.93333 km/h
449 23-11-2014 16:00:00 7.55 C 7.59 g/m*3 7.55 C 0.53333 km/h
450 23-11-2014 17:00:00 6.48333 C 7.19 g/m*3 6.48 C 2.40833 km/h
Sensor: Nr:Datum:Temp:Abs-Feuchte:Windchill:Wind:
Aussen-T/F 451 23-11-2014 18:00:00 7.08333 C 7.35 g/m*3 7.08 C 4.01667 km/h
452 23-11-2014 19:00:00 6.725 C 7.28 g/m*3 6.73 C 1.73333 km/h
453 23-11-2014 20:00:00 7.14167 C 7.53 g/m*3 7.14 C 0.53333 km/h
454 23-11-2014 21:00:00 7.28333 C 7.61 g/m*3 7.28 C 1.6 km/h
455 23-11-2014 22:00:00 7.49167 C 7.76 g/m*3 7.49 C 1.2 km/h
456 23-11-2014 23:00:00 7.60833 C 7.82 g/m*3 7.61 C 0.53333 km/h
457 24-11-2014 00:00:00 7.6 C 7.81 g/m*3 7.6 C 0 km/h
458 24-11-2014 01:00:00 7.63333 C 7.83 g/m*3 7.63 C 0.8 km/h
459 24-11-2014 02:00:00 7.93333 C 7.98 g/m*3 7.93 C 0.4 km/h
460 24-11-2014 03:00:00 7.90833 C 7.97 g/m*3 7.91 C 0 km/h
461 24-11-2014 04:00:00 7.95 C 7.99 g/m*3 7.95 C 1.06667 km/h
462 24-11-2014 05:00:00 8.19167 C 8.05 g/m*3 8.19 C 2.8 km/h
463 24-11-2014 06:00:00 9.36667 C 8.75 g/m*3 9.37 C 2.93333 km/h
464 24-11-2014 07:00:00 9.775 C 8.94 g/m*3 9.78 C 4.41667 km/h
465 24-11-2014 08:00:00 9.85 C 8.78 g/m*3 9.4 C 5.64167 km/h
466 24-11-2014 09:00:00 9.675 C 8.76 g/m*3 9.68 C 3.2 km/h
467 24-11-2014 10:00:00 9.70833 C 8.76 g/m*3 9.71 C 3.35833 km/h
468 24-11-2014 11:00:00 9.83333 C 8.69 g/m*3 9.83 C 2.80833 km/h
469 24-11-2014 12:00:00 10.025 C 8.49 g/m*3 9.76 C 5.09167 km/h
470 24-11-2014 13:00:00 9.99167 C 8.03 g/m*3 8.9 C 8.46667 km/h
471 24-11-2014 14:00:00 10.2 C 7.87 g/m*3 9 C 9.275 km/h
472 24-11-2014 15:00:00 9.6 C 7.58 g/m*3 9.6 C 3.54 km/h
473 24-11-2014 16:00:00 6.35 C 6.98 g/m*3 5.4 C 5.6 km/h
474 24-11-2014 17:00:00 5.85 C 6.82 g/m*3 5.85 C 3.6 km/h
475 24-11-2014 18:00:00 5.04167 C 6.53 g/m*3 5.04 C 0.66667 km/h
Sensor: Nr:Datum:Temp:Abs-Feuchte:Windchill:Wind:
Aussen-T/F 476 24-11-2014 19:00:00 4.16667 C 6.2 g/m*3 4.17 C 0 km/h
477 24-11-2014 20:00:00 3.53333 C 5.98 g/m*3 3.53 C 0 km/h
478 24-11-2014 21:00:00 2.81667 C 5.7 g/m*3 2.82 C 0 km/h
479 24-11-2014 22:00:00 2.29167 C 5.5 g/m*3 2.29 C 0.13333 km/h
480 24-11-2014 23:00:00 1.96667 C 5.41 g/m*3 1.97 C 0.26667 km/h
481 25-11-2014 00:00:00 1.86667 C 5.4 g/m*3 1.87 C 0.4 km/h
482 25-11-2014 01:00:00 2.06667 C 5.47 g/m*3 2.07 C 0 km/h
483 25-11-2014 02:00:00 1.86667 C 5.4 g/m*3 1.87 C 0.26667 km/h
484 25-11-2014 03:00:00 1.76667 C 5.36 g/m*3 1.77 C 1.2 km/h
485 25-11-2014 04:00:00 1.55833 C 5.29 g/m*3 1.56 C 0.13333 km/h
486 25-11-2014 05:00:00 2.1 C 5.5 g/m*3 2.1 C 0.66667 km/h
487 25-11-2014 06:00:00 2.25 C 5.55 g/m*3 2.25 C 0.66667 km/h
488 25-11-2014 07:00:00 2.21667 C 5.56 g/m*3 2.22 C 0.4 km/h
489 25-11-2014 08:00:00 2.175 C 5.53 g/m*3 2.17 C 0 km/h
490 25-11-2014 09:00:00 2.475 C 5.68 g/m*3 2.48 C 1.33333 km/h
491 25-11-2014 10:00:00 2.875 C 5.84 g/m*3 2.88 C 2.2 km/h
492 25-11-2014 11:00:00 3.45833 C 6.05 g/m*3 3.46 C 1.33333 km/h
493 25-11-2014 12:00:00 3.53333 C 6.04 g/m*3 3.53 C 1.06667 km/h
494 25-11-2014 13:00:00 3.54167 C 6.04 g/m*3 3.54 C 0.26667 km/h
495 25-11-2014 14:00:00 3.95556 C 6.21 g/m*3 3.96 C 3.02222 km/h
496 25-11-2014 15:00:00 4.2 C 6.31 g/m*3 4.2 C 3.2 km/h
497 25-11-2014 17:00:00 3.4 C 5.92 g/m*3 3.4 C 4.4 km/h
498 25-11-2014 18:00:00 3.25 C 5.86 g/m*3 3.25 C 4 km/h
499 25-11-2014 19:00:00 3.35 C 5.96 g/m*3 3.35 C 2.66667 km/h
500 25-11-2014 20:00:00 4.14167 C 6.29 g/m*3 4.14 C 1.2 km/h
Sensor: Nr:Datum:Temp:Abs-Feuchte:Windchill:Wind:
Aussen-T/F 501 25-11-2014 21:00:00 4.825 C 6.53 g/m*3 4.83 C 1.2 km/h
502 25-11-2014 22:00:00 5.2 C 6.64 g/m*3 5.2 C 0.53333 km/h
503 25-11-2014 23:00:00 5.39167 C 6.49 g/m*3 5.39 C 4.68333 km/h
504 26-11-2014 00:00:00 5.36667 C 6.33 g/m*3 5.37 C 4 km/h
505 26-11-2014 01:00:00 5.21667 C 6.27 g/m*3 5.22 C 2.93333 km/h
506 26-11-2014 02:00:00 4.88333 C 6.14 g/m*3 4.88 C 2 km/h
507 26-11-2014 03:00:00 4.73333 C 6.04 g/m*3 4.73 C 2.4 km/h
508 26-11-2014 04:00:00 4.6 C 5.96 g/m*3 3.6 C 5.08333 km/h
509 26-11-2014 05:00:00 4.40833 C 5.89 g/m*3 4.41 C 1.73333 km/h
510 26-11-2014 06:00:00 4.35833 C 5.9 g/m*3 4.36 C 0.53333 km/h
511 26-11-2014 07:00:00 4.35833 C 5.88 g/m*3 4.36 C 0.93333 km/h
512 26-11-2014 08:00:00 4.4 C 5.88 g/m*3 4.4 C 2 km/h
513 26-11-2014 09:00:00 4.57143 C 5.87 g/m*3 4.57 C 3.42857 km/h
514 26-11-2014 11:00:00 5.7 C 6.03 g/m*3 5.7 C 2.88 km/h
515 26-11-2014 12:00:00 5.66667 C 6.22 g/m*3 5.67 C 2.53333 km/h
516 26-11-2014 13:00:00 5.875 C 6.41 g/m*3 5.88 C 3.6 km/h
517 26-11-2014 14:00:00 5.96667 C 6.42 g/m*3 5.97 C 2.53333 km/h
518 26-11-2014 15:00:00 6.15 C 6.46 g/m*3 6.15 C 3.46667 km/h
519 26-11-2014 16:00:00 5.94167 C 6.4 g/m*3 5.94 C 1.73333 km/h
520 26-11-2014 17:00:00 5.85833 C 6.34 g/m*3 5.86 C 2 km/h
521 26-11-2014 18:00:00 5.75833 C 6.3 g/m*3 5.76 C 0.93333 km/h
522 26-11-2014 19:00:00 5.7 C 6.35 g/m*3 5.7 C 0.13333 km/h
523 26-11-2014 20:00:00 5.60833 C 6.35 g/m*3 5.61 C 0 km/h
524 26-11-2014 21:00:00 5.75 C 6.41 g/m*3 5.75 C 0.26667 km/h
525 26-11-2014 22:00:00 5.625 C 6.54 g/m*3 5.63 C 0 km/h
Sensor: Nr:Datum:Temp:Abs-Feuchte:Windchill:Wind:
Aussen-T/F 526 26-11-2014 23:00:00 5.3 C 6.58 g/m*3 5.3 C 0 km/h
527 27-11-2014 00:00:00 5.225 C 6.54 g/m*3 5.23 C 0.26667 km/h
528 27-11-2014 01:00:00 5.28333 C 6.51 g/m*3 5.28 C 0 km/h
529 27-11-2014 02:00:00 5.30833 C 6.52 g/m*3 5.31 C 0 km/h
530 27-11-2014 03:00:00 5.33333 C 6.53 g/m*3 5.33 C 0 km/h
531 27-11-2014 04:00:00 5.33333 C 6.51 g/m*3 5.33 C 0 km/h
532 27-11-2014 05:00:00 5.3 C 6.45 g/m*3 5.3 C 0 km/h
533 27-11-2014 06:00:00 5.3 C 6.45 g/m*3 5.3 C 0 km/h
534 27-11-2014 07:00:00 5.14167 C 6.4 g/m*3 5.14 C 0 km/h
535 27-11-2014 08:00:00 5.26667 C 6.39 g/m*3 5.27 C 0.93333 km/h
536 27-11-2014 09:00:00 5.71667 C 6.42 g/m*3 5.72 C 2.93333 km/h
537 27-11-2014 10:00:00 6.08889 C 6.55 g/m*3 6.09 C 1.24444 km/h
538 27-11-2014 13:00:00 7.4625 C 6.98 g/m*3 7.46 C 1 km/h
539 27-11-2014 14:00:00 7.50833 C 6.98 g/m*3 7.51 C 3.46667 km/h
540 27-11-2014 15:00:00 7.275 C 6.95 g/m*3 7.28 C 2.53333 km/h
541 27-11-2014 16:00:00 6.775 C 7.05 g/m*3 6.78 C 0.8 km/h
542 27-11-2014 17:00:00 6.3 C 7 g/m*3 6.3 C 1.2 km/h
543 27-11-2014 18:00:00 6.05 C 6.91 g/m*3 6.05 C 0.8 km/h
544 27-11-2014 19:00:00 5.825 C 6.82 g/m*3 5.83 C 0.4 km/h
545 27-11-2014 20:00:00 5.74167 C 6.78 g/m*3 5.74 C 1.06667 km/h
546 27-11-2014 21:00:00 5.7 C 6.76 g/m*3 5.7 C 0.4 km/h
547 27-11-2014 22:00:00 5.7 C 6.77 g/m*3 5.7 C 0 km/h
548 27-11-2014 23:00:00 5.75833 C 6.79 g/m*3 5.76 C 0 km/h
549 28-11-2014 00:00:00 5.80833 C 6.81 g/m*3 5.81 C 0.13333 km/h
550 28-11-2014 01:00:00 5.9 C 6.83 g/m*3 5.9 C 0.66667 km/h
Sensor: Nr:Datum:Temp:Abs-Feuchte:Windchill:Wind:
Aussen-T/F 551 28-11-2014 02:00:00 5.675 C 6.61 g/m*3 5.68 C 1.33333 km/h
552 28-11-2014 03:00:00 4.98333 C 6.37 g/m*3 4.98 C 0.4 km/h
553 28-11-2014 04:00:00 4.98333 C 6.36 g/m*3 4.98 C 0.93333 km/h
554 28-11-2014 05:00:00 4.875 C 6.31 g/m*3 4.88 C 0.53333 km/h
555 28-11-2014 06:00:00 4.75 C 6.27 g/m*3 4.75 C 0.93333 km/h
556 28-11-2014 07:00:00 4.86667 C 6.25 g/m*3 4.87 C 1.86667 km/h
557 28-11-2014 08:00:00 4.96667 C 6.29 g/m*3 4.97 C 2 km/h
558 28-11-2014 09:00:00 5.6 C 6.46 g/m*3 5.6 C 4.27778 km/h
559 28-11-2014 10:00:00 6.1 C 6.61 g/m*3 5.3 C 5.09167 km/h
560 28-11-2014 11:00:00 6.2 C 6.61 g/m*3 6.2 C 4.37273 km/h
561 28-11-2014 12:00:00 6.5 C 7.5 g/m*3 5.58 C 5.6 km/h
562 28-11-2014 16:00:00 5.53 C 6.34 g/m*3 5.53 C 4.99 km/h
563 28-11-2014 17:00:00 5.5 C 6.33 g/m*3 5.5 C 4.675 km/h
564 28-11-2014 18:00:00 5.45 C 6.32 g/m*3 5.45 C 3.33333 km/h
565 28-11-2014 19:00:00 5.40833 C 6.29 g/m*3 5.41 C 4 km/h
566 28-11-2014 20:00:00 5.56667 C 6.35 g/m*3 5.57 C 3.33333 km/h
567 28-11-2014 21:00:00 5.56667 C 6.35 g/m*3 5.57 C 3.2 km/h
568 28-11-2014 22:00:00 5.38333 C 6.27 g/m*3 5.38 C 4.4 km/h
569 28-11-2014 23:00:00 5.275 C 6.21 g/m*3 4.21 C 5.50833 km/h
570 29-11-2014 00:00:00 5.11667 C 6.16 g/m*3 5.12 C 4.55 km/h
571 29-11-2014 01:00:00 4.94167 C 6.09 g/m*3 4.94 C 4.95 km/h
572 29-11-2014 02:00:00 4.75833 C 5.97 g/m*3 3.78 C 5.075 km/h
573 29-11-2014 03:00:00 4.55 C 5.9 g/m*3 4.55 C 4.675 km/h
574 29-11-2014 04:00:00 4.43333 C 5.88 g/m*3 4.43 C 1.73333 km/h
575 29-11-2014 05:00:00 4.375 C 5.8 g/m*3 4.38 C 2.8 km/h
Sensor: Nr:Datum:Temp:Abs-Feuchte:Windchill:Wind:
Aussen-T/F 576 29-11-2014 06:00:00 4.28333 C 5.81 g/m*3 4.28 C 3.06667 km/h
577 29-11-2014 07:00:00 4.18333 C 5.79 g/m*3 4.18 C 2.53333 km/h
578 29-11-2014 08:00:00 4.13333 C 5.77 g/m*3 4.13 C 3.55556 km/h
579 29-11-2014 09:00:00 4.2 C 5.78 g/m*3 4.2 C 4.14167 km/h
580 29-11-2014 10:00:00 4.23333 C 5.75 g/m*3 3.18 C 5.075 km/h
581 29-11-2014 11:00:00 4.41667 C 5.81 g/m*3 4.42 C 4.8 km/h
582 29-11-2014 12:00:00 4.66667 C 5.86 g/m*3 4.67 C 3.34167 km/h
583 29-11-2014 13:00:00 4.78333 C 5.89 g/m*3 4.78 C 3.86667 km/h
584 29-11-2014 14:00:00 4.79167 C 5.9 g/m*3 4.79 C 4.14167 km/h
585 29-11-2014 15:00:00 4.7 C 5.92 g/m*3 4.7 C 2.66667 km/h
586 29-11-2014 16:00:00 4.61667 C 5.93 g/m*3 4.62 C 2.13333 km/h
587 29-11-2014 17:00:00 4.58333 C 5.94 g/m*3 4.58 C 0.8 km/h
588 29-11-2014 18:00:00 4.45 C 5.84 g/m*3 4.45 C 2.4 km/h
589 29-11-2014 19:00:00 4.3 C 5.8 g/m*3 4.3 C 2.13333 km/h
590 29-11-2014 20:00:00 4.25833 C 5.82 g/m*3 4.26 C 3.20833 km/h
591 29-11-2014 21:00:00 4.175 C 5.79 g/m*3 4.18 C 2.66667 km/h
592 29-11-2014 22:00:00 4.1 C 5.76 g/m*3 4.1 C 1.86667 km/h
593 29-11-2014 23:00:00 4.05 C 5.74 g/m*3 4.05 C 2.53333 km/h
594 30-11-2014 00:00:00 3.9 C 5.68 g/m*3 3.9 C 2 km/h
595 30-11-2014 01:00:00 3.9 C 5.69 g/m*3 3.9 C 1.73333 km/h
596 30-11-2014 02:00:00 3.94167 C 5.74 g/m*3 3.94 C 0.8 km/h
597 30-11-2014 03:00:00 3.975 C 5.78 g/m*3 3.98 C 1.2 km/h
598 30-11-2014 04:00:00 3.90833 C 5.75 g/m*3 3.91 C 0.4 km/h
599 30-11-2014 05:00:00 3.9 C 5.75 g/m*3 3.9 C 0.8 km/h
600 30-11-2014 06:00:00 3.85833 C 5.73 g/m*3 3.86 C 1.86667 km/h
Sensor: Nr:Datum:Temp:Abs-Feuchte:Windchill:Wind:
Aussen-T/F 601 30-11-2014 07:00:00 3.8 C 5.73 g/m*3 3.8 C 2.55 km/h
602 30-11-2014 08:00:00 3.8 C 5.76 g/m*3 3.8 C 2.26667 km/h
603 30-11-2014 09:00:00 3.875 C 5.8 g/m*3 3.88 C 2.8 km/h
604 30-11-2014 10:00:00 4.01667 C 5.85 g/m*3 4.02 C 2.94167 km/h
605 30-11-2014 11:00:00 4.15 C 5.9 g/m*3 4.15 C 2.8 km/h
606 30-11-2014 12:00:00 4.325 C 5.93 g/m*3 4.33 C 2.93333 km/h
607 30-11-2014 13:00:00 4.30833 C 5.91 g/m*3 4.31 C 2 km/h
608 30-11-2014 14:00:00 4.20833 C 5.89 g/m*3 4.21 C 2.13333 km/h
609 30-11-2014 15:00:00 4.075 C 5.87 g/m*3 4.08 C 3.20833 km/h
610 30-11-2014 16:00:00 3.85 C 5.8 g/m*3 3.85 C 2 km/h
611 30-11-2014 17:00:00 3.8 C 5.81 g/m*3 3.8 C 0.93333 km/h
612 30-11-2014 18:00:00 3.75 C 5.8 g/m*3 3.75 C 2.40833 km/h
613 30-11-2014 19:00:00 3.69167 C 5.79 g/m*3 3.69 C 3.06667 km/h
614 30-11-2014 20:00:00 3.66667 C 5.78 g/m*3 3.67 C 2.13333 km/h
615 30-11-2014 21:00:00 3.65833 C 5.79 g/m*3 3.66 C 2 km/h
616 30-11-2014 22:00:00 3.53333 C 5.79 g/m*3 3.53 C 2.26667 km/h
617 30-11-2014 23:00:00 3.46667 C 5.77 g/m*3 3.47 C 2.4 km/h
618 01-12-2014 00:00:00 3.375 C 5.73 g/m*3 3.38 C 3.75 km/h
619 01-12-2014 01:00:00 3.3 C 5.73 g/m*3 3.3 C 3.2 km/h
620 01-12-2014 02:00:00 3.3 C 5.76 g/m*3 3.3 C 0.4 km/h
621 01-12-2014 03:00:00 3.39167 C 5.8 g/m*3 3.39 C 1.46667 km/h
622 01-12-2014 04:00:00 3.63333 C 5.88 g/m*3 3.63 C 2.4 km/h
623 01-12-2014 05:00:00 3.83333 C 5.91 g/m*3 3.83 C 1.06667 km/h
624 01-12-2014 06:00:00 4.13333 C 5.95 g/m*3 4.13 C 4.675 km/h
625 01-12-2014 07:00:00 4.175 C 5.92 g/m*3 2.42 C 7.11667 km/h
Sensor: Nr:Datum:Temp:Abs-Feuchte:Windchill:Wind:
Aussen-T/F 626 01-12-2014 08:00:00 3.98333 C 5.82 g/m*3 2.55 C 6.025 km/h
627 01-12-2014 09:00:00 3.73333 C 5.68 g/m*3 0.76 C 11.83333 km/h
628 01-12-2014 10:00:00 3.78333 C 5.64 g/m*3 1.31 C 9.55 km/h
629 01-12-2014 11:00:00 3.86667 C 5.62 g/m*3 0.97 C 11.56667 km/h
630 01-12-2014 12:00:00 3.8 C 5.59 g/m*3 1.17 C 10.225 km/h
631 01-12-2014 13:00:00 3.825 C 5.66 g/m*3 3.83 C 3.875 km/h
632 01-12-2014 14:00:00 3.68333 C 5.62 g/m*3 1.98 C 6.69167 km/h
633 01-12-2014 15:00:00 3.36667 C 5.48 g/m*3 1.39 C 7.39167 km/h
634 01-12-2014 16:00:00 3.2 C 5.37 g/m*3 1.95 C 5.23333 km/h
635 01-12-2014 17:00:00 3 C 5.29 g/m*3 1 C 7.25833 km/h
636 01-12-2014 18:00:00 2.73333 C 5.21 g/m*3 2.73 C 3.06667 km/h
637 01-12-2014 19:00:00 2.65833 C 5.22 g/m*3 2.66 C 2.53333 km/h
638 01-12-2014 20:00:00 2.59167 C 5.21 g/m*3 2.59 C 1.2 km/h
639 01-12-2014 21:00:00 2.4 C 5.12 g/m*3 2.4 C 2.26667 km/h
640 01-12-2014 22:00:00 2.2 C 5.02 g/m*3 2.2 C 2 km/h
641 01-12-2014 23:00:00 2.025 C 4.96 g/m*3 2.03 C 4.69167 km/h
642 02-12-2014 00:00:00 1.825 C 4.94 g/m*3 1.83 C 1.86667 km/h
643 02-12-2014 01:00:00 1.75833 C 4.98 g/m*3 1.76 C 0.13333 km/h
644 02-12-2014 02:00:00 1.7 C 5.01 g/m*3 1.7 C 0.8 km/h
645 02-12-2014 03:00:00 1.65833 C 5.06 g/m*3 1.66 C 3.2 km/h
646 02-12-2014 04:00:00 1.5 C 5.03 g/m*3 1.5 C 3.73333 km/h
647 02-12-2014 05:00:00 1.34167 C 4.97 g/m*3 1.34 C 1.2 km/h
648 02-12-2014 06:00:00 1.2 C 4.98 g/m*3 1.2 C 0.4 km/h
649 02-12-2014 07:00:00 1.21667 C 4.99 g/m*3 1.22 C 1.06667 km/h
650 02-12-2014 08:00:00 1.2 C 4.95 g/m*3 1.2 C 0 km/h
Sensor: Nr:Datum:Temp:Abs-Feuchte:Windchill:Wind:
Aussen-T/F 651 02-12-2014 09:00:00 1.28333 C 4.95 g/m*3 1.28 C 0.8 km/h
652 02-12-2014 10:00:00 1.56667 C 4.96 g/m*3 1.57 C 2.13333 km/h
653 02-12-2014 11:00:00 1.94167 C 4.93 g/m*3 1.94 C 4.26667 km/h
654 02-12-2014 12:00:00 2.025 C 4.86 g/m*3 2.03 C 3.73333 km/h
655 02-12-2014 13:00:00 2.14167 C 4.83 g/m*3 0.43 C 6.01667 km/h
656 02-12-2014 14:00:00 2.1 C 4.79 g/m*3 0.48 C 5.76667 km/h
657 02-12-2014 15:00:00 2.2 C 4.84 g/m*3 2.2 C 2.4 km/h
658 02-12-2014 16:00:00 2.2 C 4.84 g/m*3 2.2 C 1.2 km/h
659 02-12-2014 17:00:00 2.2 C 4.84 g/m*3 2.2 C 0 km/h
660 02-12-2014 18:00:00 2 C 4.9 g/m*3 2 C 0.6 km/h
661 02-12-2014 19:00:00 1.9 C 4.97 g/m*3 1.9 C 0 km/h
662 02-12-2014 20:00:00 1.41667 C 4.95 g/m*3 1.42 C 0.26667 km/h
663 02-12-2014 21:00:00 1.225 C 4.98 g/m*3 1.23 C 0 km/h
664 02-12-2014 22:00:00 1.13333 C 5.01 g/m*3 1.13 C 0 km/h
665 02-12-2014 23:00:00 1.21667 C 5.08 g/m*3 1.22 C 0.13333 km/h
666 03-12-2014 00:00:00 1.275 C 5.13 g/m*3 1.27 C 0.4 km/h
667 03-12-2014 01:00:00 1.33333 C 5.13 g/m*3 1.33 C 0.26667 km/h
668 03-12-2014 02:00:00 1.425 C 5.13 g/m*3 1.43 C 0 km/h
669 03-12-2014 03:00:00 1.56667 C 5.22 g/m*3 1.57 C 0 km/h
670 03-12-2014 04:00:00 1.475 C 5.19 g/m*3 1.48 C 0 km/h
671 03-12-2014 05:00:00 1.725 C 5.29 g/m*3 1.73 C 0 km/h
672 03-12-2014 06:00:00 1.8 C 5.32 g/m*3 1.8 C 0 km/h
673 03-12-2014 07:00:00 1.96667 C 5.38 g/m*3 1.97 C 0 km/h
674 03-12-2014 08:00:00 2.01667 C 5.4 g/m*3 2.02 C 0 km/h
675 03-12-2014 09:00:00 1.84167 C 5.33 g/m*3 1.84 C 0.13333 km/h
Sensor: Nr:Datum:Temp:Abs-Feuchte:Windchill:Wind:
Aussen-T/F 676 03-12-2014 10:00:00 2 C 5.38 g/m*3 2 C 0.66667 km/h
677 03-12-2014 11:00:00 2.22857 C 5.42 g/m*3 2.23 C 3.65714 km/h
678 03-12-2014 12:00:00 2.5375 C 5.35 g/m*3 2.54 C 0.8 km/h
679 03-12-2014 16:00:00 2.1 C 5.1 g/m*3 2.1 C 1.01818 km/h
680 03-12-2014 17:00:00 1.94 C 5.07 g/m*3 1.94 C 0.64 km/h
681 03-12-2014 18:00:00 1.85556 C 4.91 g/m*3 1.86 C 1.42222 km/h
682 03-12-2014 19:00:00 1.725 C 4.87 g/m*3 1.73 C 1.46667 km/h
683 03-12-2014 20:00:00 1.7 C 4.79 g/m*3 1.7 C 3.06667 km/h
684 03-12-2014 21:00:00 1.575 C 4.84 g/m*3 1.58 C 0.13333 km/h
685 03-12-2014 22:00:00 1.54167 C 4.85 g/m*3 1.54 C 0.13333 km/h
686 03-12-2014 23:00:00 1.575 C 4.82 g/m*3 1.58 C 1.33333 km/h
687 04-12-2014 00:00:00 1.6 C 4.85 g/m*3 1.6 C 0 km/h
688 04-12-2014 01:00:00 1.6 C 4.88 g/m*3 1.6 C 0.4 km/h
689 04-12-2014 02:00:00 1.6 C 4.87 g/m*3 1.6 C 0 km/h
690 04-12-2014 03:00:00 1.6 C 4.88 g/m*3 1.6 C 0.13333 km/h
691 04-12-2014 04:00:00 1.6 C 4.9 g/m*3 1.6 C 0.53333 km/h
692 04-12-2014 05:00:00 1.6 C 4.93 g/m*3 1.6 C 0.13333 km/h
693 04-12-2014 06:00:00 1.6 C 4.98 g/m*3 1.6 C 0.13333 km/h
694 04-12-2014 07:00:00 1.6 C 5.03 g/m*3 1.6 C 0 km/h
695 04-12-2014 08:00:00 1.6 C 5.08 g/m*3 1.6 C 0 km/h
696 04-12-2014 09:00:00 1.70833 C 5.18 g/m*3 1.71 C 0.13333 km/h
697 04-12-2014 10:00:00 2.025 C 5.26 g/m*3 2.03 C 3.46667 km/h
698 04-12-2014 11:00:00 2.275 C 5.26 g/m*3 2.28 C 1.06667 km/h
699 04-12-2014 12:00:00 2.63333 C 5.34 g/m*3 2.63 C 1.6 km/h
700 04-12-2014 13:00:00 2.90833 C 5.43 g/m*3 2.91 C 0.8 km/h
Sensor: Nr:Datum:Temp:Abs-Feuchte:Windchill:Wind:
Aussen-T/F 701 04-12-2014 14:00:00 3.16667 C 5.51 g/m*3 3.17 C 1.6 km/h
702 04-12-2014 15:00:00 3.2 C 5.54 g/m*3 3.2 C 2.26667 km/h
703 04-12-2014 16:00:00 3.08333 C 5.55 g/m*3 3.08 C 0.53333 km/h
704 04-12-2014 17:00:00 2.91667 C 5.55 g/m*3 2.92 C 0 km/h
705 04-12-2014 18:00:00 2.8 C 5.55 g/m*3 2.8 C 0 km/h
706 04-12-2014 19:00:00 2.84167 C 5.59 g/m*3 2.84 C 0 km/h
707 04-12-2014 20:00:00 2.975 C 5.59 g/m*3 2.98 C 0.53333 km/h
708 04-12-2014 21:00:00 3.1 C 5.63 g/m*3 3.1 C 0 km/h
709 04-12-2014 22:00:00 2.925 C 5.59 g/m*3 2.93 C 0 km/h
710 04-12-2014 23:00:00 2.94167 C 5.6 g/m*3 2.94 C 0.53333 km/h
711 05-12-2014 00:00:00 2.94167 C 5.63 g/m*3 2.94 C 0 km/h
712 05-12-2014 01:00:00 3.15 C 5.71 g/m*3 3.15 C 0.26667 km/h
713 05-12-2014 02:00:00 3.24167 C 5.74 g/m*3 3.24 C 0 km/h
714 05-12-2014 03:00:00 3.3 C 5.69 g/m*3 3.3 C 1.86667 km/h
715 05-12-2014 04:00:00 3.2 C 5.6 g/m*3 3.2 C 1.86667 km/h
716 05-12-2014 05:00:00 3.11667 C 5.57 g/m*3 3.12 C 0.93333 km/h
717 05-12-2014 06:00:00 3.1 C 5.59 g/m*3 3.1 C 0.13333 km/h
718 05-12-2014 07:00:00 3.15833 C 5.65 g/m*3 3.16 C 0.26667 km/h
719 05-12-2014 08:00:00 3.20833 C 5.67 g/m*3 3.21 C 0 km/h
720 05-12-2014 09:00:00 3.50833 C 5.75 g/m*3 3.51 C 0.13333 km/h
721 05-12-2014 10:00:00 4.11667 C 5.86 g/m*3 4.12 C 3.46667 km/h
722 05-12-2014 11:00:00 4.51667 C 5.97 g/m*3 4.52 C 1.73333 km/h
723 05-12-2014 12:00:00 4.85 C 6.06 g/m*3 4.85 C 4.26667 km/h
724 05-12-2014 13:00:00 5.08333 C 6.14 g/m*3 5.08 C 4.93333 km/h
725 05-12-2014 14:00:00 5.33333 C 6.23 g/m*3 5.33 C 2.26667 km/h
Sensor: Nr:Datum:Temp:Abs-Feuchte:Windchill:Wind:
Aussen-T/F 726 05-12-2014 15:00:00 5.375 C 6.25 g/m*3 5.38 C 0.13333 km/h
727 05-12-2014 16:00:00 5.10833 C 6.27 g/m*3 5.11 C 0 km/h
728 05-12-2014 17:00:00 4.81667 C 6.24 g/m*3 4.82 C 0 km/h
729 05-12-2014 18:00:00 4.74167 C 6.26 g/m*3 4.74 C 0 km/h
730 05-12-2014 19:00:00 4.70833 C 6.27 g/m*3 4.71 C 0.4 km/h
731 05-12-2014 20:00:00 4.8 C 6.3 g/m*3 4.8 C 0.8 km/h
732 05-12-2014 21:00:00 4.8 C 6.27 g/m*3 4.8 C 0.93333 km/h
733 05-12-2014 22:00:00 4.75 C 6.24 g/m*3 4.75 C 0.26667 km/h
734 05-12-2014 23:00:00 4.74167 C 6.11 g/m*3 4.74 C 1.73333 km/h
735 06-12-2014 00:00:00 3.93333 C 5.84 g/m*3 3.93 C 1.06667 km/h
736 06-12-2014 01:00:00 2.78333 C 5.57 g/m*3 2.78 C 1.33333 km/h
737 06-12-2014 02:00:00 3.13333 C 5.76 g/m*3 3.13 C 0 km/h
738 06-12-2014 03:00:00 3.46667 C 5.85 g/m*3 3.47 C 2.26667 km/h
739 06-12-2014 04:00:00 3.61667 C 5.89 g/m*3 3.62 C 2 km/h
740 06-12-2014 05:00:00 3.71667 C 5.93 g/m*3 3.72 C 1.73333 km/h
741 06-12-2014 06:00:00 3.80833 C 5.91 g/m*3 3.81 C 1.73333 km/h
742 06-12-2014 07:00:00 3.9 C 5.94 g/m*3 3.9 C 0.66667 km/h
743 06-12-2014 08:00:00 4.04167 C 6.04 g/m*3 4.04 C 1.6 km/h
744 06-12-2014 09:00:00 4.19167 C 6.12 g/m*3 4.19 C 2.4 km/h
745 06-12-2014 10:00:00 4.35 C 6.2 g/m*3 4.35 C 1.33333 km/h
746 06-12-2014 11:00:00 4.60833 C 6.29 g/m*3 4.61 C 1.33333 km/h
747 06-12-2014 12:00:00 4.80833 C 6.42 g/m*3 4.81 C 0.53333 km/h
748 06-12-2014 13:00:00 5.125 C 6.57 g/m*3 5.13 C 0.13333 km/h
749 06-12-2014 14:00:00 5.35 C 6.61 g/m*3 5.35 C 0.8 km/h
750 06-12-2014 15:00:00 5.4 C 6.63 g/m*3 5.4 C 0 km/h
Sensor: Nr:Datum:Temp:Abs-Feuchte:Windchill:Wind:
Aussen-T/F 751 06-12-2014 16:00:00 5.4 C 6.63 g/m*3 5.4 C 0.13333 km/h
752 06-12-2014 17:00:00 5.275 C 6.59 g/m*3 5.28 C 0 km/h
753 06-12-2014 18:00:00 5.33333 C 6.67 g/m*3 5.33 C 0.13333 km/h
754 06-12-2014 19:00:00 5.4 C 6.7 g/m*3 5.4 C 0.26667 km/h
755 06-12-2014 20:00:00 5.36667 C 6.63 g/m*3 5.37 C 2.13333 km/h
756 06-12-2014 21:00:00 5.30833 C 6.54 g/m*3 5.31 C 2 km/h
757 06-12-2014 22:00:00 5.10833 C 6.5 g/m*3 5.11 C 0.93333 km/h
758 06-12-2014 23:00:00 4.90833 C 6.42 g/m*3 4.91 C 0 km/h
759 07-12-2014 00:00:00 4.8 C 6.37 g/m*3 4.8 C 0.66667 km/h
760 07-12-2014 01:00:00 4.125 C 6.07 g/m*3 4.13 C 1.06667 km/h
761 07-12-2014 02:00:00 3 C 5.71 g/m*3 3 C 2.26667 km/h
762 07-12-2014 03:00:00 3.43333 C 5.94 g/m*3 3.43 C 0.13333 km/h
763 07-12-2014 04:00:00 3.51667 C 5.97 g/m*3 3.52 C 0 km/h
764 07-12-2014 05:00:00 3.59167 C 6 g/m*3 3.59 C 0.26667 km/h
765 07-12-2014 06:00:00 3.63333 C 6.02 g/m*3 3.63 C 0.4 km/h
766 07-12-2014 07:00:00 3.775 C 6.07 g/m*3 3.78 C 0 km/h
767 07-12-2014 08:00:00 3.75833 C 6.02 g/m*3 3.76 C 1.86667 km/h
768 07-12-2014 09:00:00 3.875 C 6.04 g/m*3 3.88 C 3.20833 km/h
769 07-12-2014 10:00:00 4.3 C 6.09 g/m*3 4.3 C 3.89167 km/h
770 07-12-2014 11:00:00 3.74167 C 5.93 g/m*3 3.74 C 3.06667 km/h
771 07-12-2014 12:00:00 4.50833 C 6.09 g/m*3 4.51 C 4.81667 km/h
772 07-12-2014 13:00:00 5.6 C 5.96 g/m*3 3.04 C 11.675 km/h
773 07-12-2014 14:00:00 5.70833 C 5.87 g/m*3 2.25 C 17.7 km/h
774 07-12-2014 15:00:00 5.38333 C 5.87 g/m*3 2.2 C 15.16667 km/h
775 07-12-2014 16:00:00 5.375 C 5.9 g/m*3 2.19 C 15.16667 km/h
Sensor: Nr:Datum:Temp:Abs-Feuchte:Windchill:Wind:
Aussen-T/F 776 07-12-2014 17:00:00 5.4 C 5.91 g/m*3 2.1 C 15.96667 km/h
777 07-12-2014 18:00:00 4.45833 C 5.97 g/m*3 2.31 C 8.725 km/h
778 07-12-2014 19:00:00 4.26667 C 5.93 g/m*3 2.52 C 7.11667 km/h
779 07-12-2014 20:00:00 4.2 C 5.91 g/m*3 1.27 C 12.08333 km/h
780 07-12-2014 21:00:00 4.35 C 5.93 g/m*3 1.12 C 13.96667 km/h
781 07-12-2014 22:00:00 4.40833 C 5.95 g/m*3 0.93 C 15.56667 km/h
782 07-12-2014 23:00:00 4.48333 C 5.98 g/m*3 1.44 C 13.03333 km/h
783 08-12-2014 00:00:00 4.725 C 6.08 g/m*3 2.28 C 10.21667 km/h
784 08-12-2014 01:00:00 4.60833 C 6.2 g/m*3 2.53 C 8.575 km/h
785 08-12-2014 02:00:00 3.80833 C 5.91 g/m*3 3.81 C 4.4 km/h
786 08-12-2014 03:00:00 3.34167 C 5.85 g/m*3 3.34 C 2.8 km/h
787 08-12-2014 04:00:00 3.94167 C 6.03 g/m*3 2.85 C 5.09167 km/h
788 08-12-2014 05:00:00 4.1 C 6.01 g/m*3 4.1 C 4.55 km/h
789 08-12-2014 06:00:00 2.68333 C 5.51 g/m*3 2.68 C 2.4 km/h
790 08-12-2014 07:00:00 2.24167 C 5.43 g/m*3 2.24 C 3.06667 km/h
791 08-12-2014 08:00:00 1.86667 C 5.3 g/m*3 1.87 C 2.53333 km/h
792 08-12-2014 09:00:00 2.08333 C 5.38 g/m*3 2.08 C 2 km/h
793 08-12-2014 10:00:00 3.01667 C 5.64 g/m*3 1.11 C 6.975 km/h
794 08-12-2014 11:00:00 3.75833 C 5.72 g/m*3 1.01 C 10.76667 km/h
795 08-12-2014 12:00:00 3.85 C 5.55 g/m*3 1.03 C 11.15833 km/h
796 08-12-2014 13:00:00 3.91667 C 5.5 g/m*3 1.53 C 9.275 km/h
797 08-12-2014 14:00:00 4.11667 C 5.49 g/m*3 1.52 C 10.35833 km/h
798 08-12-2014 15:00:00 3.99167 C 5.51 g/m*3 2.05 C 7.63333 km/h
799 08-12-2014 16:00:00 3.58333 C 5.37 g/m*3 2.23 C 5.63333 km/h
800 08-12-2014 17:00:00 2.26667 C 5.29 g/m*3 2.27 C 2.4 km/h
Sensor: Nr:Datum:Temp:Abs-Feuchte:Windchill:Wind:
Aussen-T/F 801 08-12-2014 18:00:00 2.09167 C 5.29 g/m*3 2.09 C 2.53333 km/h
802 08-12-2014 19:00:00 1.93333 C 5.26 g/m*3 1.93 C 0.66667 km/h
803 08-12-2014 20:00:00 1.875 C 5.23 g/m*3 1.88 C 0 km/h
804 08-12-2014 21:00:00 2.05833 C 5.36 g/m*3 2.06 C 0 km/h
805 08-12-2014 22:00:00 2.3 C 5.44 g/m*3 2.3 C 0 km/h
806 08-12-2014 23:00:00 2.39167 C 5.53 g/m*3 2.39 C 0 km/h
807 09-12-2014 00:00:00 2.275 C 5.49 g/m*3 2.28 C 0 km/h
808 09-12-2014 01:00:00 2.2 C 5.46 g/m*3 2.2 C 1.06667 km/h
809 09-12-2014 02:00:00 2.24167 C 5.48 g/m*3 2.24 C 1.33333 km/h
810 09-12-2014 03:00:00 2.275 C 5.49 g/m*3 2.28 C 1.06667 km/h
811 09-12-2014 04:00:00 1.825 C 5.33 g/m*3 1.83 C 0.4 km/h
812 09-12-2014 05:00:00 1.69167 C 5.31 g/m*3 1.69 C 0.13333 km/h
813 09-12-2014 06:00:00 1.18333 C 5.1 g/m*3 1.18 C 0.53333 km/h
814 09-12-2014 07:00:00 1.05833 C 5.1 g/m*3 1.06 C 0.66667 km/h
815 09-12-2014 08:00:00 1.35833 C 5.21 g/m*3 1.36 C 0.4 km/h
816 09-12-2014 09:00:00 1.84167 C 5.39 g/m*3 1.84 C 0.4 km/h
817 09-12-2014 10:00:00 2.51667 C 5.64 g/m*3 2.52 C 0.66667 km/h
818 09-12-2014 11:00:00 3.08333 C 5.86 g/m*3 3.08 C 0.53333 km/h
819 09-12-2014 12:00:00 3.76667 C 6.04 g/m*3 3.77 C 4.4 km/h
820 09-12-2014 13:00:00 4.125 C 6.09 g/m*3 4.13 C 1.86667 km/h
821 09-12-2014 14:00:00 4.49167 C 6.14 g/m*3 4.49 C 4.4 km/h
822 09-12-2014 15:00:00 4.26667 C 6 g/m*3 2.96 C 5.75833 km/h
823 09-12-2014 16:00:00 3.86667 C 5.9 g/m*3 3.87 C 0.8 km/h
824 09-12-2014 17:00:00 3.58333 C 5.89 g/m*3 3.58 C 0.26667 km/h
825 09-12-2014 18:00:00 3.25 C 5.8 g/m*3 3.25 C 0.4 km/h
Sensor: Nr:Datum:Temp:Abs-Feuchte:Windchill:Wind:
Aussen-T/F 826 09-12-2014 19:00:00 2.79167 C 5.63 g/m*3 2.79 C 0.93333 km/h
827 09-12-2014 20:00:00 2.15 C 5.42 g/m*3 2.15 C 2 km/h
828 09-12-2014 21:00:00 2.28333 C 5.45 g/m*3 2.28 C 1.86667 km/h
829 09-12-2014 22:00:00 2.01667 C 5.33 g/m*3 2.02 C 2.13333 km/h
830 09-12-2014 23:00:00 1.675 C 5.21 g/m*3 1.68 C 1.46667 km/h
831 10-12-2014 00:00:00 2.025 C 5.36 g/m*3 2.03 C 2.13333 km/h
832 10-12-2014 01:00:00 2.525 C 5.47 g/m*3 2.53 C 3.61667 km/h
833 10-12-2014 02:00:00 3.55833 C 5.53 g/m*3 1.66 C 7.24167 km/h
834 10-12-2014 03:00:00 3.81667 C 5.56 g/m*3 2.09 C 6.83333 km/h
835 10-12-2014 04:00:00 4.23333 C 5.54 g/m*3 1.41 C 11.55833 km/h
836 10-12-2014 05:00:00 4.19167 C 5.39 g/m*3 2.28 C 7.64167 km/h
837 10-12-2014 06:00:00 4 C 5.14 g/m*3 2.56 C 6.03333 km/h
838 10-12-2014 07:00:00 4.01667 C 5.14 g/m*3 4.02 C 4.94167 km/h
839 10-12-2014 08:00:00 3.725 C 5.41 g/m*3 2.07 C 6.56667 km/h
840 10-12-2014 09:00:00 4.23333 C 5.69 g/m*3 1.69 C 10.225 km/h
841 10-12-2014 10:00:00 4.65833 C 5.92 g/m*3 1.26 C 15.425 km/h
842 10-12-2014 11:00:00 4.91667 C 5.95 g/m*3 0.79 C 21.44167 km/h
843 10-12-2014 12:00:00 5.16667 C 6.05 g/m*3 1.3 C 19.84167 km/h
844 10-12-2014 13:00:00 5.63333 C 6.23 g/m*3 2.22 C 17.16667 km/h
845 10-12-2014 14:00:00 5.5 C 6.32 g/m*3 2.77 C 12.5 km/h
846 10-12-2014 15:00:00 5.54167 C 6.37 g/m*3 3.1 C 11.025 km/h
847 10-12-2014 16:00:00 5.1 C 6.21 g/m*3 3.2 C 8.18333 km/h
848 10-12-2014 17:00:00 4.23333 C 6.04 g/m*3 4.23 C 2.4 km/h
849 10-12-2014 18:00:00 3.90833 C 6.01 g/m*3 3.91 C 1.73333 km/h
850 10-12-2014 19:00:00 4.14167 C 6.13 g/m*3 4.14 C 2.4 km/h
Sensor: Nr:Datum:Temp:Abs-Feuchte:Windchill:Wind:
Aussen-T/F 851 10-12-2014 20:00:00 4.675 C 6.28 g/m*3 3.63 C 5.21667 km/h
852 10-12-2014 21:00:00 5.24167 C 6.42 g/m*3 5.24 C 3.74167 km/h
853 10-12-2014 22:00:00 5.30833 C 6.57 g/m*3 5.31 C 3.46667 km/h
854 10-12-2014 23:00:00 5.75833 C 6.54 g/m*3 4.8 C 5.38333 km/h
855 11-12-2014 00:00:00 5.23333 C 6.53 g/m*3 5.23 C 3.06667 km/h
856 11-12-2014 01:00:00 5.50833 C 6.65 g/m*3 4.39 C 5.76667 km/h
857 11-12-2014 02:00:00 5.19167 C 6.53 g/m*3 5.19 C 4.54167 km/h
858 11-12-2014 03:00:00 5.34167 C 6.5 g/m*3 3.94 C 6.55833 km/h
859 11-12-2014 04:00:00 6.06667 C 6.52 g/m*3 3.63 C 11.56667 km/h
860 11-12-2014 05:00:00 6.31667 C 6.5 g/m*3 3.55 C 13.825 km/h
861 11-12-2014 06:00:00 6.58333 C 6.57 g/m*3 4.02 C 12.89167 km/h
862 11-12-2014 07:00:00 6.36667 C 6.71 g/m*3 3.85 C 12.35833 km/h
863 11-12-2014 08:00:00 6.775 C 6.66 g/m*3 3.86 C 15.56667 km/h
864 11-12-2014 09:00:00 6.83333 C 6.71 g/m*3 4.06 C 14.63333 km/h
865 11-12-2014 10:00:00 6.81667 C 6.79 g/m*3 3.89 C 15.7 km/h
866 11-12-2014 11:00:00 7.05833 C 6.8 g/m*3 4.03 C 16.9 km/h
867 11-12-2014 12:00:00 7.15 C 6.82 g/m*3 4.11 C 17.16667 km/h
868 11-12-2014 13:00:00 6.98333 C 6.91 g/m*3 4.15 C 15.3 km/h
869 11-12-2014 14:00:00 5.94167 C 6.79 g/m*3 4.37 C 7.50833 km/h
870 11-12-2014 15:00:00 6.21667 C 6.63 g/m*3 2.98 C 16.9 km/h
871 11-12-2014 16:00:00 6.06667 C 6.4 g/m*3 2.43 C 19.85 km/h
872 11-12-2014 17:00:00 5.35833 C 6.38 g/m*3 2.91 C 10.85833 km/h
873 11-12-2014 18:00:00 5.15 C 6.43 g/m*3 3.52 C 7.24167 km/h
874 11-12-2014 19:00:00 6.04167 C 6.48 g/m*3 3.34 C 13.03333 km/h
875 11-12-2014 20:00:00 6.25833 C 6.59 g/m*3 3.11 C 16.38333 km/h
Sensor: Nr:Datum:Temp:Abs-Feuchte:Windchill:Wind:
Aussen-T/F 876 11-12-2014 21:00:00 6.66667 C 6.65 g/m*3 4.35 C 11.56667 km/h
877 11-12-2014 22:00:00 7.01667 C 6.79 g/m*3 5.03 C 10.20833 km/h
878 11-12-2014 23:00:00 7.475 C 6.85 g/m*3 4.6 C 16.5 km/h
879 12-12-2014 00:00:00 7.325 C 6.92 g/m*3 4.97 C 12.625 km/h
880 12-12-2014 01:00:00 7.8 C 7.18 g/m*3 4.96 C 16.89167 km/h
881 12-12-2014 02:00:00 8.28333 C 7.33 g/m*3 4.92 C 22.90833 km/h
882 12-12-2014 03:00:00 8.15 C 7.37 g/m*3 5.06 C 19.85 km/h
883 12-12-2014 04:00:00 8.24167 C 7.32 g/m*3 5.33 C 18.36667 km/h
884 12-12-2014 05:00:00 8.4 C 7.24 g/m*3 5.8 C 16.1 km/h
885 12-12-2014 06:00:00 8.69167 C 7.12 g/m*3 6.25 C 15.43333 km/h
886 12-12-2014 07:00:00 8.925 C 7.14 g/m*3 6.28 C 17.575 km/h
887 12-12-2014 08:00:00 8.65833 C 7.22 g/m*3 6.02 C 16.9 km/h
888 12-12-2014 09:00:00 8.51667 C 7.31 g/m*3 5.74 C 17.83333 km/h
889 12-12-2014 10:00:00 8.975 C 7.34 g/m*3 5.83 C 22.64167 km/h
890 12-12-2014 11:00:00 9.50833 C 7.43 g/m*3 6.39 C 24 km/h
891 12-12-2014 12:00:00 9.6 C 7.55 g/m*3 6.76 C 21.175 km/h
892 12-12-2014 13:00:00 9.75833 C 7.62 g/m*3 6.78 C 23.19167 km/h
893 12-12-2014 14:00:00 10.21667 C 7.72 g/m*3 7.63 C 20.23333 km/h
894 12-12-2014 15:00:00 10.4 C 7.85 g/m*3 7.52 C 24.125 km/h
895 12-12-2014 16:00:00 10.45833 C 8.03 g/m*3 8.05 C 19.03333 km/h
896 12-12-2014 17:00:00 10.34167 C 8.15 g/m*3 7.85 C 19.575 km/h
897 12-12-2014 18:00:00 10.14167 C 8.11 g/m*3 7.81 C 17.43333 km/h
898 12-12-2014 19:00:00 10 C 8.13 g/m*3 6.99 C 24.39167 km/h
899 12-12-2014 20:00:00 9.925 C 8.27 g/m*3 7.63 C 16.625 km/h
900 12-12-2014 21:00:00 9.04167 C 8.33 g/m*3 8.09 C 7.1 km/h
Sensor: Nr:Datum:Temp:Abs-Feuchte:Windchill:Wind:
Aussen-T/F 901 12-12-2014 22:00:00 8.675 C 8.24 g/m*3 8.22 C 5.09167 km/h
902 12-12-2014 23:00:00 7.875 C 7.71 g/m*3 7.88 C 4.80833 km/h
903 13-12-2014 00:00:00 7.175 C 7.41 g/m*3 7.18 C 3.46667 km/h
904 13-12-2014 01:00:00 6.80833 C 7.26 g/m*3 6.81 C 4.8 km/h
905 13-12-2014 02:00:00 6.53333 C 7.2 g/m*3 6.53 C 2.4 km/h
906 13-12-2014 03:00:00 6.34167 C 7.13 g/m*3 6.34 C 2.26667 km/h
907 13-12-2014 04:00:00 6.125 C 7.09 g/m*3 6.13 C 0 km/h
908 13-12-2014 05:00:00 5.93333 C 7.01 g/m*3 5.93 C 0 km/h
909 13-12-2014 06:00:00 5.86667 C 6.98 g/m*3 5.87 C 0.93333 km/h
910 13-12-2014 07:00:00 5.675 C 6.95 g/m*3 5.68 C 0.66667 km/h
911 13-12-2014 08:00:00 5.25 C 6.7 g/m*3 5.25 C 3.075 km/h
912 13-12-2014 09:00:00 4.68333 C 6.45 g/m*3 4.68 C 1.46667 km/h
913 13-12-2014 10:00:00 4.55 C 6.4 g/m*3 4.55 C 1.06667 km/h
914 13-12-2014 11:00:00 4.475 C 6.34 g/m*3 4.47 C 1.86667 km/h
915 13-12-2014 12:00:00 4.31667 C 6.23 g/m*3 4.32 C 1.06667 km/h
916 13-12-2014 13:00:00 4.2 C 6.16 g/m*3 4.2 C 0.13333 km/h
917 13-12-2014 14:00:00 3.975 C 6.04 g/m*3 3.98 C 2.66667 km/h
918 13-12-2014 15:00:00 3.675 C 5.96 g/m*3 3.68 C 4.40833 km/h
919 13-12-2014 16:00:00 3.29167 C 5.82 g/m*3 2 C 5.35 km/h
920 13-12-2014 17:00:00 2.83333 C 5.67 g/m*3 2.83 C 0.8 km/h
921 13-12-2014 18:00:00 2.7 C 5.62 g/m*3 2.7 C 0.13333 km/h
922 13-12-2014 19:00:00 2.60833 C 5.62 g/m*3 2.61 C 0.13333 km/h
923 13-12-2014 20:00:00 2.43333 C 5.55 g/m*3 2.43 C 0 km/h
924 13-12-2014 21:00:00 2.44167 C 5.55 g/m*3 2.44 C 0 km/h
925 13-12-2014 22:00:00 2.48333 C 5.57 g/m*3 2.48 C 0 km/h
Sensor: Nr:Datum:Temp:Abs-Feuchte:Windchill:Wind:
Aussen-T/F 926 13-12-2014 23:00:00 2.575 C 5.66 g/m*3 2.58 C 0.26667 km/h
927 14-12-2014 00:00:00 2.66667 C 5.65 g/m*3 2.67 C 0 km/h
928 14-12-2014 01:00:00 2.73333 C 5.66 g/m*3 2.73 C 0 km/h
929 14-12-2014 02:00:00 2.65 C 5.64 g/m*3 2.65 C 0.13333 km/h
930 14-12-2014 03:00:00 2.36667 C 5.53 g/m*3 2.37 C 0 km/h
931 14-12-2014 04:00:00 2.19167 C 5.49 g/m*3 2.19 C 0 km/h
932 14-12-2014 05:00:00 2.05833 C 5.46 g/m*3 2.06 C 0.13333 km/h
933 14-12-2014 06:00:00 2.23333 C 5.53 g/m*3 2.23 C 0 km/h
934 14-12-2014 07:00:00 2.40833 C 5.6 g/m*3 2.41 C 0 km/h
935 14-12-2014 08:00:00 2.51667 C 5.64 g/m*3 2.52 C 0 km/h
936 14-12-2014 09:00:00 2.80833 C 5.75 g/m*3 2.81 C 0.8 km/h
937 14-12-2014 10:00:00 3.21667 C 5.91 g/m*3 3.22 C 0.4 km/h
938 14-12-2014 11:00:00 3.73333 C 6.05 g/m*3 3.73 C 2.53333 km/h
939 14-12-2014 12:00:00 4.2 C 6.1 g/m*3 4.2 C 2.13333 km/h
940 14-12-2014 13:00:00 4.63333 C 6.16 g/m*3 4.63 C 0.93333 km/h
941 14-12-2014 14:00:00 4.88333 C 6.06 g/m*3 4.88 C 0.4 km/h
942 14-12-2014 15:00:00 4.25 C 6 g/m*3 4.25 C 2 km/h
943 14-12-2014 16:00:00 2.76667 C 5.6 g/m*3 2.77 C 3.6 km/h
944 14-12-2014 17:00:00 1.81667 C 5.3 g/m*3 1.82 C 3.73333 km/h
945 14-12-2014 18:00:00 1.75833 C 5.3 g/m*3 1.76 C 3.46667 km/h
946 14-12-2014 19:00:00 1.21667 C 5.11 g/m*3 1.22 C 1.06667 km/h
947 14-12-2014 20:00:00 0.66667 C 4.92 g/m*3 0.67 C 0.8 km/h
948 14-12-2014 21:00:00 0.76667 C 5 g/m*3 0.77 C 3.2 km/h
949 14-12-2014 22:00:00 1.61667 C 5.31 g/m*3 1.62 C 2 km/h
950 14-12-2014 23:00:00 2.01667 C 5.45 g/m*3 2.02 C 0.66667 km/h
Sensor: Nr:Datum:Temp:Abs-Feuchte:Windchill:Wind:
Aussen-T/F 951 15-12-2014 00:00:00 2.11667 C 5.42 g/m*3 2.12 C 1.6 km/h
952 15-12-2014 01:00:00 2.05 C 5.33 g/m*3 2.05 C 1.6 km/h
953 15-12-2014 02:00:00 1.55833 C 5.21 g/m*3 1.56 C 2.93333 km/h
954 15-12-2014 03:00:00 1.93333 C 5.37 g/m*3 1.93 C 2.26667 km/h
955 15-12-2014 04:00:00 2.2 C 5.43 g/m*3 2.2 C 2.8 km/h
956 15-12-2014 05:00:00 1.60833 C 5.19 g/m*3 1.61 C 3.46667 km/h
957 15-12-2014 06:00:00 0.98333 C 4.97 g/m*3 0.98 C 2.26667 km/h
958 15-12-2014 07:00:00 1.16667 C 5.08 g/m*3 1.17 C 1.6 km/h
959 15-12-2014 08:00:00 1.575 C 5.18 g/m*3 1.58 C 3.075 km/h
960 15-12-2014 09:00:00 2.38333 C 5.28 g/m*3 2.38 C 4.825 km/h
961 15-12-2014 10:00:00 3.45 C 5.48 g/m*3 2.29 C 5.08333 km/h
962 15-12-2014 11:00:00 4.51667 C 5.8 g/m*3 1.9 C 10.86667 km/h
963 15-12-2014 12:00:00 4.575 C 5.85 g/m*3 0.92 C 17.03333 km/h
964 15-12-2014 13:00:00 4.30833 C 5.94 g/m*3 1.35 C 12.35 km/h
965 15-12-2014 14:00:00 4.30833 C 5.98 g/m*3 1.2 C 13.16667 km/h
966 15-12-2014 15:00:00 4.59167 C 6.02 g/m*3 1.5 C 13.43333 km/h
967 15-12-2014 16:00:00 4.70833 C 6.09 g/m*3 3.61 C 5.375 km/h
968 15-12-2014 17:00:00 4.70833 C 6.2 g/m*3 4.71 C 2.53333 km/h
969 15-12-2014 18:00:00 4.825 C 6.27 g/m*3 4.83 C 3.075 km/h
970 15-12-2014 19:00:00 4.98333 C 6.32 g/m*3 4.98 C 2.13333 km/h
971 15-12-2014 20:00:00 5.06667 C 6.39 g/m*3 5.07 C 2 km/h
972 15-12-2014 21:00:00 4.9 C 6.42 g/m*3 4.9 C 0 km/h
973 15-12-2014 22:00:00 4.925 C 6.49 g/m*3 4.93 C 0 km/h
974 15-12-2014 23:00:00 4.875 C 6.52 g/m*3 4.88 C 0 km/h
975 16-12-2014 00:00:00 4.9 C 6.55 g/m*3 4.9 C 0.26667 km/h
Sensor: Nr:Datum:Temp:Abs-Feuchte:Windchill:Wind:
Aussen-T/F 976 16-12-2014 01:00:00 4.99167 C 6.63 g/m*3 4.99 C 0 km/h
977 16-12-2014 02:00:00 5.26667 C 6.78 g/m*3 5.27 C 0.93333 km/h
978 16-12-2014 03:00:00 5.63333 C 6.9 g/m*3 5.63 C 4.01667 km/h
979 16-12-2014 04:00:00 5.75 C 6.9 g/m*3 5.75 C 3.075 km/h
980 16-12-2014 05:00:00 6.125 C 6.99 g/m*3 6.13 C 3.6 km/h
981 16-12-2014 06:00:00 6.19167 C 7.03 g/m*3 6.19 C 2.93333 km/h
982 16-12-2014 07:00:00 6.44167 C 7.03 g/m*3 5.06 C 7.1 km/h
983 16-12-2014 08:00:00 6.44167 C 6.99 g/m*3 6.44 C 3.2 km/h
984 16-12-2014 09:00:00 6.875 C 7.1 g/m*3 5.52 C 7.25 km/h
985 16-12-2014 10:00:00 7.3 C 7.14 g/m*3 5.31 C 10.49167 km/h
986 16-12-2014 11:00:00 7.66667 C 7.2 g/m*3 5.96 C 9.40833 km/h
987 16-12-2014 12:00:00 7.65833 C 7.36 g/m*3 6.69 C 6.30833 km/h
988 16-12-2014 13:00:00 7.46667 C 7.51 g/m*3 7.47 C 2.26667 km/h
989 16-12-2014 14:00:00 7.55833 C 7.24 g/m*3 7.56 C 3.2 km/h
990 16-12-2014 15:00:00 7.53333 C 6.74 g/m*3 6.55 C 6.3 km/h
991 16-12-2014 16:00:00 6.16667 C 6.27 g/m*3 6.17 C 3.46667 km/h
992 16-12-2014 17:00:00 5.91667 C 6.29 g/m*3 4.95 C 5.49167 km/h
993 16-12-2014 18:00:00 5.84167 C 6.21 g/m*3 5.84 C 4.81667 km/h
994 16-12-2014 19:00:00 5.825 C 6.18 g/m*3 4.58 C 6.29167 km/h
995 16-12-2014 20:00:00 5.43333 C 6.15 g/m*3 4.39 C 5.49167 km/h
996 16-12-2014 21:00:00 4.775 C 6.12 g/m*3 4.78 C 3.06667 km/h
997 16-12-2014 22:00:00 4.58333 C 6.08 g/m*3 4.58 C 4.28333 km/h
998 16-12-2014 23:00:00 4.55 C 6.03 g/m*3 4.55 C 3.35 km/h
999 17-12-2014 00:00:00 4.7 C 6.15 g/m*3 4.7 C 2.40833 km/h
1000 17-12-2014 01:00:00 4.59167 C 5.99 g/m*3 3.2 C 6.175 km/h
Sensor: Nr:Datum:Temp:Abs-Feuchte:Windchill:Wind:
Aussen-T/F 1001 17-12-2014 02:00:00 3.8 C 5.78 g/m*3 3.8 C 4.80833 km/h
1002 17-12-2014 03:00:00 3.06667 C 5.62 g/m*3 3.07 C 1.73333 km/h
1003 17-12-2014 04:00:00 2.86667 C 5.61 g/m*3 2.87 C 1.33333 km/h
1004 17-12-2014 05:00:00 3.45 C 5.88 g/m*3 3.45 C 0.53333 km/h
1005 17-12-2014 06:00:00 4.4 C 6.18 g/m*3 4.4 C 2.55 km/h
1006 17-12-2014 07:00:00 4.875 C 6.17 g/m*3 4.88 C 2.54167 km/h
1007 17-12-2014 08:00:00 5.1 C 6.18 g/m*3 5.1 C 2.54167 km/h
1008 17-12-2014 09:00:00 5.69167 C 6.24 g/m*3 4.07 C 7.51667 km/h
1009 17-12-2014 10:00:00 5.91667 C 6.36 g/m*3 3.66 C 10.46667 km/h
1010 17-12-2014 11:00:00 6.125 C 6.45 g/m*3 2.72 C 18.1 km/h
1011 17-12-2014 12:00:00 5.90833 C 6.59 g/m*3 2.06 C 21.325 km/h
1012 17-12-2014 13:00:00 6.23333 C 6.82 g/m*3 2.82 C 18.36667 km/h
1013 17-12-2014 14:00:00 6.65 C 7.01 g/m*3 3.7 C 15.56667 km/h
1014 17-12-2014 15:00:00 6.95 C 7.13 g/m*3 4.34 C 13.7 km/h
1015 17-12-2014 16:00:00 7.125 C 7.32 g/m*3 4.66 C 13.03333 km/h
1016 17-12-2014 17:00:00 7.64167 C 7.5 g/m*3 5.4 C 12.36667 km/h
1017 17-12-2014 18:00:00 7.85 C 7.59 g/m*3 5.9 C 10.9 km/h
1018 17-12-2014 19:00:00 7.96667 C 7.74 g/m*3 5.97 C 11.3 km/h
1019 17-12-2014 20:00:00 8.29167 C 7.92 g/m*3 6.27 C 11.83333 km/h
1020 17-12-2014 21:00:00 8.65833 C 8.11 g/m*3 6.96 C 10.35833 km/h
1021 17-12-2014 22:00:00 8.89167 C 8.19 g/m*3 7.47 C 9.14167 km/h
1022 17-12-2014 23:00:00 9.175 C 8.36 g/m*3 8.02 C 8.06667 km/h
1023 18-12-2014 00:00:00 9.7 C 8.58 g/m*3 8.79 C 7.375 km/h
1024 18-12-2014 01:00:00 9.45833 C 8.62 g/m*3 8.91 C 5.76667 km/h
1025 18-12-2014 02:00:00 9.44167 C 8.69 g/m*3 9.44 C 3.34167 km/h
Sensor: Nr:Datum:Temp:Abs-Feuchte:Windchill:Wind:
Aussen-T/F 1026 18-12-2014 03:00:00 9.81667 C 8.85 g/m*3 9.82 C 3.74167 km/h
1027 18-12-2014 04:00:00 9.925 C 8.86 g/m*3 9.93 C 1.2 km/h
1028 18-12-2014 05:00:00 9.925 C 8.92 g/m*3 9.93 C 1.46667 km/h
1029 18-12-2014 06:00:00 10 C 9.1 g/m*3 10 C 3.06667 km/h
1030 18-12-2014 07:00:00 10.33333 C 9.29 g/m*3 10.33 C 3.875 km/h
1031 18-12-2014 08:00:00 11.125 C 9.45 g/m*3 11.13 C 8.85 km/h
1032 18-12-2014 09:00:00 11.65833 C 9.56 g/m*3 11.66 C 11.95833 km/h
1033 18-12-2014 10:00:00 12.15 C 9.79 g/m*3 12.15 C 10.61667 km/h
1034 18-12-2014 11:00:00 12.34167 C 9.94 g/m*3 12.34 C 8.33333 km/h
1035 18-12-2014 12:00:00 12.63333 C 10.17 g/m*3 12.63 C 6.575 km/h
1036 18-12-2014 13:00:00 13.43333 C 10.28 g/m*3 13.43 C 9.55833 km/h
1037 18-12-2014 14:00:00 13.60833 C 10.22 g/m*3 13.61 C 9.40833 km/h
1038 18-12-2014 15:00:00 13.45833 C 10.18 g/m*3 13.46 C 8.475 km/h
1039 18-12-2014 16:00:00 13.575 C 10.31 g/m*3 13.58 C 12.1 km/h
1040 18-12-2014 17:00:00 13.65 C 10.44 g/m*3 13.65 C 19.43333 km/h
1041 18-12-2014 18:00:00 13.83333 C 10.47 g/m*3 13.83 C 21.98333 km/h
1042 18-12-2014 19:00:00 13.85 C 10.36 g/m*3 13.85 C 26.29167 km/h
1043 18-12-2014 20:00:00 13.55 C 9.52 g/m*3 13.55 C 27.21667 km/h
1044 18-12-2014 21:00:00 13.13333 C 9.35 g/m*3 13.13 C 21.98333 km/h
1045 18-12-2014 22:00:00 12.80833 C 9.36 g/m*3 12.81 C 21.44167 km/h
1046 18-12-2014 23:00:00 12.575 C 9.46 g/m*3 12.58 C 23.325 km/h
1047 19-12-2014 00:00:00 12.30833 C 9.36 g/m*3 12.31 C 27.475 km/h
1048 19-12-2014 01:00:00 12.1 C 9.34 g/m*3 12.1 C 23.86667 km/h
1049 19-12-2014 02:00:00 11.74167 C 9.29 g/m*3 11.74 C 18.23333 km/h
1050 19-12-2014 03:00:00 11.99167 C 9.15 g/m*3 11.99 C 18.64167 km/h
Sensor: Nr:Datum:Temp:Abs-Feuchte:Windchill:Wind:
Aussen-T/F 1051 19-12-2014 04:00:00 12.03333 C 9.12 g/m*3 12.03 C 18.375 km/h
1052 19-12-2014 05:00:00 11.8 C 8.96 g/m*3 11.8 C 20.64167 km/h
1053 19-12-2014 06:00:00 11.50833 C 8.91 g/m*3 11.51 C 26.95 km/h
1054 19-12-2014 07:00:00 11.275 C 8.9 g/m*3 11.28 C 29.775 km/h
1055 19-12-2014 08:00:00 11.3 C 8.93 g/m*3 11.3 C 26.675 km/h
1056 19-12-2014 09:00:00 11.64167 C 8.95 g/m*3 11.64 C 25.33333 km/h
1057 19-12-2014 10:00:00 11.8 C 9.02 g/m*3 11.8 C 22.64167 km/h
1058 19-12-2014 11:00:00 11.625 C 9.18 g/m*3 11.63 C 22.50833 km/h
1059 19-12-2014 12:00:00 11.775 C 9.22 g/m*3 11.78 C 21.56667 km/h
1060 19-12-2014 13:00:00 11.9 C 9.25 g/m*3 11.9 C 19.96667 km/h
1061 19-12-2014 14:00:00 12 C 9.35 g/m*3 12 C 19.3 km/h
1062 19-12-2014 15:00:00 12 C 9.4 g/m*3 12 C 17.43333 km/h
1063 19-12-2014 16:00:00 10.54167 C 8.8 g/m*3 8.4 C 16.63333 km/h
1064 19-12-2014 17:00:00 8.90833 C 7.78 g/m*3 6.98 C 12.1 km/h
1065 19-12-2014 18:00:00 8.375 C 7.47 g/m*3 7.31 C 7.1 km/h
1066 19-12-2014 19:00:00 8.38333 C 7.12 g/m*3 7.07 C 8.19167 km/h
1067 19-12-2014 20:00:00 7.025 C 6.66 g/m*3 7.03 C 4.55833 km/h
1068 19-12-2014 21:00:00 6.7 C 6.45 g/m*3 5.25 C 7.525 km/h
1069 19-12-2014 22:00:00 6.58333 C 6.28 g/m*3 5.18 C 7.25 km/h
1070 19-12-2014 23:00:00 5.54167 C 6.2 g/m*3 5.54 C 4.93333 km/h
1071 20-12-2014 00:00:00 4.85 C 6.07 g/m*3 4.85 C 3.2 km/h
1072 20-12-2014 01:00:00 4.825 C 6.08 g/m*3 3.81 C 5.2 km/h
1073 20-12-2014 02:00:00 4.85833 C 6 g/m*3 3.26 C 6.96667 km/h
1074 20-12-2014 03:00:00 4.61667 C 5.91 g/m*3 2.46 C 8.86667 km/h
1075 20-12-2014 04:00:00 4.61667 C 5.85 g/m*3 2.24 C 9.825 km/h
Sensor: Nr:Datum:Temp:Abs-Feuchte:Windchill:Wind:
Aussen-T/F 1076 20-12-2014 05:00:00 4.325 C 5.79 g/m*3 1.92 C 9.69167 km/h
1077 20-12-2014 06:00:00 4.29167 C 5.75 g/m*3 0.87 C 15.03333 km/h
1078 20-12-2014 07:00:00 4.625 C 5.77 g/m*3 1.89 C 11.56667 km/h
1079 20-12-2014 08:00:00 4.96667 C 5.86 g/m*3 2.08 C 12.76667 km/h
1080 20-12-2014 09:00:00 5.58333 C 6.07 g/m*3 2.76 C 13.16667 km/h
1081 20-12-2014 10:00:00 6.31667 C 6.3 g/m*3 3.45 C 14.5 km/h
1082 20-12-2014 11:00:00 6.68333 C 6.41 g/m*3 3.62 C 16.5 km/h
1083 20-12-2014 12:00:00 6.875 C 6.39 g/m*3 3.93 C 15.96667 km/h
1084 20-12-2014 13:00:00 6.76667 C 6.52 g/m*3 4.73 C 10.20833 km/h
1085 20-12-2014 14:00:00 7.09167 C 6.44 g/m*3 4.44 C 14.23333 km/h
1086 20-12-2014 15:00:00 7.44167 C 6.37 g/m*3 4.81 C 14.63333 km/h
1087 20-12-2014 16:00:00 7.6 C 6.28 g/m*3 5.01 C 14.63333 km/h
1088 20-12-2014 17:00:00 7.2 C 6.27 g/m*3 4.59 C 14.1 km/h
1089 20-12-2014 18:00:00 7.325 C 6.28 g/m*3 4.61 C 15.04167 km/h
1090 20-12-2014 19:00:00 7.31667 C 6.13 g/m*3 5.01 C 12.35 km/h
1091 20-12-2014 20:00:00 7.26667 C 6.32 g/m*3 4.61 C 14.5 km/h
1092 20-12-2014 21:00:00 5.49167 C 6.39 g/m*3 3.12 C 10.60833 km/h
1093 20-12-2014 22:00:00 5.45 C 6.34 g/m*3 3.29 C 9.55 km/h
1094 20-12-2014 23:00:00 5.4 C 6.25 g/m*3 3.96 C 6.7 km/h
1095 21-12-2014 00:00:00 5.775 C 6.32 g/m*3 4.44 C 6.56667 km/h
1096 21-12-2014 01:00:00 5.65 C 6.34 g/m*3 4.03 C 7.50833 km/h
1097 21-12-2014 02:00:00 5.325 C 6.4 g/m*3 4.32 C 5.36667 km/h
1098 21-12-2014 03:00:00 5.19167 C 6.49 g/m*3 5.19 C 4.26667 km/h
1099 21-12-2014 04:00:00 5.44167 C 6.52 g/m*3 4.51 C 5.20833 km/h
1100 21-12-2014 05:00:00 5.65 C 6.46 g/m*3 3.95 C 7.79167 km/h
Sensor: Nr:Datum:Temp:Abs-Feuchte:Windchill:Wind:
Aussen-T/F 1101 21-12-2014 06:00:00 5.18333 C 6.18 g/m*3 3.76 C 6.55833 km/h
1102 21-12-2014 07:00:00 4.58333 C 6.04 g/m*3 2.85 C 7.25833 km/h
1103 21-12-2014 08:00:00 5.04167 C 6.13 g/m*3 3.06 C 8.475 km/h
1104 21-12-2014 09:00:00 4.95833 C 6.16 g/m*3 2.71 C 9.53333 km/h
1105 21-12-2014 10:00:00 5.6 C 6.29 g/m*3 3.39 C 9.93333 km/h
1106 21-12-2014 11:00:00 6.40833 C 6.39 g/m*3 3.39 C 15.7 km/h
1107 21-12-2014 12:00:00 6.85 C 6.49 g/m*3 4.65 C 11.15833 km/h
1108 21-12-2014 13:00:00 7.08333 C 6.69 g/m*3 5.13 C 10.09167 km/h
1109 21-12-2014 14:00:00 7.30833 C 6.73 g/m*3 5.37 C 10.225 km/h
1110 21-12-2014 15:00:00 7.34167 C 6.73 g/m*3 5.29 C 10.88333 km/h
1111 21-12-2014 16:00:00 7.43333 C 6.78 g/m*3 5.04 C 13.03333 km/h
1112 21-12-2014 17:00:00 7.54167 C 6.82 g/m*3 5.15 C 13.15833 km/h
1113 21-12-2014 18:00:00 7.64167 C 6.9 g/m*3 5.31 C 12.9 km/h
1114 21-12-2014 19:00:00 7.55 C 6.93 g/m*3 5.12 C 13.43333 km/h
1115 21-12-2014 20:00:00 7.45 C 6.95 g/m*3 5.06 C 13.03333 km/h
1116 21-12-2014 21:00:00 7.525 C 6.99 g/m*3 5.37 C 11.69167 km/h
1117 21-12-2014 22:00:00 7.7 C 6.97 g/m*3 5 C 15.56667 km/h
1118 21-12-2014 23:00:00 7.61667 C 6.94 g/m*3 5.35 C 12.49167 km/h
1119 22-12-2014 00:00:00 7.59167 C 6.92 g/m*3 5.13 C 13.7 km/h
1120 22-12-2014 01:00:00 7.59167 C 6.92 g/m*3 4.54 C 18.23333 km/h
1121 22-12-2014 02:00:00 7.44167 C 6.98 g/m*3 4.06 C 20.79167 km/h
1122 22-12-2014 03:00:00 7.45 C 7.03 g/m*3 3.94 C 22.13333 km/h
1123 22-12-2014 04:00:00 7.70833 C 7.05 g/m*3 3.98 C 25.20833 km/h
1124 22-12-2014 05:00:00 7.76667 C 7.08 g/m*3 4.48 C 20.76667 km/h
1125 22-12-2014 06:00:00 7.74167 C 7.14 g/m*3 4.59 C 19.43333 km/h
Sensor: Nr:Datum:Temp:Abs-Feuchte:Windchill:Wind:
Aussen-T/F 1126 22-12-2014 07:00:00 7.80833 C 7.19 g/m*3 4.54 C 20.64167 km/h
1127 22-12-2014 08:00:00 7.90833 C 7.17 g/m*3 4.66 C 20.775 km/h
1128 22-12-2014 09:00:00 7.975 C 7.18 g/m*3 4.31 C 25.33333 km/h
1129 22-12-2014 10:00:00 8.1 C 7.2 g/m*3 4.63 C 23.6 km/h
1130 22-12-2014 11:00:00 8.19167 C 7.2 g/m*3 5.13 C 19.70833 km/h
1131 22-12-2014 12:00:00 8.23333 C 7.27 g/m*3 5.23 C 19.18333 km/h
1132 22-12-2014 13:00:00 8.34167 C 7.35 g/m*3 5.88 C 14.9 km/h
1133 22-12-2014 14:00:00 8.56667 C 7.46 g/m*3 5.7 C 18.76667 km/h
1134 22-12-2014 15:00:00 8.74167 C 7.54 g/m*3 5.61 C 21.85 km/h
1135 22-12-2014 16:00:00 8.75833 C 7.63 g/m*3 6.41 C 14.75833 km/h
1136 22-12-2014 17:00:00 8.9 C 7.74 g/m*3 6.36 C 16.63333 km/h
1137 22-12-2014 18:00:00 9.175 C 7.93 g/m*3 6.53 C 18.11667 km/h
1138 22-12-2014 19:00:00 9.36667 C 7.96 g/m*3 6.79 C 17.96667 km/h
1139 22-12-2014 20:00:00 9.39167 C 7.95 g/m*3 6.46 C 21.58333 km/h
1140 22-12-2014 21:00:00 9.26667 C 7.98 g/m*3 7.16 C 13.83333 km/h
1141 22-12-2014 22:00:00 9.34167 C 8.03 g/m*3 7.93 C 9.54167 km/h
1142 22-12-2014 23:00:00 9.64167 C 8.17 g/m*3 8.12 C 10.48333 km/h
1143 23-12-2014 00:00:00 9.89167 C 8.24 g/m*3 8.15 C 12.21667 km/h
1144 23-12-2014 01:00:00 10.075 C 8.31 g/m*3 8.62 C 10.625 km/h
1145 23-12-2014 02:00:00 10.225 C 8.33 g/m*3 8.25 C 14.49167 km/h
1146 23-12-2014 03:00:00 10.275 C 8.29 g/m*3 8.16 C 15.83333 km/h
1147 23-12-2014 04:00:00 10.39167 C 8.29 g/m*3 8.47 C 14.36667 km/h
1148 23-12-2014 05:00:00 10.45 C 8.24 g/m*3 8.56 C 14.23333 km/h
1149 23-12-2014 06:00:00 10.53333 C 8.25 g/m*3 8.4 C 16.5 km/h
1150 23-12-2014 07:00:00 10.45833 C 8.22 g/m*3 8.59 C 14.1 km/h
Sensor: Nr:Datum:Temp:Abs-Feuchte:Windchill:Wind:
Aussen-T/F 1151 23-12-2014 08:00:00 10.40833 C 8.17 g/m*3 8.83 C 11.825 km/h
1152 23-12-2014 09:00:00 10.4 C 8.12 g/m*3 8.97 C 10.8875 km/h
1153 23-12-2014 10:00:00 10.3875 C 8.19 g/m*3 8.33 C 15.5 km/h
1154 23-12-2014 11:00:00 10.3 C 8.35 g/m*3 8.28 C 15.03333 km/h
1155 23-12-2014 12:00:00 10.21667 C 8.19 g/m*3 8.28 C 14.23333 km/h
1156 23-12-2014 13:00:00 10.3 C 8.48 g/m*3 8.78 C 11.28182 km/h
1157 23-12-2014 14:00:00 10.44167 C 8.31 g/m*3 8.82 C 12.225 km/h
1158 23-12-2014 15:00:00 10.325 C 8.25 g/m*3 8.71 C 11.96667 km/h
1159 23-12-2014 16:00:00 10.2 C 8.14 g/m*3 9.17 C 8.34167 km/h
1160 23-12-2014 17:00:00 10.01667 C 8.05 g/m*3 8.44 C 11.29167 km/h
1161 23-12-2014 18:00:00 9.83333 C 7.93 g/m*3 8.22 C 11.3 km/h
1162 23-12-2014 19:00:00 9.64167 C 7.87 g/m*3 7.71 C 13.15 km/h
1163 23-12-2014 20:00:00 9.43333 C 7.75 g/m*3 7.89 C 10.35833 km/h
1164 23-12-2014 21:00:00 9.29167 C 7.54 g/m*3 7.84 C 9.675 km/h
1165 23-12-2014 22:00:00 9.15 C 7.3 g/m*3 8.18 C 7.24167 km/h
1166 23-12-2014 23:00:00 8.825 C 7.14 g/m*3 7.87 C 6.95833 km/h
1167 24-12-2014 00:00:00 8.50833 C 7.04 g/m*3 7.6 C 6.575 km/h
1168 24-12-2014 01:00:00 8.175 C 6.98 g/m*3 6.7 C 8.725 km/h
1169 24-12-2014 02:00:00 7.825 C 6.82 g/m*3 5.56 C 12.76667 km/h
1170 24-12-2014 03:00:00 7.43333 C 6.69 g/m*3 4.92 C 13.825 km/h
1171 24-12-2014 04:00:00 7.325 C 6.59 g/m*3 5.35 C 10.46667 km/h
1172 24-12-2014 05:00:00 7.33333 C 6.57 g/m*3 5.38 C 10.35 km/h
1173 24-12-2014 06:00:00 7.18333 C 6.61 g/m*3 4.73 C 13.03333 km/h
1174 24-12-2014 07:00:00 7.14167 C 6.65 g/m*3 4.81 C 12.23333 km/h
1175 24-12-2014 08:00:00 7.45833 C 6.73 g/m*3 4.91 C 14.09167 km/h
Sensor: Nr:Datum:Temp:Abs-Feuchte:Windchill:Wind:
Aussen-T/F 1176 24-12-2014 09:00:00 7.875 C 6.85 g/m*3 5 C 17.3 km/h
1177 24-12-2014 10:00:00 8.23333 C 7.04 g/m*3 5.66 C 15.56667 km/h
1178 24-12-2014 11:00:00 8.58333 C 7.23 g/m*3 5.88 C 17.3 km/h
1179 24-12-2014 12:00:00 9.18333 C 7.52 g/m*3 6.05 C 23.2 km/h
1180 24-12-2014 13:00:00 9.38333 C 7.65 g/m*3 6.02 C 26.66667 km/h
1181 24-12-2014 14:00:00 10.075 C 7.83 g/m*3 7.34 C 21.44167 km/h
1182 24-12-2014 15:00:00 9.65 C 7.86 g/m*3 6.26 C 28.025 km/h
1183 24-12-2014 16:00:00 9.2 C 7.9 g/m*3 6.23 C 21.44167 km/h
1184 24-12-2014 17:00:00 8.93333 C 7.96 g/m*3 5.76 C 22.78333 km/h
1185 24-12-2014 18:00:00 9.19167 C 7.97 g/m*3 6.53 C 18.36667 km/h
1186 24-12-2014 19:00:00 9.225 C 8.05 g/m*3 6.71 C 17.03333 km/h
1187 24-12-2014 20:00:00 9.34167 C 8.18 g/m*3 7.35 C 13.16667 km/h
1188 24-12-2014 21:00:00 8.38889 C 7.88 g/m*3 6.8 C 9.48889 km/h
1189 24-12-2014 22:00:00 7.28333 C 7.23 g/m*3 5.51 C 9.4 km/h
1190 24-12-2014 23:00:00 6.8 C 7.08 g/m*3 6.8 C 4.26667 km/h
1191 25-12-2014 00:00:00 6.625 C 6.82 g/m*3 6.63 C 4.425 km/h
1192 25-12-2014 01:00:00 6.35833 C 6.5 g/m*3 6.36 C 3.6 km/h
1193 25-12-2014 02:00:00 5.69167 C 5.72 g/m*3 4.11 C 7.36667 km/h
1194 25-12-2014 03:00:00 4.99167 C 5.63 g/m*3 3.84 C 5.625 km/h
1195 25-12-2014 04:00:00 4.99167 C 5.63 g/m*3 3.66 C 6.15833 km/h
1196 25-12-2014 05:00:00 4.65 C 5.68 g/m*3 3.41 C 5.75 km/h
1197 25-12-2014 06:00:00 3.98333 C 5.57 g/m*3 3.98 C 4.54167 km/h
1198 25-12-2014 07:00:00 3.66667 C 5.52 g/m*3 1.83 C 7.10833 km/h
1199 25-12-2014 08:00:00 4.25 C 5.53 g/m*3 1.41 C 11.69167 km/h
1200 25-12-2014 09:00:00 4.125 C 5.51 g/m*3 1.98 C 8.475 km/h
Sensor: Nr:Datum:Temp:Abs-Feuchte:Windchill:Wind:
Aussen-T/F 1201 25-12-2014 10:00:00 5.12 C 5.86 g/m*3 2.7 C 10.49 km/h
1202 25-12-2014 11:00:00 5.675 C 5.86 g/m*3 3.28 C 10.89167 km/h
1203 25-12-2014 12:00:00 5.975 C 5.99 g/m*3 3.84 C 9.94167 km/h
1204 25-12-2014 13:00:00 6.125 C 6.2 g/m*3 4.38 C 8.325 km/h
1205 25-12-2014 14:00:00 6.71667 C 6.23 g/m*3 4.25 C 12.49167 km/h
1206 25-12-2014 15:00:00 6.85833 C 6.14 g/m*3 4.38 C 12.76667 km/h
1207 25-12-2014 16:00:00 6.31667 C 6.16 g/m*3 4.16 C 10.34167 km/h
1208 25-12-2014 17:00:00 5.6 C 6.15 g/m*3 4.04 C 7.25 km/h
1209 25-12-2014 18:00:00 4.3 C 5.97 g/m*3 2.78 C 6.42857 km/h
1210 25-12-2014 19:00:00 4.3 C 6.01 g/m*3 2.35 C 7.8625 km/h
1211 25-12-2014 20:00:00 4.4 C 6.01 g/m*3 2.68 C 7.1 km/h
1212 25-12-2014 22:00:00 2.6 C 5.79 g/m*3 2.6 C 0 km/h
1213 25-12-2014 23:00:00 2.14 C 5.48 g/m*3 2.14 C 1.28 km/h
1214 26-12-2014 00:00:00 2.10833 C 5.43 g/m*3 2.11 C 0.53333 km/h
1215 26-12-2014 01:00:00 2.23 C 5.47 g/m*3 2.23 C 2.08 km/h
1216 26-12-2014 05:00:00 3.2 C 6.03 g/m*3 3.2 C 3.2 km/h
1217 26-12-2014 10:00:00 3.2 C 6.03 g/m*3 3.2 C 4.8 km/h
1218 26-12-2014 14:00:00 3.6625 C 5.93 g/m*3 3.66 C 0 km/h
1219 26-12-2014 15:00:00 3.71667 C 5.99 g/m*3 3.72 C 0.4 km/h
1220 26-12-2014 16:00:00 3.075 C 5.74 g/m*3 3.08 C 0.26667 km/h
1221 26-12-2014 17:00:00 2.75833 C 5.66 g/m*3 2.76 C 0.26667 km/h
1222 26-12-2014 18:00:00 1.675 C 5.26 g/m*3 1.68 C 0 km/h
1223 26-12-2014 19:00:00 1.36667 C 5.16 g/m*3 1.37 C 0.26667 km/h
1224 26-12-2014 20:00:00 1.49167 C 5.24 g/m*3 1.49 C 1.06667 km/h
1225 26-12-2014 21:00:00 1.88333 C 5.4 g/m*3 1.88 C 1.86667 km/h
Sensor: Nr:Datum:Temp:Abs-Feuchte:Windchill:Wind:
Aussen-T/F 1226 26-12-2014 22:00:00 2.075 C 5.47 g/m*3 2.08 C 0.53333 km/h
1227 26-12-2014 23:00:00 1.8 C 5.37 g/m*3 1.8 C 0.26667 km/h
1228 27-12-2014 00:00:00 1.8 C 5.35 g/m*3 1.8 C 0.66667 km/h
1229 27-12-2014 01:00:00 1.70833 C 5.3 g/m*3 1.71 C 1.73333 km/h
1230 27-12-2014 02:00:00 1.85 C 5.37 g/m*3 1.85 C 1.86667 km/h
1231 27-12-2014 03:00:00 1.99167 C 5.39 g/m*3 1.99 C 1.2 km/h
1232 27-12-2014 04:00:00 2.24286 C 5.48 g/m*3 2.24 C 2.74286 km/h
1233 27-12-2014 05:00:00 1.8 C 5.21 g/m*3 -0.63 C 8.03333 km/h
1234 27-12-2014 06:00:00 1.76667 C 5.2 g/m*3 0.05 C 5.88889 km/h
1235 27-12-2014 07:00:00 1.41111 C 5.07 g/m*3 -1.41 C 9.14444 km/h
1236 27-12-2014 08:00:00 1.3 C 5.03 g/m*3 -2.3 C 12.36667 km/h
1237 27-12-2014 09:00:00 1.21818 C 5 g/m*3 -1.37 C 8.21818 km/h
1238 27-12-2014 10:00:00 1.34167 C 5.07 g/m*3 -0.74 C 6.70833 km/h
1239 27-12-2014 11:00:00 1.56667 C 5.15 g/m*3 -0.75 C 7.51667 km/h
1240 27-12-2014 12:00:00 1.34545 C 5.1 g/m*3 -0.64 C 6.44545 km/h
1241 27-12-2014 13:00:00 1.84 C 5.23 g/m*3 0.3 C 5.46 km/h
1242 27-12-2014 14:00:00 2.13333 C 5.31 g/m*3 2.13 C 2.31111 km/h
1243 27-12-2014 15:00:00 2.15833 C 5.28 g/m*3 2.16 C 4.55 km/h
1244 27-12-2014 16:00:00 1.725 C 5.18 g/m*3 -0.2 C 6.425 km/h
1245 27-12-2014 18:00:00 0.8 C 4.81 g/m*3 0.8 C 3.2 km/h
1246 27-12-2014 19:00:00 0.625 C 4.67 g/m*3 -2.02 C 8.05 km/h
1247 27-12-2014 20:00:00 0.35833 C 4.49 g/m*3 -2.58 C 8.875 km/h
1248 27-12-2014 21:00:00 0.3 C 4.43 g/m*3 -1.53 C 5.63333 km/h
1249 27-12-2014 22:00:00 0.3 C 4.4 g/m*3 -3.28 C 11.3 km/h
1250 28-12-2014 05:00:00 -2 C 3.31 g/m*3 -5.84 C 10.5 km/h
Sensor: Nr:Datum:Temp:Abs-Feuchte:Windchill:Wind:
Aussen-T/F 1251 28-12-2014 06:00:00 -2.21667 C 3.28 g/m*3 -6.54 C 12.23333 km/h
1252 28-12-2014 07:00:00 -2.50833 C 3.27 g/m*3 -6.45 C 10.49167 km/h
1253 28-12-2014 08:00:00 -3.35833 C 3.14 g/m*3 -5.65 C 5.49167 km/h
1254 28-12-2014 09:00:00 -3.79167 C 3.05 g/m*3 -6 C 5.20833 km/h
1255 28-12-2014 10:00:00 -3.775 C 3.02 g/m*3 -3.78 C 4.025 km/h
1256 28-12-2014 11:00:00 -3.30833 C 2.84 g/m*3 -7.13 C 9.54167 km/h
1257 28-12-2014 12:00:00 -2.49167 C 2.7 g/m*3 -6.28 C 9.95833 km/h
1258 28-12-2014 13:00:00 -1.94167 C 2.8 g/m*3 -5.3 C 8.88333 km/h
1259 28-12-2014 14:00:00 -1.61667 C 2.96 g/m*3 -3.72 C 5.61667 km/h
1260 28-12-2014 15:00:00 -1.30833 C 3.03 g/m*3 -4.97 C 10.35833 km/h
1261 28-12-2014 16:00:00 -1.64167 C 3.07 g/m*3 -1.64 C 4.54167 km/h
1262 28-12-2014 17:00:00 -2.83333 C 3.28 g/m*3 -2.83 C 1.06667 km/h
1263 28-12-2014 18:00:00 -3.28333 C 3.29 g/m*3 -5.55 C 5.475 km/h
1264 28-12-2014 19:00:00 -3.66667 C 3.26 g/m*3 -3.67 C 3.46667 km/h
1265 28-12-2014 20:00:00 -4.24167 C 3.24 g/m*3 -4.24 C 4.4 km/h
1266 28-12-2014 21:00:00 -4.50833 C 3.21 g/m*3 -4.51 C 4 km/h
1267 28-12-2014 22:00:00 -5.06667 C 3.09 g/m*3 -5.07 C 1.6 km/h
1268 28-12-2014 23:00:00 -4.53333 C 3.24 g/m*3 -4.53 C 2.13333 km/h
1269 29-12-2014 00:00:00 -3.90833 C 3.32 g/m*3 -3.91 C 3.73333 km/h
1270 29-12-2014 01:00:00 -3.60833 C 3.33 g/m*3 -6.01 C 5.65 km/h
1271 29-12-2014 02:00:00 -4.18333 C 3.23 g/m*3 -6.45 C 5.21667 km/h
1272 29-12-2014 03:00:00 -3.375 C 3.37 g/m*3 -7.92 C 12.1 km/h
1273 29-12-2014 04:00:00 -2.85 C 3.47 g/m*3 -7.56 C 13.3 km/h
1274 29-12-2014 05:00:00 -2.95 C 3.67 g/m*3 -7.43 C 12.23333 km/h
1275 29-12-2014 06:00:00 -2.625 C 3.79 g/m*3 -6.48 C 10.1 km/h
Sensor: Nr:Datum:Temp:Abs-Feuchte:Windchill:Wind:
Aussen-T/F 1276 29-12-2014 07:00:00 -1.925 C 4.01 g/m*3 -1.93 C 4.425 km/h
1277 29-12-2014 08:00:00 -1.5 C 4.18 g/m*3 -1.5 C 2.26667 km/h
1278 29-12-2014 09:00:00 -1.3 C 4.23 g/m*3 -1.3 C 2.8 km/h
1279 29-12-2014 10:00:00 -0.65833 C 4.43 g/m*3 -0.66 C 3.73333 km/h
1280 29-12-2014 11:00:00 0.29167 C 4.73 g/m*3 0.29 C 4.4 km/h
1281 29-12-2014 12:00:00 1.7 C 5.23 g/m*3 -0.34 C 6.76 km/h
1282 29-12-2014 13:00:00 2.75556 C 5.44 g/m*3 0.14 C 9.34444 km/h
1283 29-12-2014 14:00:00 2.92 C 5.43 g/m*3 1.54 C 5.46 km/h
1284 29-12-2014 15:00:00 2.85556 C 5.27 g/m*3 0.31 C 9.13333 km/h
1285 29-12-2014 16:00:00 2.60833 C 4.95 g/m*3 -0.72 C 12.36667 km/h
1286 29-12-2014 17:00:00 2.21667 C 4.84 g/m*3 0.56 C 5.9 km/h
1287 29-12-2014 18:00:00 1.875 C 4.66 g/m*3 -0.47 C 7.79167 km/h
1288 29-12-2014 19:00:00 1.76667 C 4.54 g/m*3 0 C 6.025 km/h
1289 29-12-2014 20:00:00 1.51667 C 4.45 g/m*3 0.04 C 5.21667 km/h
1290 29-12-2014 21:00:00 1.40833 C 4.4 g/m*3 -0.03 C 5.075 km/h
1291 29-12-2014 22:00:00 0.70833 C 4.4 g/m*3 0.71 C 2.53333 km/h
1292 29-12-2014 23:00:00 0.05 C 4.39 g/m*3 0.05 C 0.4 km/h
1293 30-12-2014 00:00:00 0.32 C 4.46 g/m*3 0.32 C 0.32 km/h
1294 30-12-2014 01:00:00 0.3 C 4.48 g/m*3 0.3 C 1.6 km/h
1295 30-12-2014 09:00:00 1.32857 C 5.1 g/m*3 1.33 C 1.6 km/h
1296 30-12-2014 10:00:00 1.94167 C 5.31 g/m*3 1.94 C 2.26667 km/h
1297 30-12-2014 11:00:00 2.875 C 5.57 g/m*3 2.88 C 2.66667 km/h
1298 30-12-2014 12:00:00 3.575 C 5.64 g/m*3 3.58 C 2 km/h
1299 30-12-2014 13:00:00 3.26667 C 5.55 g/m*3 3.27 C 0.4 km/h
1300 30-12-2014 14:00:00 4.09167 C 5.66 g/m*3 2.37 C 6.95833 km/h
Sensor: Nr:Datum:Temp:Abs-Feuchte:Windchill:Wind:
Aussen-T/F 1301 30-12-2014 15:00:00 4.18333 C 5.71 g/m*3 2.59 C 6.575 km/h
1302 30-12-2014 16:00:00 3.525 C 5.63 g/m*3 3.53 C 3.34167 km/h
1303 30-12-2014 17:00:00 3.2 C 5.56 g/m*3 3.2 C 2.66667 km/h
1304 30-12-2014 18:00:00 2.53333 C 5.38 g/m*3 2.53 C 2.66667 km/h
1305 30-12-2014 19:00:00 2.2 C 5.33 g/m*3 2.2 C 2.4 km/h
1306 30-12-2014 20:00:00 2.45 C 5.28 g/m*3 2.45 C 3.06667 km/h
1307 30-12-2014 21:00:00 2.14167 C 5.23 g/m*3 2.14 C 2 km/h
1308 30-12-2014 22:00:00 1.94167 C 5.2 g/m*3 1.94 C 1.46667 km/h
1309 30-12-2014 23:00:00 1.90833 C 5.19 g/m*3 1.91 C 1.33333 km/h
1310 31-12-2014 00:00:00 1.875 C 5.21 g/m*3 1.88 C 0.66667 km/h
1311 31-12-2014 01:00:00 1.96667 C 5.24 g/m*3 1.97 C 1.2 km/h
1312 31-12-2014 02:00:00 2.1 C 5.26 g/m*3 2.1 C 0.8 km/h
1313 31-12-2014 03:00:00 2.1 C 5.29 g/m*3 2.1 C 1.06667 km/h
1314 31-12-2014 04:00:00 2.13333 C 5.32 g/m*3 2.13 C 0.26667 km/h
1315 31-12-2014 05:00:00 2.26667 C 5.33 g/m*3 2.27 C 1.86667 km/h
1316 31-12-2014 06:00:00 2.275 C 5.32 g/m*3 2.28 C 1.6 km/h
1317 31-12-2014 07:00:00 2.48333 C 5.37 g/m*3 2.48 C 3.06667 km/h
1318 31-12-2014 08:00:00 2.56667 C 5.4 g/m*3 2.57 C 4.68333 km/h
1319 31-12-2014 09:00:00 2.76667 C 5.41 g/m*3 0.41 C 8.35 km/h
1320 31-12-2014 10:00:00 3.075 C 5.47 g/m*3 0.6 C 9.00833 km/h
1321 31-12-2014 11:00:00 3.38333 C 5.55 g/m*3 1.37 C 7.53333 km/h
1322 31-12-2014 12:00:00 3.6 C 5.63 g/m*3 3.6 C 4.8 km/h
1323 31-12-2014 17:00:00 3.21429 C 6.03 g/m*3 3.21 C 3.67143 km/h
1324 01-01-2015 00:00:00 2.65556 C 5.68 g/m*3 2.66 C 0.35556 km/h
1325 01-01-2015 01:00:00 2.85 C 5.65 g/m*3 2.85 C 0.66667 km/h
Sensor: Nr:Datum:Temp:Abs-Feuchte:Windchill:Wind:
Aussen-T/F 1326 01-01-2015 02:00:00 2.75833 C 5.62 g/m*3 2.76 C 0 km/h
1327 01-01-2015 03:00:00 1.8 C 5.24 g/m*3 1.8 C 1.86667 km/h
1328 01-01-2015 04:00:00 1.025 C 5.01 g/m*3 1.02 C 2.4 km/h
1329 01-01-2015 05:00:00 1.50833 C 5.21 g/m*3 1.51 C 1.6 km/h
1330 01-01-2015 06:00:00 1.8 C 5.32 g/m*3 0.25 C 5.48333 km/h
1331 01-01-2015 07:00:00 1.70833 C 5.28 g/m*3 1.71 C 2.93333 km/h
1332 01-01-2015 08:00:00 1.5625 C 5.23 g/m*3 1.56 C 1.4 km/h
1333 01-01-2015 16:00:00 1.8 C 5.48 g/m*3 1.8 C 2.4 km/h
1334 01-01-2015 18:00:00 1.68333 C 5.16 g/m*3 1.68 C 1.33333 km/h
1335 01-01-2015 19:00:00 1.17143 C 5 g/m*3 1.17 C 2.05714 km/h
1336 02-01-2015 03:00:00 2.2 C 4.96 g/m*3 -0.01 C 7.53333 km/h
1337 02-01-2015 05:00:00 3.2 C 4.94 g/m*3 -0.25 C 13.7 km/h
1338 02-01-2015 06:00:00 3.32857 C 4.98 g/m*3 -1.01 C 19.75714 km/h
1339 02-01-2015 07:00:00 3.075 C 5.05 g/m*3 -1.12 C 18.24167 km/h
1340 02-01-2015 08:00:00 2.775 C 5.14 g/m*3 -1.54 C 18.50833 km/h
1341 02-01-2015 09:00:00 2.725 C 5.26 g/m*3 -1.94 C 21.03333 km/h
1342 02-01-2015 10:00:00 3.16667 C 5.39 g/m*3 -1.36 C 20.9 km/h
1343 02-01-2015 11:00:00 3.64167 C 5.52 g/m*3 -0.81 C 21.3 km/h
1344 02-01-2015 12:00:00 4.24167 C 5.75 g/m*3 0.34 C 18.23333 km/h
1345 02-01-2015 13:00:00 4.6 C 5.92 g/m*3 0.7 C 18.9 km/h
1346 02-01-2015 14:00:00 4.54167 C 5.98 g/m*3 0.92 C 16.76667 km/h
1347 02-01-2015 15:00:00 4.40833 C 6.1 g/m*3 1.23 C 13.7 km/h
1348 02-01-2015 16:00:00 4.35833 C 6.1 g/m*3 1.13 C 13.96667 km/h
1349 02-01-2015 17:00:00 4.3 C 6.1 g/m*3 1.24 C 12.9 km/h
1350 02-01-2015 23:00:00 2.48333 C 5.21 g/m*3 2.48 C 4.8 km/h
Sensor: Nr:Datum:Temp:Abs-Feuchte:Windchill:Wind:
Aussen-T/F 1351 03-01-2015 00:00:00 2.14167 C 5.14 g/m*3 0.81 C 5.075 km/h
1352 03-01-2015 01:00:00 2.45 C 5.16 g/m*3 0.24 C 7.65 km/h
1353 03-01-2015 02:00:00 2.73333 C 5.24 g/m*3 -0.01 C 9.83333 km/h
1354 03-01-2015 03:00:00 2.8 C 5.22 g/m*3 0.1 C 9.7 km/h
1355 03-01-2015 04:00:00 2.45 C 5.27 g/m*3 -0.85 C 12.1 km/h
1356 03-01-2015 05:00:00 2.5125 C 5.35 g/m*3 -0.43 C 10.5 km/h
1357 03-01-2015 06:00:00 2.55714 C 5.44 g/m*3 2.56 C 1.14286 km/h
1358 03-01-2015 07:00:00 3.06667 C 5.61 g/m*3 3.07 C 0 km/h
1359 03-01-2015 11:00:00 4.2 C 5.86 g/m*3 1.7 C 10 km/h
1360 03-01-2015 12:00:00 3.6 C 5.76 g/m*3 3.6 C 0.8 km/h
1361 03-01-2015 14:00:00 1.74545 C 5.2 g/m*3 1.75 C 0 km/h
1362 03-01-2015 15:00:00 1.68 C 5.22 g/m*3 1.68 C 0 km/h
1363 03-01-2015 17:00:00 1.65 C 5.24 g/m*3 1.65 C 0 km/h
1364 03-01-2015 18:00:00 1.45833 C 5.19 g/m*3 1.46 C 0.4 km/h
1365 03-01-2015 19:00:00 1.01667 C 5.04 g/m*3 1.02 C 0 km/h
1366 03-01-2015 20:00:00 0.9 C 5.01 g/m*3 0.9 C 0 km/h
1367 03-01-2015 21:00:00 1.11667 C 5.13 g/m*3 1.12 C 3.6 km/h
1368 03-01-2015 22:00:00 1.50833 C 5.27 g/m*3 1.51 C 4.55 km/h
1369 03-01-2015 23:00:00 1.96667 C 5.39 g/m*3 1.97 C 4.14167 km/h
1370 04-01-2015 00:00:00 2.06667 C 5.41 g/m*3 2.07 C 4.13333 km/h
1371 04-01-2015 01:00:00 2.375 C 5.59 g/m*3 2.38 C 3.60833 km/h
1372 04-01-2015 02:00:00 3.65 C 6 g/m*3 1.89 C 6.84167 km/h
1373 04-01-2015 03:00:00 4.075 C 5.98 g/m*3 1.82 C 8.875 km/h
1374 04-01-2015 04:00:00 3.48 C 5.74 g/m*3 1.93 C 6.12 km/h
1375 04-01-2015 05:00:00 2.05 C 5.32 g/m*3 2.05 C 4.275 km/h
Sensor: Nr:Datum:Temp:Abs-Feuchte:Windchill:Wind:
Aussen-T/F 1376 04-01-2015 06:00:00 1.34167 C 5.13 g/m*3 1.34 C 3.46667 km/h
1377 04-01-2015 07:00:00 1.04167 C 5.05 g/m*3 1.04 C 3.2 km/h
1378 04-01-2015 08:00:00 1.18 C 5.1 g/m*3 1.18 C 2.24 km/h
1379 04-01-2015 18:00:00 4.07778 C 5.8 g/m*3 4.08 C 4.27778 km/h
1380 04-01-2015 19:00:00 4.2 C 5.65 g/m*3 4.2 C 4.00833 km/h
1381 04-01-2015 20:00:00 3.7 C 5.61 g/m*3 3.7 C 3.86667 km/h
1382 04-01-2015 21:00:00 3.81667 C 5.64 g/m*3 3.82 C 4 km/h
1383 04-01-2015 22:00:00 3.38333 C 5.59 g/m*3 3.38 C 1.86667 km/h
1384 04-01-2015 23:00:00 3.25833 C 5.53 g/m*3 3.26 C 3.06667 km/h
1385 05-01-2015 00:00:00 3.06667 C 5.4 g/m*3 3.07 C 3.2 km/h
1386 05-01-2015 01:00:00 2.64167 C 5.22 g/m*3 2.64 C 3.48333 km/h
1387 05-01-2015 02:00:00 1.40833 C 4.96 g/m*3 1.41 C 1.2 km/h
1388 05-01-2015 03:00:00 0.925 C 4.85 g/m*3 0.93 C 2.13333 km/h
1389 05-01-2015 04:00:00 0.10833 C 4.6 g/m*3 0.11 C 0.8 km/h
1390 05-01-2015 05:00:00 -0.48333 C 4.47 g/m*3 -0.48 C 0.93333 km/h
1391 05-01-2015 06:00:00 -0.79167 C 4.4 g/m*3 -0.79 C 0.53333 km/h
1392 05-01-2015 07:00:00 -0.89167 C 4.39 g/m*3 -0.89 C 2.93333 km/h
1393 05-01-2015 08:00:00 -0.75 C 4.46 g/m*3 -3.01 C 6.30833 km/h
1394 05-01-2015 09:00:00 -0.73333 C 4.47 g/m*3 -2.82 C 5.88333 km/h
1395 05-01-2015 10:00:00 -0.45 C 4.56 g/m*3 -0.45 C 4.00833 km/h
1396 05-01-2015 11:00:00 -0.04 C 4.69 g/m*3 -0.04 C 2.24 km/h
1397 05-01-2015 12:00:00 0.2 C 4.77 g/m*3 0.2 C 1.86667 km/h
1398 05-01-2015 13:00:00 1.1 C 5.1 g/m*3 1.1 C 4 km/h
1399 05-01-2015 14:00:00 1.1 C 4.96 g/m*3 1.1 C 3.2 km/h
1400 05-01-2015 18:00:00 -0.8 C 4.4 g/m*3 -0.8 C 0.2 km/h
Sensor: Nr:Datum:Temp:Abs-Feuchte:Windchill:Wind:
Aussen-T/F 1401 05-01-2015 19:00:00 -0.86667 C 4.38 g/m*3 -0.87 C 0 km/h
1402 05-01-2015 20:00:00 -1.39 C 4.22 g/m*3 -1.39 C 0 km/h
1403 05-01-2015 21:00:00 -1.56667 C 4.18 g/m*3 -1.57 C 0 km/h
1404 05-01-2015 22:00:00 -1.75556 C 4.12 g/m*3 -1.76 C 0.17778 km/h
1405 06-01-2015 07:00:00 -2.9 C 3.84 g/m*3 -2.9 C 4.8 km/h
1406 06-01-2015 08:00:00 -2.9 C 3.84 g/m*3 -2.9 C 2.8 km/h
1407 06-01-2015 13:00:00 -1.32 C 4.29 g/m*3 -1.32 C 0.96 km/h
1408 06-01-2015 19:00:00 1.1 C 4.7 g/m*3 -2.82 C 13.7 km/h
1409 06-01-2015 20:00:00 0.83333 C 4.62 g/m*3 -3.09 C 13.43333 km/h
1410 06-01-2015 21:00:00 0.7625 C 4.7 g/m*3 -2.58 C 10.7 km/h
1411 06-01-2015 22:00:00 1.15 C 4.82 g/m*3 -0.87 C 6.44167 km/h
1412 06-01-2015 23:00:00 1.43333 C 4.95 g/m*3 -0.81 C 7.23333 km/h
1413 07-01-2015 00:00:00 1.625 C 5.06 g/m*3 -0.01 C 5.61667 km/h
1414 07-01-2015 01:00:00 2.05 C 5.24 g/m*3 -0.5 C 8.58333 km/h
1415 07-01-2015 02:00:00 2.24167 C 5.31 g/m*3 0.26 C 6.84167 km/h
1416 07-01-2015 03:00:00 2.48333 C 5.38 g/m*3 -0.1 C 9 km/h
1417 07-01-2015 04:00:00 2.45833 C 5.39 g/m*3 -0.26 C 9.53333 km/h
1418 07-01-2015 05:00:00 2.475 C 5.39 g/m*3 0.58 C 6.69167 km/h
1419 07-01-2015 06:00:00 1.6 C 5.15 g/m*3 1.6 C 2.8 km/h
1420 07-01-2015 07:00:00 1.36667 C 5.11 g/m*3 1.37 C 3.73333 km/h
1421 07-01-2015 08:00:00 1.625 C 5.23 g/m*3 0.1 C 5.35 km/h
1422 07-01-2015 09:00:00 2.05556 C 5.35 g/m*3 2.06 C 3.37778 km/h
1423 07-01-2015 11:00:00 3.225 C 5.55 g/m*3 0.93 C 8.45 km/h
1424 07-01-2015 12:00:00 3.19167 C 5.52 g/m*3 0.96 C 8.18333 km/h
1425 07-01-2015 13:00:00 3.40833 C 5.52 g/m*3 0.77 C 9.95 km/h
Sensor: Nr:Datum:Temp:Abs-Feuchte:Windchill:Wind:
Aussen-T/F 1426 07-01-2015 14:00:00 3.425 C 5.48 g/m*3 0.64 C 10.625 km/h
1427 07-01-2015 15:00:00 3.41667 C 5.42 g/m*3 1.37 C 7.65 km/h
1428 07-01-2015 16:00:00 3.14167 C 5.39 g/m*3 1.57 C 6.03333 km/h
1429 07-01-2015 17:00:00 2.83333 C 5.33 g/m*3 2.83 C 4.15833 km/h
1430 07-01-2015 18:00:00 2.78333 C 5.29 g/m*3 2.78 C 3.475 km/h
1431 07-01-2015 19:00:00 2.56667 C 5.33 g/m*3 2.57 C 0.93333 km/h
1432 07-01-2015 20:00:00 2.60833 C 5.36 g/m*3 2.61 C 2.54167 km/h
1433 07-01-2015 21:00:00 2.58333 C 5.32 g/m*3 2.58 C 1.6 km/h
1434 07-01-2015 22:00:00 2.475 C 5.25 g/m*3 2.48 C 2.13333 km/h
1435 07-01-2015 23:00:00 2.80833 C 5.18 g/m*3 2.81 C 2.95 km/h
1436 08-01-2015 00:00:00 2.625 C 5.33 g/m*3 2.63 C 0.93333 km/h
1437 08-01-2015 01:00:00 2.625 C 5.44 g/m*3 2.63 C 0.13333 km/h
1438 08-01-2015 02:00:00 2.78333 C 5.51 g/m*3 2.78 C 0.66667 km/h
1439 08-01-2015 03:00:00 4.28333 C 5.98 g/m*3 1.94 C 9.4 km/h
1440 08-01-2015 04:00:00 4.36667 C 6.14 g/m*3 4.37 C 3.6 km/h
1441 08-01-2015 05:00:00 4.275 C 6.22 g/m*3 4.28 C 1.73333 km/h
1442 08-01-2015 06:00:00 4.28333 C 6.28 g/m*3 4.28 C 1.2 km/h
1443 08-01-2015 07:00:00 4.95 C 6.58 g/m*3 2.89 C 8.725 km/h
1444 08-01-2015 08:00:00 5.63333 C 6.8 g/m*3 4.76 C 5.1 km/h
1445 08-01-2015 09:00:00 5.58333 C 6.87 g/m*3 5.58 C 1.6 km/h
1446 08-01-2015 10:00:00 6.44167 C 7.31 g/m*3 6.44 C 3.875 km/h
1447 08-01-2015 11:00:00 7.5 C 7.67 g/m*3 6.22 C 7.39167 km/h
1448 08-01-2015 12:00:00 8.375 C 7.9 g/m*3 7.05 C 8.20833 km/h
1449 08-01-2015 13:00:00 9.06667 C 8.12 g/m*3 5.97 C 22.36667 km/h
1450 08-01-2015 14:00:00 9.41667 C 8.23 g/m*3 6.78 C 18.63333 km/h
Sensor: Nr:Datum:Temp:Abs-Feuchte:Windchill:Wind:
Aussen-T/F 1451 08-01-2015 15:00:00 9.68333 C 8.36 g/m*3 7.52 C 15.025 km/h
1452 08-01-2015 16:00:00 9.78333 C 8.31 g/m*3 7.2 C 19.05 km/h
1453 08-01-2015 17:00:00 9.65833 C 8.37 g/m*3 7.34 C 16.23333 km/h
1454 08-01-2015 18:00:00 9.775 C 8.45 g/m*3 7.1 C 19.96667 km/h
1455 08-01-2015 19:00:00 9.06667 C 7.68 g/m*3 5.84 C 23.85833 km/h
1456 08-01-2015 20:00:00 7.70833 C 7.12 g/m*3 5.2 C 14.23333 km/h
1457 08-01-2015 21:00:00 7.31667 C 7.05 g/m*3 5.38 C 10.225 km/h
1458 08-01-2015 22:00:00 7.15833 C 6.9 g/m*3 4.97 C 11.425 km/h
1459 08-01-2015 23:00:00 6.575 C 6.8 g/m*3 4.94 C 8.18333 km/h
1460 09-01-2015 00:00:00 6.5 C 6.71 g/m*3 4.82 C 8.33333 km/h
1461 09-01-2015 01:00:00 6.45 C 6.67 g/m*3 3.97 C 12.225 km/h
1462 09-01-2015 02:00:00 6.425 C 6.64 g/m*3 4.97 C 7.35833 km/h
1463 09-01-2015 03:00:00 7.23333 C 6.84 g/m*3 4.97 C 11.94167 km/h
1464 09-01-2015 04:00:00 7.375 C 6.95 g/m*3 6.21 C 6.85 km/h
1465 09-01-2015 05:00:00 7.50833 C 6.95 g/m*3 5.77 C 9.40833 km/h
1466 09-01-2015 06:00:00 8.025 C 6.91 g/m*3 5.03 C 18.625 km/h
1467 09-01-2015 07:00:00 8.38333 C 7 g/m*3 5.6 C 17.56667 km/h
1468 09-01-2015 08:00:00 8.73333 C 7.11 g/m*3 5.74 C 20.36667 km/h
1469 09-01-2015 09:00:00 9.075 C 7.23 g/m*3 6.11 C 21.05 km/h
1470 09-01-2015 10:00:00 8.925 C 7.34 g/m*3 5.86 C 21.59167 km/h
1471 09-01-2015 11:00:00 9.15833 C 7.49 g/m*3 5.68 C 27.225 km/h
1472 09-01-2015 12:00:00 9.34167 C 7.71 g/m*3 5.78 C 29.09167 km/h
1473 09-01-2015 13:00:00 9.7 C 8.01 g/m*3 6.3 C 28.29167 km/h
1474 09-01-2015 14:00:00 10.33333 C 8.34 g/m*3 7.35 C 25.20833 km/h
1475 09-01-2015 15:00:00 11.225 C 8.62 g/m*3 11.23 C 24.66667 km/h
Sensor: Nr:Datum:Temp:Abs-Feuchte:Windchill:Wind:
Aussen-T/F 1476 09-01-2015 16:00:00 11.64167 C 8.62 g/m*3 11.64 C 23.33333 km/h
1477 09-01-2015 17:00:00 11.725 C 8.56 g/m*3 11.73 C 17.975 km/h
1478 09-01-2015 18:00:00 11.58333 C 8.15 g/m*3 11.58 C 14.35833 km/h
1479 09-01-2015 19:00:00 10.7 C 8.05 g/m*3 10.45 C 5.33333 km/h
1480 09-01-2015 21:00:00 10.56667 C 9.24 g/m*3 8.53 C 15.74444 km/h
1481 09-01-2015 22:00:00 11.61667 C 9.7 g/m*3 11.62 C 18.5 km/h
1482 09-01-2015 23:00:00 12.575 C 10.06 g/m*3 12.58 C 25.875 km/h
1483 10-01-2015 00:00:00 12.91667 C 10.25 g/m*3 12.92 C 20.23333 km/h
1484 10-01-2015 01:00:00 13.3 C 10.4 g/m*3 13.3 C 17.24286 km/h
1485 10-01-2015 02:00:00 14 C 12.06 g/m*3 14 C 12.9 km/h
1486 10-01-2015 04:00:00 15.27778 C 10.9 g/m*3 15.28 C 18.58889 km/h
1487 10-01-2015 05:00:00 15.24167 C 10.88 g/m*3 15.24 C 21.98333 km/h
1488 10-01-2015 06:00:00 14.78571 C 11.19 g/m*3 14.79 C 23.9 km/h
1489 10-01-2015 07:00:00 14.825 C 10.45 g/m*3 14.83 C 21.99167 km/h
1490 10-01-2015 08:00:00 14.48333 C 10.18 g/m*3 14.48 C 23.725 km/h
1491 10-01-2015 09:00:00 14.675 C 9.99 g/m*3 14.68 C 26.81667 km/h
1492 10-01-2015 10:00:00 14.58333 C 9.73 g/m*3 14.58 C 22.10833 km/h
1493 10-01-2015 11:00:00 14.275 C 9.51 g/m*3 14.28 C 18.76667 km/h
1494 10-01-2015 12:00:00 14.3 C 9.46 g/m*3 14.3 C 20.91667 km/h
1495 10-01-2015 13:00:00 13.96667 C 9.37 g/m*3 13.97 C 18.1 km/h
1496 10-01-2015 14:00:00 13.9 C 9.33 g/m*3 13.9 C 18.375 km/h
1497 10-01-2015 15:00:00 13.52 C 9.44 g/m*3 13.52 C 15.46 km/h
1498 10-01-2015 16:00:00 12.875 C 9.57 g/m*3 12.88 C 16.9 km/h
1499 10-01-2015 17:00:00 12.09167 C 9.63 g/m*3 12.09 C 15.56667 km/h
1500 10-01-2015 18:00:00 10 C 7.94 g/m*3 7.08 C 23.33333 km/h
Sensor: Nr:Datum:Temp:Abs-Feuchte:Windchill:Wind:
Aussen-T/F 1501 10-01-2015 19:00:00 8.7 C 7.15 g/m*3 5.92 C 18.23333 km/h
1502 10-01-2015 20:00:00 8.8 C 8.7 g/m*3 6.17 C 17.16667 km/h
1503 11-01-2015 01:00:00 5.06667 C 5.78 g/m*3 3.35 C 7.5 km/h
1504 11-01-2015 02:00:00 4.62222 C 5.15 g/m*3 3.59 C 5.17778 km/h
1505 11-01-2015 03:00:00 4.05 C 5.12 g/m*3 4.05 C 4.53333 km/h
1506 11-01-2015 05:00:00 3.4 C 6.11 g/m*3 1.47 C 7.25 km/h
1507 11-01-2015 08:00:00 3.91667 C 5.09 g/m*3 -0.14 C 18.8 km/h
1508 11-01-2015 09:00:00 4.2 C 4.9 g/m*3 1.59 C 10.5 km/h
1509 11-01-2015 11:00:00 5.12222 C 5.42 g/m*3 1.84 C 15.38889 km/h
1510 11-01-2015 12:00:00 5.5 C 5.27 g/m*3 1.78 C 19.30833 km/h
1511 11-01-2015 13:00:00 6.03333 C 5.11 g/m*3 2.04 C 23.05833 km/h
1512 11-01-2015 14:00:00 6.14444 C 5.1 g/m*3 2.43 C 20.73333 km/h
1513 11-01-2015 15:00:00 6.04167 C 5.1 g/m*3 2.12 C 22.39167 km/h
1514 11-01-2015 16:00:00 5.68 C 5.11 g/m*3 2.52 C 15.46 km/h
1515 11-01-2015 17:00:00 5.48571 C 7.02 g/m*3 2.46 C 14.27143 km/h
1516 11-01-2015 18:00:00 5.51111 C 5.5 g/m*3 3.11 C 10.75556 km/h
1517 11-01-2015 19:00:00 5.625 C 5.17 g/m*3 2.62 C 14.36667 km/h
1518 11-01-2015 20:00:00 5.75 C 5.24 g/m*3 3.05 C 12.63333 km/h
1519 11-01-2015 21:00:00 5.84167 C 5.41 g/m*3 3.1 C 13.03333 km/h
1520 11-01-2015 22:00:00 5.8 C 5.52 g/m*3 3.36 C 11.3 km/h
1521 12-01-2015 00:00:00 5.64 C 5.98 g/m*3 1.92 C 19.62 km/h
1522 12-01-2015 01:00:00 5.28333 C 6.15 g/m*3 1.94 C 16.1 km/h
1523 12-01-2015 02:00:00 5.525 C 6.24 g/m*3 2.45 C 14.63333 km/h
1524 12-01-2015 03:00:00 6 C 6.36 g/m*3 3.31 C 12.9 km/h
1525 12-01-2015 04:00:00 6.075 C 6.47 g/m*3 3.36 C 13.16667 km/h
Sensor: Nr:Datum:Temp:Abs-Feuchte:Windchill:Wind:
Aussen-T/F 1526 12-01-2015 05:00:00 6.225 C 6.51 g/m*3 3.95 C 10.88333 km/h
1527 12-01-2015 06:00:00 6.49167 C 6.42 g/m*3 3.53 C 15.43333 km/h
1528 12-01-2015 07:00:00 6.54167 C 6.37 g/m*3 3.5 C 16.1 km/h
1529 12-01-2015 08:00:00 6.68333 C 6.31 g/m*3 3.82 C 15.03333 km/h
1530 12-01-2015 09:00:00 6.8 C 6.23 g/m*3 3.93 C 15.3 km/h
1531 12-01-2015 10:00:00 7.01667 C 6.26 g/m*3 4.18 C 15.43333 km/h
1532 12-01-2015 11:00:00 6.74167 C 6.4 g/m*3 3.93 C 14.76667 km/h
1533 12-01-2015 12:00:00 6.8 C 6.43 g/m*3 4.35 C 12.5 km/h
1534 12-01-2015 13:00:00 7.36 C 6.58 g/m*3 5.02 C 12.58 km/h
1535 12-01-2015 14:00:00 7.59167 C 6.52 g/m*3 4.94 C 15.03333 km/h
1536 12-01-2015 15:00:00 7.3625 C 6.59 g/m*3 4.82 C 13.9 km/h
1537 12-01-2015 16:00:00 7.13333 C 6.72 g/m*3 3.66 C 20.92222 km/h
1538 12-01-2015 17:00:00 7.10833 C 6.58 g/m*3 4.03 C 17.43333 km/h
1539 12-01-2015 18:00:00 7.44167 C 6.45 g/m*3 4.53 C 16.76667 km/h
1540 12-01-2015 19:00:00 7.75 C 6.56 g/m*3 5.38 C 13.3 km/h
1541 12-01-2015 20:00:00 8.11818 C 6.69 g/m*3 5.66 C 14.5 km/h
1542 12-01-2015 21:00:00 8.44444 C 6.54 g/m*3 5.34 C 20.72222 km/h
1543 12-01-2015 22:00:00 8.32 C 6.41 g/m*3 5.45 C 18.18 km/h
1544 12-01-2015 23:00:00 8.64 C 6.46 g/m*3 5.77 C 18.98 km/h
1545 13-01-2015 00:00:00 8.8 C 6.63 g/m*3 5.66 C 22.11667 km/h
1546 13-01-2015 01:00:00 8.91667 C 6.7 g/m*3 5.97 C 20.375 km/h
1547 13-01-2015 02:00:00 8.95 C 6.74 g/m*3 6.08 C 19.7 km/h
1548 13-01-2015 03:00:00 8.875 C 6.81 g/m*3 6.63 C 14.23333 km/h
1549 13-01-2015 04:00:00 9.19167 C 6.7 g/m*3 7.26 C 12.5 km/h
1550 13-01-2015 05:00:00 9.19167 C 6.54 g/m*3 7.68 C 9.925 km/h
Sensor: Nr:Datum:Temp:Abs-Feuchte:Windchill:Wind:
Aussen-T/F 1551 13-01-2015 06:00:00 9.3 C 6.4 g/m*3 8.63 C 6.15 km/h
1552 13-01-2015 07:00:00 8.6 C 6.41 g/m*3 8.6 C 4.80909 km/h
1553 13-01-2015 08:00:00 9 C 8.82 g/m*3 7.81 C 8.1 km/h
1554 13-01-2015 12:00:00 11.41 C 6.96 g/m*3 11.41 C 16.9 km/h
1555 13-01-2015 13:00:00 12.725 C 6.62 g/m*3 12.73 C 19.03333 km/h
1556 13-01-2015 14:00:00 13.475 C 6.56 g/m*3 13.48 C 21.84167 km/h
1557 13-01-2015 15:00:00 13.35556 C 6.7 g/m*3 13.36 C 17.16667 km/h
1558 13-01-2015 16:00:00 11.74 C 7.99 g/m*3 11.74 C 20.11 km/h
1559 13-01-2015 17:00:00 11.175 C 8.2 g/m*3 11.18 C 17.70833 km/h
1560 13-01-2015 18:00:00 10.74167 C 8.16 g/m*3 8.15 C 21.85 km/h
1561 13-01-2015 19:00:00 10.13333 C 8.05 g/m*3 7.52 C 20.25 km/h
1562 13-01-2015 20:00:00 9.68571 C 8.03 g/m*3 7.59 C 14.5 km/h
1563 13-01-2015 21:00:00 8.775 C 7.32 g/m*3 7.56 C 8.05 km/h
1564 13-01-2015 22:00:00 8.75833 C 7.34 g/m*3 7.48 C 8.33333 km/h
1565 13-01-2015 23:00:00 8.36667 C 7.28 g/m*3 7.51 C 6.29167 km/h
1566 14-01-2015 00:00:00 8.45833 C 7.34 g/m*3 7.51 C 6.69167 km/h
1567 14-01-2015 01:00:00 8.18333 C 7.32 g/m*3 8.18 C 4.68333 km/h
1568 14-01-2015 02:00:00 8.24167 C 7.14 g/m*3 6.45 C 10.45 km/h
1569 14-01-2015 03:00:00 8.7 C 6.77 g/m*3 5.85 C 18.90833 km/h
1570 14-01-2015 04:00:00 8.61667 C 6.62 g/m*3 5.43 C 21.98333 km/h
1571 14-01-2015 05:00:00 6.325 C 6.3 g/m*3 3.28 C 15.70833 km/h
1572 14-01-2015 06:00:00 5.325 C 5.94 g/m*3 3.4 C 8.46667 km/h
1573 14-01-2015 07:00:00 5.33333 C 5.74 g/m*3 3.38 C 8.58333 km/h
1574 14-01-2015 08:00:00 5.08333 C 5.64 g/m*3 2.98 C 9.00833 km/h
1575 14-01-2015 09:00:00 5.28333 C 5.69 g/m*3 2.79 C 11 km/h
Sensor: Nr:Datum:Temp:Abs-Feuchte:Windchill:Wind:
Aussen-T/F 1576 14-01-2015 10:00:00 6.19167 C 5.85 g/m*3 3.14 C 15.56667 km/h
1577 14-01-2015 11:00:00 6.675 C 6.04 g/m*3 3.29 C 19.04167 km/h
1578 14-01-2015 12:00:00 6.24167 C 6.07 g/m*3 2.59 C 20.375 km/h
1579 14-01-2015 13:00:00 5.09167 C 6.16 g/m*3 2.16 C 13.16667 km/h
1580 14-01-2015 14:00:00 5.79167 C 6.25 g/m*3 2.42 C 17.16667 km/h
1581 14-01-2015 15:00:00 4.43333 C 5.74 g/m*3 0.88 C 16.1 km/h
1582 14-01-2015 16:00:00 4.76667 C 5.76 g/m*3 1.86 C 12.63333 km/h
1583 14-01-2015 17:00:00 3.94444 C 5.63 g/m*3 3.94 C 4.08889 km/h
1584 14-01-2015 18:00:00 3.48333 C 5.47 g/m*3 1.58 C 7.23333 km/h
1585 14-01-2015 19:00:00 3.67 C 5.39 g/m*3 1.3 C 9.03 km/h
1586 14-01-2015 22:00:00 2.36667 C 5.35 g/m*3 2.37 C 1.6 km/h
1587 14-01-2015 23:00:00 2.2 C 5.63 g/m*3 2.2 C 2.4 km/h
1588 15-01-2015 08:00:00 7.89 C 7.05 g/m*3 5.72 C 12.26 km/h
1589 15-01-2015 09:00:00 8.525 C 7.1 g/m*3 6.37 C 13.025 km/h
1590 15-01-2015 10:00:00 8.9 C 7.01 g/m*3 7.93 C 7.06 km/h
1591 15-01-2015 17:00:00 11.43636 C 7.14 g/m*3 11.44 C 21.21818 km/h
1592 15-01-2015 18:00:00 11.32 C 6.77 g/m*3 11.32 C 17.23 km/h
1593 15-01-2015 19:00:00 11.11667 C 6.98 g/m*3 11.12 C 23.05 km/h
1594 15-01-2015 20:00:00 10.875 C 7.22 g/m*3 8.12 C 24.25833 km/h
1595 15-01-2015 21:00:00 10.41667 C 7.32 g/m*3 8.13 C 17.7 km/h
1596 15-01-2015 22:00:00 10.30833 C 7.5 g/m*3 7.95 C 18.1 km/h
1597 15-01-2015 23:00:00 9.85 C 7.69 g/m*3 7.57 C 16.36667 km/h
1598 16-01-2015 00:00:00 9.3 C 7.62 g/m*3 7.62 C 11.03333 km/h
1599 16-01-2015 01:00:00 9.05833 C 7.4 g/m*3 7.8 C 8.475 km/h
1600 16-01-2015 02:00:00 8.225 C 7.36 g/m*3 7.46 C 5.89167 km/h
Sensor: Nr:Datum:Temp:Abs-Feuchte:Windchill:Wind:
Aussen-T/F 1601 16-01-2015 03:00:00 7.925 C 7.16 g/m*3 7.29 C 5.35 km/h
1602 16-01-2015 04:00:00 7.375 C 6.98 g/m*3 7.38 C 2.53333 km/h
1603 16-01-2015 05:00:00 6.94167 C 6.84 g/m*3 6.94 C 3.33333 km/h
1604 16-01-2015 06:00:00 6.86667 C 6.77 g/m*3 6.87 C 2.8 km/h
1605 16-01-2015 07:00:00 6.55 C 6.72 g/m*3 6.55 C 2 km/h
1606 16-01-2015 08:00:00 6.80833 C 6.67 g/m*3 6.81 C 3.73333 km/h
1607 16-01-2015 09:00:00 6.65833 C 6.72 g/m*3 6.66 C 1.46667 km/h
1608 16-01-2015 10:00:00 7.05833 C 6.62 g/m*3 7.06 C 4.275 km/h
1609 16-01-2015 11:00:00 7.33333 C 6.77 g/m*3 7.33 C 1.73333 km/h
1610 16-01-2015 12:00:00 7.44167 C 6.67 g/m*3 7.44 C 2.14167 km/h
1611 16-01-2015 13:00:00 7.26667 C 6.34 g/m*3 7.27 C 3.74167 km/h
1612 16-01-2015 14:00:00 6.89167 C 6.32 g/m*3 6.89 C 4.68333 km/h
1613 16-01-2015 15:00:00 6.625 C 6.4 g/m*3 6.63 C 1.33333 km/h
1614 16-01-2015 16:00:00 5.925 C 6.62 g/m*3 5.93 C 0.66667 km/h
1615 16-01-2015 17:00:00 5.39167 C 6.54 g/m*3 5.39 C 0.66667 km/h
1616 16-01-2015 18:00:00 5.14167 C 6.45 g/m*3 5.14 C 0.13333 km/h
1617 16-01-2015 19:00:00 5.11667 C 6.44 g/m*3 5.12 C 0.13333 km/h
1618 16-01-2015 20:00:00 5.125 C 6.4 g/m*3 5.13 C 0.26667 km/h
1619 16-01-2015 21:00:00 4.9 C 6.35 g/m*3 4.9 C 0.26667 km/h
1620 16-01-2015 22:00:00 5.09167 C 6.39 g/m*3 5.09 C 3.475 km/h
1621 16-01-2015 23:00:00 4.925 C 6.32 g/m*3 4.93 C 0.93333 km/h
1622 17-01-2015 00:00:00 4.95833 C 6.3 g/m*3 4.96 C 2.53333 km/h
1623 17-01-2015 01:00:00 4.65833 C 6.16 g/m*3 4.66 C 1.46667 km/h
1624 17-01-2015 02:00:00 4.76667 C 6.08 g/m*3 4.77 C 4.13333 km/h
1625 17-01-2015 03:00:00 5.01667 C 6.13 g/m*3 3.4 C 7.11667 km/h
Sensor: Nr:Datum:Temp:Abs-Feuchte:Windchill:Wind:
Aussen-T/F 1626 17-01-2015 04:00:00 4.90833 C 6.14 g/m*3 4.91 C 3.33333 km/h
1627 17-01-2015 05:00:00 4.65 C 6.11 g/m*3 4.65 C 2.4 km/h
1628 17-01-2015 06:00:00 4.04167 C 6.02 g/m*3 4.04 C 2.66667 km/h
1629 17-01-2015 07:00:00 3.225 C 5.75 g/m*3 3.23 C 2.93333 km/h
1630 17-01-2015 08:00:00 2.46667 C 5.51 g/m*3 2.47 C 4.26667 km/h
1631 17-01-2015 09:00:00 2.30833 C 5.46 g/m*3 2.31 C 0.53333 km/h
1632 17-01-2015 10:00:00 2.75 C 5.66 g/m*3 2.75 C 2.93333 km/h
1633 17-01-2015 11:00:00 3.23333 C 5.8 g/m*3 3.23 C 3.06667 km/h
1634 17-01-2015 12:00:00 4.01667 C 5.82 g/m*3 4.02 C 3.06667 km/h
1635 17-01-2015 13:00:00 4.85 C 5.7 g/m*3 4.85 C 3.46667 km/h
1636 17-01-2015 14:00:00 5.51667 C 5.6 g/m*3 4.35 C 5.9 km/h
1637 17-01-2015 15:00:00 5.5 C 5.66 g/m*3 5.5 C 3.33333 km/h
1638 17-01-2015 16:00:00 4.76667 C 5.74 g/m*3 4.77 C 1.86667 km/h
1639 17-01-2015 17:00:00 2.725 C 5.35 g/m*3 2.73 C 3.73333 km/h
1640 17-01-2015 18:00:00 1.73333 C 5.12 g/m*3 1.73 C 1.73333 km/h
1641 17-01-2015 19:00:00 0.9 C 4.86 g/m*3 0.9 C 0.4 km/h
1642 17-01-2015 20:00:00 0.50833 C 4.77 g/m*3 0.51 C 0.66667 km/h
1643 17-01-2015 21:00:00 0.10833 C 4.64 g/m*3 0.11 C 0.93333 km/h
1644 17-01-2015 22:00:00 0.54167 C 4.76 g/m*3 0.54 C 4.95833 km/h
1645 17-01-2015 23:00:00 2.29167 C 4.91 g/m*3 -0.33 C 9.01667 km/h
1646 18-01-2015 00:00:00 2.00833 C 4.71 g/m*3 -0.01 C 6.83333 km/h
1647 18-01-2015 01:00:00 1.49167 C 4.67 g/m*3 0 C 5.225 km/h
1648 18-01-2015 02:00:00 2.35 C 4.77 g/m*3 -0.28 C 9.10833 km/h
1649 18-01-2015 03:00:00 2.625 C 4.73 g/m*3 0.29 C 8.19167 km/h
1650 18-01-2015 04:00:00 2.39167 C 4.62 g/m*3 2.39 C 4.43333 km/h
Sensor: Nr:Datum:Temp:Abs-Feuchte:Windchill:Wind:
Aussen-T/F 1651 18-01-2015 05:00:00 0.85 C 4.58 g/m*3 0.85 C 2 km/h
1652 18-01-2015 06:00:00 0.6 C 4.57 g/m*3 0.6 C 3.33333 km/h
1653 18-01-2015 07:00:00 1.11667 C 4.61 g/m*3 1.12 C 1.46667 km/h
1654 18-01-2015 08:00:00 1.34167 C 4.58 g/m*3 1.34 C 2.53333 km/h
1655 18-01-2015 09:00:00 1.56667 C 4.67 g/m*3 1.57 C 1.33333 km/h
1656 18-01-2015 10:00:00 3.13333 C 4.78 g/m*3 3.13 C 4.14167 km/h
1657 18-01-2015 11:00:00 4.44167 C 4.86 g/m*3 3.17 C 5.75833 km/h
1658 18-01-2015 12:00:00 5.175 C 4.9 g/m*3 3.29 C 8.2 km/h
1659 18-01-2015 13:00:00 5.35 C 4.92 g/m*3 4.07 C 6.175 km/h
1660 18-01-2015 14:00:00 5.21667 C 5.05 g/m*3 4.3 C 5.08333 km/h
1661 18-01-2015 15:00:00 4.74167 C 5.08 g/m*3 4.74 C 1.46667 km/h
1662 18-01-2015 16:00:00 3.375 C 5 g/m*3 3.38 C 1.46667 km/h
1663 18-01-2015 17:00:00 1.56667 C 4.73 g/m*3 1.57 C 2.93333 km/h
1664 18-01-2015 18:00:00 0.525 C 4.53 g/m*3 0.53 C 3.33333 km/h
1665 18-01-2015 19:00:00 -0.13333 C 4.38 g/m*3 -0.13 C 3.06667 km/h
1666 18-01-2015 20:00:00 -0.58333 C 4.27 g/m*3 -0.58 C 2 km/h
1667 18-01-2015 21:00:00 -0.95 C 4.22 g/m*3 -0.95 C 0 km/h
1668 18-01-2015 22:00:00 -1.2 C 4.19 g/m*3 -1.2 C 2 km/h
1669 18-01-2015 23:00:00 -1.13333 C 4.24 g/m*3 -1.13 C 1.6 km/h
1670 19-01-2015 00:00:00 0.09167 C 4.59 g/m*3 -2.14 C 6.575 km/h
1671 19-01-2015 01:00:00 0.15 C 4.51 g/m*3 0.15 C 4.81667 km/h
1672 19-01-2015 02:00:00 0.13333 C 4.55 g/m*3 0.13 C 1.6 km/h
1673 19-01-2015 03:00:00 0.38333 C 4.68 g/m*3 0.38 C 0 km/h
1674 19-01-2015 04:00:00 0.6 C 4.74 g/m*3 0.6 C 0.53333 km/h
1675 19-01-2015 05:00:00 0.7 C 4.73 g/m*3 0.7 C 0.13333 km/h
Sensor: Nr:Datum:Temp:Abs-Feuchte:Windchill:Wind:
Aussen-T/F 1676 19-01-2015 06:00:00 0.7 C 4.73 g/m*3 0.7 C 0 km/h
1677 19-01-2015 07:00:00 0.76667 C 4.75 g/m*3 0.77 C 0 km/h
1678 19-01-2015 08:00:00 0.73333 C 4.74 g/m*3 0.73 C 0 km/h
1679 19-01-2015 09:00:00 0.875 C 4.72 g/m*3 0.88 C 0.26667 km/h
1680 19-01-2015 10:00:00 1.43333 C 4.66 g/m*3 1.43 C 4.55 km/h
1681 19-01-2015 11:00:00 1.76667 C 4.68 g/m*3 1.77 C 2.93333 km/h
1682 19-01-2015 12:00:00 1.9 C 4.61 g/m*3 0.48 C 5.2 km/h
1683 19-01-2015 13:00:00 2.01667 C 4.57 g/m*3 0.14 C 6.43333 km/h
1684 19-01-2015 14:00:00 2.15833 C 4.59 g/m*3 2.16 C 3.6 km/h
1685 19-01-2015 15:00:00 2.16667 C 4.57 g/m*3 2.17 C 1.46667 km/h
1686 19-01-2015 16:00:00 1.84167 C 4.56 g/m*3 1.84 C 1.46667 km/h
1687 19-01-2015 17:00:00 0.925 C 4.51 g/m*3 0.93 C 0.26667 km/h
1688 19-01-2015 18:00:00 0.10833 C 4.44 g/m*3 0.11 C 0.66667 km/h
1689 19-01-2015 19:00:00 0.11667 C 4.45 g/m*3 0.12 C 0.13333 km/h
1690 19-01-2015 20:00:00 0.425 C 4.46 g/m*3 0.43 C 1.46667 km/h
1691 19-01-2015 21:00:00 0.4 C 4.47 g/m*3 0.4 C 0 km/h
1692 19-01-2015 22:00:00 0.58333 C 4.51 g/m*3 0.58 C 3.6 km/h
1693 19-01-2015 23:00:00 0.39167 C 4.59 g/m*3 0.39 C 3.06667 km/h
1694 20-01-2015 00:00:00 0.23333 C 4.63 g/m*3 0.23 C 0.66667 km/h
1695 20-01-2015 01:00:00 0.23333 C 4.63 g/m*3 0.23 C 0.26667 km/h
1696 20-01-2015 02:00:00 0.34167 C 4.67 g/m*3 0.34 C 0.66667 km/h
1697 20-01-2015 03:00:00 0.4 C 4.73 g/m*3 0.4 C 0 km/h
1698 20-01-2015 04:00:00 0.425 C 4.74 g/m*3 0.43 C 0 km/h
1699 20-01-2015 05:00:00 0.51667 C 4.77 g/m*3 0.52 C 0 km/h
1700 20-01-2015 06:00:00 0.5 C 4.76 g/m*3 0.5 C 0 km/h
Sensor: Nr:Datum:Temp:Abs-Feuchte:Windchill:Wind:
Aussen-T/F 1701 20-01-2015 07:00:00 0.39167 C 4.73 g/m*3 0.39 C 0.26667 km/h
1702 20-01-2015 08:00:00 0.55833 C 4.74 g/m*3 0.56 C 0 km/h
1703 20-01-2015 09:00:00 0.79167 C 4.81 g/m*3 0.79 C 0.26667 km/h
1704 20-01-2015 10:00:00 1.26667 C 4.85 g/m*3 1.27 C 1.46667 km/h
1705 20-01-2015 11:00:00 1.71667 C 4.88 g/m*3 1.72 C 3.06667 km/h
1706 20-01-2015 12:00:00 2.15 C 4.86 g/m*3 2.15 C 2.93333 km/h
1707 20-01-2015 13:00:00 2.40833 C 4.91 g/m*3 2.41 C 4.41667 km/h
1708 20-01-2015 14:00:00 2.08333 C 4.82 g/m*3 0.16 C 6.575 km/h
1709 20-01-2015 15:00:00 1.91667 C 4.83 g/m*3 1.92 C 4.13333 km/h
1710 20-01-2015 16:00:00 1.74167 C 4.8 g/m*3 1.74 C 0.26667 km/h
1711 20-01-2015 17:00:00 1.25833 C 4.75 g/m*3 1.26 C 0 km/h
1712 20-01-2015 18:00:00 1.10833 C 4.74 g/m*3 1.11 C 0.26667 km/h
1713 20-01-2015 19:00:00 1.1 C 4.69 g/m*3 1.1 C 0.53333 km/h
1714 20-01-2015 20:00:00 0.31667 C 4.43 g/m*3 0.32 C 2.93333 km/h
1715 20-01-2015 21:00:00 0.20833 C 4.38 g/m*3 0.21 C 0.4 km/h
1716 20-01-2015 22:00:00 -0.125 C 4.13 g/m*3 -0.13 C 2 km/h
1717 20-01-2015 23:00:00 -0.83333 C 3.89 g/m*3 -0.83 C 0.8 km/h
1718 21-01-2015 00:00:00 -1.38333 C 3.87 g/m*3 -1.38 C 0 km/h
1719 21-01-2015 01:00:00 -1.85833 C 3.79 g/m*3 -1.86 C 0 km/h
1720 21-01-2015 02:00:00 -1.94167 C 3.8 g/m*3 -1.94 C 0 km/h
1721 21-01-2015 03:00:00 -2.19167 C 3.81 g/m*3 -2.19 C 0 km/h
1722 21-01-2015 04:00:00 -1.99167 C 3.88 g/m*3 -1.99 C 0 km/h
1723 21-01-2015 05:00:00 -1.96667 C 3.92 g/m*3 -1.97 C 0 km/h
1724 21-01-2015 06:00:00 -1.90833 C 3.91 g/m*3 -1.91 C 0 km/h
1725 21-01-2015 07:00:00 -2.60833 C 3.73 g/m*3 -2.61 C 0 km/h
Sensor: Nr:Datum:Temp:Abs-Feuchte:Windchill:Wind:
Aussen-T/F 1726 21-01-2015 08:00:00 -2.74167 C 3.73 g/m*3 -2.74 C 0 km/h
1727 21-01-2015 09:00:00 -1.84444 C 4.01 g/m*3 -1.84 C 0 km/h
1728 21-01-2015 10:00:00 -0.20833 C 4.32 g/m*3 -0.21 C 2.13333 km/h
1729 21-01-2015 11:00:00 0.61667 C 4.34 g/m*3 0.62 C 4.4 km/h
1730 21-01-2015 12:00:00 1.04167 C 4.38 g/m*3 1.04 C 4.96667 km/h
1731 21-01-2015 13:00:00 1.26667 C 4.48 g/m*3 -1.01 C 7.24167 km/h
1732 21-01-2015 14:00:00 1.78333 C 4.58 g/m*3 -0.62 C 7.93333 km/h
1733 21-01-2015 15:00:00 2.06667 C 4.63 g/m*3 0.5 C 5.61667 km/h
1734 21-01-2015 16:00:00 1.93333 C 4.61 g/m*3 1.93 C 3.6 km/h
1735 21-01-2015 17:00:00 1.66667 C 4.64 g/m*3 1.67 C 1.06667 km/h
1736 21-01-2015 18:00:00 1.375 C 4.66 g/m*3 1.38 C 0 km/h
1737 21-01-2015 19:00:00 1.45 C 4.75 g/m*3 1.45 C 0.4 km/h
1738 21-01-2015 20:00:00 1.48333 C 4.78 g/m*3 1.48 C 0.26667 km/h
1739 21-01-2015 21:00:00 1.44167 C 4.81 g/m*3 1.44 C 0.66667 km/h
1740 21-01-2015 22:00:00 1.48333 C 4.83 g/m*3 1.48 C 0.4 km/h
1741 21-01-2015 23:00:00 1.59167 C 4.84 g/m*3 1.59 C 0.53333 km/h
1742 22-01-2015 00:00:00 1.7 C 4.75 g/m*3 1.7 C 1.46667 km/h
1743 22-01-2015 01:00:00 1.66667 C 4.69 g/m*3 1.67 C 0.66667 km/h
1744 22-01-2015 02:00:00 1.61667 C 4.62 g/m*3 1.62 C 1.46667 km/h
1745 22-01-2015 03:00:00 1.6 C 4.51 g/m*3 1.6 C 1.86667 km/h
1746 22-01-2015 04:00:00 1.30833 C 4.49 g/m*3 1.31 C 4.15833 km/h
1747 22-01-2015 05:00:00 1.1 C 4.46 g/m*3 1.1 C 1.46667 km/h
1748 22-01-2015 06:00:00 1.1 C 4.46 g/m*3 1.1 C 2.275 km/h
1749 22-01-2015 07:00:00 1.00833 C 4.41 g/m*3 1.01 C 3.34167 km/h
1750 22-01-2015 08:00:00 0.75 C 4.35 g/m*3 -1.44 C 6.73333 km/h
Sensor: Nr:Datum:Temp:Abs-Feuchte:Windchill:Wind:
Aussen-T/F 1751 22-01-2015 09:00:00 0.7 C 4.37 g/m*3 -0.96 C 5.375 km/h
1752 22-01-2015 10:00:00 0.74167 C 4.34 g/m*3 -1.24 C 6.16667 km/h
1753 22-01-2015 11:00:00 1.025 C 4.41 g/m*3 -1.39 C 7.525 km/h
1754 22-01-2015 12:00:00 1.39167 C 4.47 g/m*3 -1.16 C 8.2 km/h
1755 22-01-2015 13:00:00 1.525 C 4.48 g/m*3 -0.33 C 6.16667 km/h
1756 22-01-2015 14:00:00 1.80833 C 4.52 g/m*3 0.31 C 5.35833 km/h
1757 22-01-2015 15:00:00 1.9 C 4.53 g/m*3 1.9 C 4.81667 km/h
1758 22-01-2015 16:00:00 1.9 C 4.55 g/m*3 1.9 C 0.8 km/h
1759 22-01-2015 17:00:00 1.78333 C 4.6 g/m*3 1.78 C 1.06667 km/h
1760 22-01-2015 18:00:00 1.8 C 4.64 g/m*3 1.8 C 1.46667 km/h
1761 22-01-2015 19:00:00 1.8 C 4.61 g/m*3 1.8 C 1.2 km/h
1762 22-01-2015 20:00:00 1.775 C 4.62 g/m*3 1.78 C 0.8 km/h
1763 22-01-2015 21:00:00 1.63333 C 4.69 g/m*3 1.63 C 0 km/h
1764 22-01-2015 22:00:00 1.6 C 4.73 g/m*3 1.6 C 0 km/h
1765 22-01-2015 23:00:00 1.71667 C 4.76 g/m*3 1.72 C 2.95 km/h
1766 23-01-2015 00:00:00 1.7 C 4.75 g/m*3 -0.08 C 6.025 km/h
1767 23-01-2015 01:00:00 1.675 C 4.81 g/m*3 1.68 C 4.14167 km/h
1768 23-01-2015 02:00:00 1.6 C 4.84 g/m*3 1.6 C 1.33333 km/h
1769 23-01-2015 03:00:00 1.63333 C 4.88 g/m*3 1.63 C 2.13333 km/h
1770 23-01-2015 04:00:00 1.65833 C 4.91 g/m*3 1.66 C 3.34167 km/h
1771 23-01-2015 05:00:00 1.6 C 4.91 g/m*3 1.6 C 1.73333 km/h
1772 23-01-2015 06:00:00 1.6 C 4.88 g/m*3 1.6 C 1.2 km/h
1773 23-01-2015 07:00:00 1.60833 C 4.86 g/m*3 1.61 C 1.6 km/h
1774 23-01-2015 08:00:00 1.6 C 4.84 g/m*3 1.6 C 2.93333 km/h
1775 23-01-2015 09:00:00 1.51667 C 4.81 g/m*3 1.52 C 1.06667 km/h
Sensor: Nr:Datum:Temp:Abs-Feuchte:Windchill:Wind:
Aussen-T/F 1776 23-01-2015 10:00:00 1.525 C 4.86 g/m*3 1.53 C 3.075 km/h
1777 23-01-2015 11:00:00 2.35833 C 5.02 g/m*3 2.36 C 2.66667 km/h
1778 23-01-2015 12:00:00 2.875 C 5.04 g/m*3 1.27 C 6.025 km/h
1779 23-01-2015 13:00:00 3.18333 C 5.08 g/m*3 1.58 C 6.16667 km/h
1780 23-01-2015 14:00:00 2.91667 C 5.01 g/m*3 1.42 C 5.75 km/h
1781 23-01-2015 15:00:00 2.725 C 4.96 g/m*3 1.09 C 6.05 km/h
1782 23-01-2015 16:00:00 2.09167 C 4.82 g/m*3 2.09 C 4.14167 km/h
1783 23-01-2015 17:00:00 0.54167 C 4.54 g/m*3 0.54 C 3.33333 km/h
1784 23-01-2015 18:00:00 -0.05833 C 4.45 g/m*3 -0.06 C 2.4 km/h
1785 23-01-2015 19:00:00 -0.225 C 4.44 g/m*3 -0.23 C 0.93333 km/h
1786 23-01-2015 20:00:00 -0.46667 C 4.4 g/m*3 -0.47 C 0.13333 km/h
1787 23-01-2015 21:00:00 -0.69167 C 4.37 g/m*3 -0.69 C 0.4 km/h
1788 23-01-2015 22:00:00 -0.425 C 4.43 g/m*3 -0.43 C 0.4 km/h
1789 23-01-2015 23:00:00 -0.55 C 4.38 g/m*3 -0.55 C 0.26667 km/h
1790 24-01-2015 00:00:00 -0.49167 C 4.4 g/m*3 -0.49 C 1.2 km/h
1791 24-01-2015 01:00:00 -0.68333 C 4.31 g/m*3 -0.68 C 4.68333 km/h
1792 24-01-2015 02:00:00 -1.2 C 4.16 g/m*3 -1.2 C 0.53333 km/h
1793 24-01-2015 03:00:00 -0.69167 C 4.31 g/m*3 -2.55 C 5.36667 km/h
1794 24-01-2015 04:00:00 0.24167 C 4.44 g/m*3 -1.91 C 6.425 km/h
1795 24-01-2015 05:00:00 0.45833 C 4.45 g/m*3 -2.3 C 8.34167 km/h
1796 24-01-2015 06:00:00 0.45 C 4.44 g/m*3 -1.83 C 6.85 km/h
1797 24-01-2015 07:00:00 0.625 C 4.45 g/m*3 0.63 C 4.41667 km/h
1798 24-01-2015 08:00:00 0.98333 C 4.5 g/m*3 -1.48 C 7.66667 km/h
1799 24-01-2015 09:00:00 1.34167 C 4.53 g/m*3 -1.41 C 8.86667 km/h
1800 24-01-2015 10:00:00 1.78333 C 4.55 g/m*3 -1.8 C 12.76667 km/h
Sensor: Nr:Datum:Temp:Abs-Feuchte:Windchill:Wind:
Aussen-T/F 1801 24-01-2015 11:00:00 1.125 C 4.79 g/m*3 -0.52 C 5.48333 km/h
1802 24-01-2015 12:00:00 0.94167 C 4.83 g/m*3 -0.56 C 5.075 km/h
1803 24-01-2015 13:00:00 0.9 C 4.85 g/m*3 0.9 C 0.8 km/h
1804 24-01-2015 14:00:00 1.09167 C 4.91 g/m*3 -0.83 C 6.15833 km/h
1805 24-01-2015 15:00:00 0.94 C 4.91 g/m*3 -1.1 C 6.42 km/h
1806 24-01-2015 17:00:00 1.7 C 5.23 g/m*3 -0.51 C 7.25 km/h
1807 24-01-2015 18:00:00 1.875 C 5.3 g/m*3 0.44 C 5.21667 km/h
1808 24-01-2015 19:00:00 2.36667 C 5.45 g/m*3 0.89 C 5.48333 km/h
1809 24-01-2015 20:00:00 2.69167 C 5.5 g/m*3 1.26 C 5.5 km/h
1810 24-01-2015 21:00:00 2.60833 C 5.45 g/m*3 2.61 C 3.20833 km/h
1811 24-01-2015 22:00:00 2.6 C 5.44 g/m*3 2.6 C 4.55 km/h
1812 24-01-2015 23:00:00 2.65 C 5.41 g/m*3 0.56 C 7.36667 km/h
1813 25-01-2015 00:00:00 2.49167 C 5.33 g/m*3 1.21 C 5.075 km/h
1814 25-01-2015 01:00:00 2.425 C 5.32 g/m*3 2.42 C 4.275 km/h
1815 25-01-2015 02:00:00 2.425 C 5.28 g/m*3 0.75 C 6.03333 km/h
1816 25-01-2015 03:00:00 2.18333 C 5.26 g/m*3 2.18 C 3.06667 km/h
1817 25-01-2015 04:00:00 1.9 C 5.22 g/m*3 1.9 C 4 km/h
1818 25-01-2015 05:00:00 1.85833 C 5.18 g/m*3 1.86 C 3.73333 km/h
1819 25-01-2015 06:00:00 1.13333 C 4.98 g/m*3 1.13 C 0.8 km/h
1820 25-01-2015 07:00:00 0.825 C 4.92 g/m*3 0.83 C 1.6 km/h
1821 25-01-2015 08:00:00 1.21667 C 5.07 g/m*3 1.22 C 0.93333 km/h
1822 25-01-2015 09:00:00 1.68333 C 5.2 g/m*3 1.68 C 4.825 km/h
1823 25-01-2015 10:00:00 2.15833 C 5.23 g/m*3 0.21 C 6.7 km/h
1824 25-01-2015 11:00:00 2.36667 C 5.24 g/m*3 0.27 C 7.25 km/h
1825 25-01-2015 12:00:00 2.16667 C 5.28 g/m*3 2.17 C 4.13333 km/h
Sensor: Nr:Datum:Temp:Abs-Feuchte:Windchill:Wind:
Aussen-T/F 1826 25-01-2015 13:00:00 2.38333 C 5.4 g/m*3 2.38 C 3.73333 km/h
1827 25-01-2015 14:00:00 2.79167 C 5.46 g/m*3 1.49 C 5.2 km/h
1828 25-01-2015 15:00:00 3.05833 C 5.5 g/m*3 1.68 C 5.49167 km/h
1829 25-01-2015 16:00:00 3.075 C 5.52 g/m*3 3.08 C 4.53333 km/h
1830 25-01-2015 17:00:00 2.79167 C 5.53 g/m*3 2.79 C 3.06667 km/h
1831 25-01-2015 18:00:00 2.7 C 5.49 g/m*3 1.28 C 5.46667 km/h
1832 25-01-2015 19:00:00 2.6 C 5.5 g/m*3 2.6 C 2 km/h
1833 25-01-2015 20:00:00 2.34167 C 5.46 g/m*3 2.34 C 2.53333 km/h
1834 25-01-2015 21:00:00 2.20833 C 5.41 g/m*3 0.77 C 5.34167 km/h
1835 25-01-2015 22:00:00 2.01667 C 5.34 g/m*3 0.23 C 6.16667 km/h
1836 25-01-2015 23:00:00 1.86667 C 5.29 g/m*3 0.39 C 5.33333 km/h
1837 26-01-2015 00:00:00 1.875 C 5.33 g/m*3 1.88 C 2.93333 km/h
1838 26-01-2015 01:00:00 1.85833 C 5.34 g/m*3 1.86 C 2.53333 km/h
1839 26-01-2015 02:00:00 1.85833 C 5.34 g/m*3 1.86 C 3.06667 km/h
1840 26-01-2015 03:00:00 2.175 C 5.43 g/m*3 0.74 C 5.33333 km/h
1841 26-01-2015 04:00:00 2.35 C 5.41 g/m*3 0.53 C 6.41667 km/h
1842 26-01-2015 05:00:00 2.4 C 5.4 g/m*3 0.73 C 6.025 km/h
1843 26-01-2015 06:00:00 2.53333 C 5.43 g/m*3 0.6 C 6.83333 km/h
1844 26-01-2015 07:00:00 2.48333 C 5.45 g/m*3 2.48 C 4.8 km/h
1845 26-01-2015 08:00:00 2.475 C 5.48 g/m*3 1.02 C 5.48333 km/h
1846 26-01-2015 09:00:00 2.73333 C 5.55 g/m*3 0.87 C 6.70833 km/h
1847 26-01-2015 10:00:00 2.65833 C 5.52 g/m*3 1.12 C 5.75 km/h
1848 26-01-2015 11:00:00 2.86667 C 5.6 g/m*3 0.36 C 9.00833 km/h
1849 26-01-2015 12:00:00 3.1 C 5.69 g/m*3 0.02 C 11.7 km/h
1850 26-01-2015 13:00:00 3.3 C 5.73 g/m*3 0.57 C 10.23333 km/h
Sensor: Nr:Datum:Temp:Abs-Feuchte:Windchill:Wind:
Aussen-T/F 1851 26-01-2015 14:00:00 3.44167 C 5.76 g/m*3 0.22 C 12.76667 km/h
1852 26-01-2015 15:00:00 3.24167 C 5.74 g/m*3 0.36 C 10.89167 km/h
1853 26-01-2015 16:00:00 3.26667 C 5.74 g/m*3 0.33 C 11.16667 km/h
1854 26-01-2015 17:00:00 3.20833 C 5.73 g/m*3 0.09 C 11.96667 km/h
1855 26-01-2015 18:00:00 3.30833 C 5.77 g/m*3 -0.11 C 13.7 km/h
1856 26-01-2015 19:00:00 3.725 C 5.94 g/m*3 1.18 C 9.80833 km/h
1857 26-01-2015 20:00:00 4.06667 C 6.14 g/m*3 4.07 C 4.40833 km/h
1858 26-01-2015 21:00:00 4.5 C 6.35 g/m*3 3.09 C 6.16667 km/h
1859 26-01-2015 22:00:00 5.13333 C 6.32 g/m*3 3.42 C 7.525 km/h
1860 26-01-2015 23:00:00 4.80833 C 6.06 g/m*3 2.11 C 11.55833 km/h
1861 27-01-2015 00:00:00 3.60833 C 5.76 g/m*3 1.75 C 7.125 km/h
1862 27-01-2015 01:00:00 3.49167 C 5.8 g/m*3 3.49 C 4.275 km/h
1863 27-01-2015 02:00:00 4.00833 C 5.93 g/m*3 2.77 C 5.49167 km/h
1864 27-01-2015 03:00:00 3.90833 C 5.87 g/m*3 3.91 C 4.13333 km/h
1865 27-01-2015 04:00:00 3.71667 C 5.85 g/m*3 3.72 C 4.69167 km/h
1866 27-01-2015 05:00:00 3.25833 C 5.7 g/m*3 3.26 C 3.34167 km/h
1867 27-01-2015 06:00:00 3.44167 C 5.75 g/m*3 3.44 C 4.00833 km/h
1868 27-01-2015 07:00:00 3.44167 C 5.74 g/m*3 3.44 C 3.88333 km/h
1869 27-01-2015 08:00:00 3.725 C 5.71 g/m*3 3.73 C 3.6 km/h
1870 27-01-2015 09:00:00 3.84167 C 5.7 g/m*3 2.73 C 5.09167 km/h
1871 27-01-2015 10:00:00 3.81667 C 5.76 g/m*3 2.55 C 5.49167 km/h
1872 27-01-2015 11:00:00 4.01667 C 5.96 g/m*3 4.02 C 4.41667 km/h
1873 27-01-2015 12:00:00 4.74167 C 6.18 g/m*3 3.71 C 5.21667 km/h
1874 27-01-2015 13:00:00 4.76667 C 6.09 g/m*3 2.95 C 7.65833 km/h
1875 27-01-2015 14:00:00 4.99167 C 6.17 g/m*3 3.58 C 6.425 km/h
Sensor: Nr:Datum:Temp:Abs-Feuchte:Windchill:Wind:
Aussen-T/F 1876 27-01-2015 15:00:00 5.03333 C 6.09 g/m*3 2.8 C 9.55 km/h
1877 27-01-2015 16:00:00 3.9 C 5.85 g/m*3 2.18 C 6.84167 km/h
1878 27-01-2015 17:00:00 3.6 C 5.85 g/m*3 3.6 C 1.73333 km/h
1879 27-01-2015 18:00:00 3.6 C 5.94 g/m*3 3.6 C 1.2 km/h
1880 27-01-2015 19:00:00 3.60833 C 6 g/m*3 3.61 C 1.6 km/h
1881 27-01-2015 20:00:00 3.6 C 6 g/m*3 3.6 C 0.93333 km/h
1882 27-01-2015 21:00:00 3.44167 C 5.94 g/m*3 3.44 C 0.66667 km/h
1883 27-01-2015 22:00:00 3.4 C 5.92 g/m*3 3.4 C 1.6 km/h
1884 27-01-2015 23:00:00 3.49167 C 5.96 g/m*3 3.49 C 4.4 km/h
1885 28-01-2015 00:00:00 3.43333 C 5.9 g/m*3 3.43 C 0.93333 km/h
1886 28-01-2015 01:00:00 2.575 C 5.57 g/m*3 2.58 C 0.53333 km/h
1887 28-01-2015 02:00:00 1.99167 C 5.39 g/m*3 1.99 C 1.73333 km/h
1888 28-01-2015 03:00:00 1.875 C 5.34 g/m*3 1.88 C 1.86667 km/h
1889 28-01-2015 04:00:00 2.08333 C 5.44 g/m*3 2.08 C 1.46667 km/h
1890 28-01-2015 05:00:00 2.3 C 5.5 g/m*3 2.3 C 4.81667 km/h
1891 28-01-2015 06:00:00 2.61667 C 5.58 g/m*3 0.74 C 6.7 km/h
1892 28-01-2015 07:00:00 2.875 C 5.59 g/m*3 2.88 C 3.73333 km/h
1893 28-01-2015 08:00:00 3.3 C 5.72 g/m*3 3.3 C 3.2 km/h
1894 28-01-2015 09:00:00 3.69167 C 5.83 g/m*3 3.69 C 2.675 km/h
1895 28-01-2015 10:00:00 4.26667 C 5.95 g/m*3 4.27 C 3.34167 km/h
1896 28-01-2015 11:00:00 4.98333 C 6.05 g/m*3 3.25 C 7.50833 km/h
1897 28-01-2015 12:00:00 5.64167 C 6.12 g/m*3 3.84 C 8.18333 km/h
1898 28-01-2015 13:00:00 5.9 C 6.1 g/m*3 3.21 C 12.76667 km/h
1899 28-01-2015 14:00:00 6.4 C 5.97 g/m*3 2.78 C 20.5 km/h
1900 28-01-2015 15:00:00 6.24167 C 5.91 g/m*3 2.88 C 17.96667 km/h
Sensor: Nr:Datum:Temp:Abs-Feuchte:Windchill:Wind:
Aussen-T/F 1901 28-01-2015 16:00:00 6.23333 C 5.99 g/m*3 2.45 C 21.575 km/h
1902 28-01-2015 17:00:00 5.56667 C 6.2 g/m*3 3.35 C 9.925 km/h
1903 28-01-2015 18:00:00 5.65 C 6.38 g/m*3 3.82 C 8.325 km/h
1904 28-01-2015 19:00:00 5.9 C 6.44 g/m*3 2.66 C 16.35833 km/h
1905 28-01-2015 20:00:00 5.41667 C 6.35 g/m*3 1.81 C 18.25 km/h
1906 28-01-2015 21:00:00 3.68333 C 5.67 g/m*3 1.97 C 6.7 km/h
1907 28-01-2015 22:00:00 3.45833 C 5.37 g/m*3 1.63 C 6.96667 km/h
1908 28-01-2015 23:00:00 2.75833 C 5.14 g/m*3 1.04 C 6.28333 km/h
1909 29-01-2015 00:00:00 2.39167 C 5.01 g/m*3 0.13 C 7.79167 km/h
1910 29-01-2015 01:00:00 2.79167 C 4.92 g/m*3 -0.44 C 12.1 km/h
1911 29-01-2015 02:00:00 2.18333 C 4.81 g/m*3 -0.27 C 8.31667 km/h
1912 29-01-2015 03:00:00 2.05833 C 4.75 g/m*3 -0.85 C 9.95833 km/h
1913 29-01-2015 04:00:00 1.99167 C 4.68 g/m*3 -1.08 C 10.625 km/h
1914 29-01-2015 05:00:00 1.74167 C 4.71 g/m*3 -1.68 C 11.96667 km/h
1915 29-01-2015 06:00:00 2.125 C 4.82 g/m*3 -2.02 C 16.36667 km/h
1916 29-01-2015 07:00:00 2.41667 C 4.91 g/m*3 -0.32 C 9.55833 km/h
1917 29-01-2015 08:00:00 2.54167 C 4.97 g/m*3 -0.63 C 11.56667 km/h
1918 29-01-2015 09:00:00 2.70833 C 5.07 g/m*3 -0.8 C 13.43333 km/h
1919 29-01-2015 10:00:00 3.16667 C 5.17 g/m*3 -0.04 C 12.36667 km/h
1920 29-01-2015 11:00:00 3.38333 C 5.28 g/m*3 0.67 C 10.23333 km/h
1921 29-01-2015 12:00:00 3.80833 C 5.38 g/m*3 0.64 C 12.89167 km/h
1922 29-01-2015 13:00:00 4.11667 C 5.61 g/m*3 0.51 C 15.96667 km/h
1923 29-01-2015 14:00:00 4.95 C 5.58 g/m*3 1.7 C 14.9 km/h
1924 29-01-2015 15:00:00 5.13333 C 5.68 g/m*3 2.53 C 11.41667 km/h
1925 29-01-2015 16:00:00 4.925 C 5.69 g/m*3 4.93 C 4.55833 km/h
Sensor: Nr:Datum:Temp:Abs-Feuchte:Windchill:Wind:
Aussen-T/F 1926 29-01-2015 17:00:00 3.65 C 5.62 g/m*3 3.65 C 2.4 km/h
1927 29-01-2015 18:00:00 2.94167 C 5.58 g/m*3 2.94 C 2.8 km/h
1928 29-01-2015 19:00:00 3.025 C 5.67 g/m*3 3.03 C 1.46667 km/h
1929 29-01-2015 20:00:00 2.86667 C 5.66 g/m*3 2.87 C 0 km/h
1930 29-01-2015 21:00:00 2.66667 C 5.6 g/m*3 2.67 C 0.4 km/h
1931 29-01-2015 22:00:00 2.675 C 5.62 g/m*3 2.68 C 2.26667 km/h
1932 29-01-2015 23:00:00 2.63333 C 5.57 g/m*3 2.63 C 0.8 km/h
1933 30-01-2015 00:00:00 2.45 C 5.51 g/m*3 2.45 C 0.4 km/h
1934 30-01-2015 01:00:00 2.24167 C 5.44 g/m*3 2.24 C 1.6 km/h
1935 30-01-2015 02:00:00 2.11667 C 5.41 g/m*3 2.12 C 4.03333 km/h
1936 30-01-2015 03:00:00 1.59167 C 5.17 g/m*3 1.59 C 4.95 km/h
1937 30-01-2015 04:00:00 1.71667 C 4.99 g/m*3 -0.26 C 6.575 km/h
1938 30-01-2015 05:00:00 1.6 C 4.78 g/m*3 -0.83 C 7.90833 km/h
1939 30-01-2015 06:00:00 1.66667 C 4.65 g/m*3 -1.41 C 10.35 km/h
1940 30-01-2015 07:00:00 1.625 C 4.66 g/m*3 -1.49 C 10.5 km/h
1941 30-01-2015 08:00:00 1.30833 C 4.78 g/m*3 -1.57 C 9.28333 km/h
1942 30-01-2015 09:00:00 2 C 4.75 g/m*3 -1.74 C 13.83333 km/h
1943 30-01-2015 10:00:00 2.25 C 4.85 g/m*3 -0.93 C 11.3 km/h
1944 30-01-2015 11:00:00 2.80833 C 4.99 g/m*3 -0.65 C 13.3 km/h
1945 30-01-2015 12:00:00 3.05833 C 5.04 g/m*3 0.26 C 10.35833 km/h
1946 30-01-2015 13:00:00 3.21667 C 4.99 g/m*3 0.22 C 11.40833 km/h
1947 30-01-2015 14:00:00 2.85 C 4.94 g/m*3 1.01 C 6.70833 km/h
1948 30-01-2015 15:00:00 2.06667 C 5 g/m*3 2.07 C 3.6 km/h
1949 30-01-2015 16:00:00 1.40833 C 4.93 g/m*3 1.41 C 3.06667 km/h
1950 30-01-2015 17:00:00 1.10833 C 4.95 g/m*3 1.11 C 4 km/h
Sensor: Nr:Datum:Temp:Abs-Feuchte:Windchill:Wind:
Aussen-T/F 1951 30-01-2015 18:00:00 1.26667 C 5.02 g/m*3 1.27 C 2.4 km/h
1952 30-01-2015 19:00:00 1.6 C 5.09 g/m*3 1.6 C 1.46667 km/h
1953 30-01-2015 20:00:00 1.46667 C 5.05 g/m*3 1.47 C 0.26667 km/h
1954 30-01-2015 21:00:00 1.46667 C 5.04 g/m*3 1.47 C 0.8 km/h
1955 30-01-2015 22:00:00 1.65 C 4.95 g/m*3 1.65 C 2.675 km/h
1956 30-01-2015 23:00:00 1.68333 C 4.89 g/m*3 1.68 C 2.53333 km/h
1957 31-01-2015 00:00:00 1.60833 C 4.77 g/m*3 -0.08 C 5.75833 km/h
1958 31-01-2015 01:00:00 1.98333 C 4.75 g/m*3 -1.21 C 11.15 km/h
1959 31-01-2015 02:00:00 2.05833 C 4.68 g/m*3 -1.38 C 12.36667 km/h
1960 31-01-2015 03:00:00 1.91667 C 4.76 g/m*3 -2.06 C 15.03333 km/h
1961 31-01-2015 04:00:00 1.90833 C 4.86 g/m*3 -1.85 C 13.83333 km/h
1962 31-01-2015 05:00:00 1.775 C 4.89 g/m*3 -1.28 C 10.35 km/h
1963 31-01-2015 06:00:00 1.84167 C 4.93 g/m*3 -0.93 C 9.275 km/h
1964 31-01-2015 07:00:00 1.35833 C 4.8 g/m*3 -0.81 C 6.96667 km/h
1965 31-01-2015 08:00:00 1.34167 C 4.82 g/m*3 -0.55 C 6.16667 km/h
1966 31-01-2015 09:00:00 1.68333 C 4.88 g/m*3 0.17 C 5.35833 km/h
1967 31-01-2015 10:00:00 2.28333 C 4.88 g/m*3 -0.97 C 11.7 km/h
1968 31-01-2015 11:00:00 2.88333 C 4.89 g/m*3 -0.63 C 13.7 km/h
1969 31-01-2015 12:00:00 3.59167 C 4.89 g/m*3 0.45 C 12.5 km/h
1970 31-01-2015 13:00:00 3.75 C 5.09 g/m*3 1.28 C 9.4875 km/h
1971 31-01-2015 14:00:00 4 C 6.36 g/m*3 1.44 C 10.1 km/h
1972 31-01-2015 15:00:00 4 C 5.07 g/m*3 1.43 C 10.17 km/h
1973 31-01-2015 16:00:00 3.36667 C 4.97 g/m*3 1.69 C 6.44167 km/h
1974 31-01-2015 17:00:00 1.575 C 4.77 g/m*3 1.58 C 3.73333 km/h
1975 31-01-2015 18:00:00 1 C 4.81 g/m*3 1 C 1.92 km/h
Sensor: Nr:Datum:Temp:Abs-Feuchte:Windchill:Wind:
Aussen-T/F 1976 31-01-2015 19:00:00 1.40833 C 4.9 g/m*3 1.41 C 2.26667 km/h
1977 31-01-2015 20:00:00 1.775 C 4.99 g/m*3 1.78 C 1.2 km/h
1978 31-01-2015 21:00:00 0.975 C 4.81 g/m*3 0.98 C 2.13333 km/h
1979 31-01-2015 22:00:00 0.77778 C 4.81 g/m*3 0.78 C 1.77778 km/h
1980 01-02-2015 08:00:00 0.65 C 4.54 g/m*3 0.65 C 2.4 km/h
1981 01-02-2015 09:00:00 0.47143 C 4.55 g/m*3 0.47 C 2.28571 km/h
1982 01-02-2015 10:00:00 1.55 C 4.75 g/m*3 -1.09 C 8.60833 km/h
1983 01-02-2015 11:00:00 1.84167 C 4.92 g/m*3 -0.39 C 7.38333 km/h
1984 01-02-2015 12:00:00 1.35833 C 5.05 g/m*3 1.36 C 3.06667 km/h
1985 01-02-2015 13:00:00 2.3 C 5.4 g/m*3 0.88 C 5.34167 km/h
1986 01-02-2015 14:00:00 3.26667 C 5.65 g/m*3 1.98 C 5.33333 km/h
1987 01-02-2015 15:00:00 3.87143 C 5.8 g/m*3 3.87 C 3.2 km/h
1988 01-02-2015 16:00:00 3.71667 C 5.5 g/m*3 3.72 C 3.60833 km/h
1989 01-02-2015 17:00:00 3.24 C 5.44 g/m*3 3.24 C 4.18 km/h
1990 01-02-2015 20:00:00 1.63636 C 5.24 g/m*3 1.64 C 0 km/h
1991 01-02-2015 21:00:00 1.38 C 5.16 g/m*3 1.38 C 2.56 km/h
1992 01-02-2015 22:00:00 1.66667 C 5.27 g/m*3 0.27 C 5.075 km/h
1993 01-02-2015 23:00:00 1.79167 C 5.31 g/m*3 1.79 C 2.13333 km/h
1994 02-02-2015 00:00:00 1.9 C 5.35 g/m*3 1.9 C 2.675 km/h
1995 02-02-2015 01:00:00 2.03333 C 5.4 g/m*3 2.03 C 2.13333 km/h
1996 02-02-2015 02:00:00 2 C 5.39 g/m*3 2 C 3.2 km/h
1997 02-02-2015 03:00:00 2.125 C 5.44 g/m*3 2.13 C 2.4 km/h
1998 02-02-2015 04:00:00 2.25 C 5.44 g/m*3 2.25 C 2.66667 km/h
1999 02-02-2015 05:00:00 2.19167 C 5.4 g/m*3 2.19 C 0.93333 km/h
2000 02-02-2015 06:00:00 2.08333 C 5.29 g/m*3 2.08 C 3.475 km/h
Sensor: Nr:Datum:Temp:Abs-Feuchte:Windchill:Wind:
Aussen-T/F 2001 02-02-2015 07:00:00 1.9 C 5.19 g/m*3 1.9 C 3.86667 km/h
2002 02-02-2015 08:00:00 1.83333 C 5.21 g/m*3 1.83 C 3.475 km/h
2003 02-02-2015 09:00:00 1.9875 C 5.16 g/m*3 0.17 C 6.25 km/h
2004 02-02-2015 11:00:00 2.7 C 5.1 g/m*3 0.33 C 8.38 km/h
2005 02-02-2015 12:00:00 2.53333 C 5.18 g/m*3 0.34 C 7.65 km/h
2006 02-02-2015 13:00:00 3.50833 C 5.11 g/m*3 0.68 C 10.89167 km/h
2007 02-02-2015 14:00:00 3.83333 C 5 g/m*3 0.46 C 14.1 km/h
2008 02-02-2015 15:00:00 3.375 C 4.89 g/m*3 0.22 C 12.35833 km/h
2009 02-02-2015 16:00:00 3.05 C 4.76 g/m*3 -0.77 C 15.7 km/h
2010 02-02-2015 17:00:00 2.61 C 4.77 g/m*3 -0.46 C 11.14 km/h
2011 02-02-2015 18:00:00 2.40909 C 4.73 g/m*3 0.16 C 7.76364 km/h
2012 02-02-2015 19:00:00 2.225 C 4.74 g/m*3 0.11 C 7.23333 km/h
2013 02-02-2015 20:00:00 2.15833 C 4.73 g/m*3 -0.14 C 7.79167 km/h
2014 02-02-2015 21:00:00 1.925 C 4.68 g/m*3 -0.37 C 7.65833 km/h
2015 02-02-2015 22:00:00 1.4 C 4.53 g/m*3 -0.56 C 6.4 km/h
2016 02-02-2015 23:00:00 1.525 C 4.52 g/m*3 -0.38 C 6.29167 km/h
2017 03-02-2015 00:00:00 1.625 C 4.55 g/m*3 1.63 C 4.14167 km/h
2018 03-02-2015 01:00:00 1.38333 C 4.57 g/m*3 1.38 C 2.53333 km/h
2019 03-02-2015 02:00:00 1.04167 C 4.54 g/m*3 1.04 C 2 km/h
2020 03-02-2015 03:00:00 0.71667 C 4.49 g/m*3 0.72 C 2.26667 km/h
2021 03-02-2015 04:00:00 0.56667 C 4.5 g/m*3 0.57 C 1.06667 km/h
2022 03-02-2015 05:00:00 0.61667 C 4.5 g/m*3 0.62 C 0.53333 km/h
2023 03-02-2015 06:00:00 0.59167 C 4.48 g/m*3 0.59 C 0.8 km/h
2024 03-02-2015 07:00:00 0.60833 C 4.45 g/m*3 0.61 C 1.73333 km/h
2025 03-02-2015 08:00:00 0.4 C 4.43 g/m*3 0.4 C 0 km/h
Sensor: Nr:Datum:Temp:Abs-Feuchte:Windchill:Wind:
Aussen-T/F 2026 03-02-2015 12:00:00 2.5 C 5.75 g/m*3 0.06 C 8.475 km/h
2027 03-02-2015 16:00:00 2.89091 C 5.16 g/m*3 2.89 C 1.6 km/h
2028 03-02-2015 17:00:00 1.11111 C 4.8 g/m*3 1.11 C 3.2 km/h
2029 03-02-2015 18:00:00 0.7 C 4.75 g/m*3 0.7 C 3.46667 km/h
2030 03-02-2015 19:00:00 0.65833 C 4.81 g/m*3 0.66 C 1.6 km/h
2031 03-02-2015 20:00:00 0.89167 C 4.89 g/m*3 0.89 C 0.53333 km/h
2032 03-02-2015 21:00:00 1.025 C 4.92 g/m*3 1.02 C 1.46667 km/h
2033 03-02-2015 22:00:00 0.09167 C 4.61 g/m*3 0.09 C 1.33333 km/h
2034 03-02-2015 23:00:00 -0.50833 C 4.46 g/m*3 -0.51 C 0.66667 km/h
2035 04-02-2015 00:00:00 -0.4 C 4.52 g/m*3 -0.4 C 0.26667 km/h
2036 04-02-2015 01:00:00 -0.08333 C 4.65 g/m*3 -0.08 C 1.73333 km/h
2037 04-02-2015 02:00:00 0.31667 C 4.78 g/m*3 0.32 C 1.06667 km/h
2038 04-02-2015 03:00:00 0.25833 C 4.73 g/m*3 0.26 C 1.33333 km/h
2039 04-02-2015 04:00:00 0.46667 C 4.64 g/m*3 0.47 C 4.025 km/h
2040 04-02-2015 05:00:00 0.5 C 4.54 g/m*3 0.5 C 3.73333 km/h
2041 04-02-2015 06:00:00 0.1 C 4.32 g/m*3 0.1 C 4.15 km/h
2042 04-02-2015 07:00:00 -0.56667 C 4.16 g/m*3 -0.57 C 2.13333 km/h
2043 04-02-2015 08:00:00 -0.7 C 4.06 g/m*3 -0.7 C 1.06667 km/h
2044 04-02-2015 10:00:00 -0.03333 C 4.04 g/m*3 -4.36 C 14.5 km/h
2045 04-02-2015 11:00:00 0.50833 C 3.91 g/m*3 -3.27 C 12.36667 km/h
2046 04-02-2015 12:00:00 0.94167 C 3.92 g/m*3 -2.74 C 12.36667 km/h
2047 04-02-2015 13:00:00 1.41667 C 4.01 g/m*3 -1.5 C 9.53333 km/h
2048 04-02-2015 14:00:00 2.36667 C 4.2 g/m*3 -0.06 C 8.34167 km/h
2049 04-02-2015 15:00:00 3.15 C 4.26 g/m*3 0.65 C 9.15 km/h
2050 04-02-2015 16:00:00 2.15833 C 4.2 g/m*3 -0.22 C 8.05833 km/h
Sensor: Nr:Datum:Temp:Abs-Feuchte:Windchill:Wind:
Aussen-T/F 2051 04-02-2015 17:00:00 0.44167 C 4.18 g/m*3 0.44 C 1.33333 km/h
2052 04-02-2015 18:00:00 -0.425 C 4.13 g/m*3 -0.43 C 4.4 km/h
2053 04-02-2015 19:00:00 -1.10833 C 4.06 g/m*3 -1.11 C 1.73333 km/h
2054 04-02-2015 20:00:00 -1.63333 C 4 g/m*3 -1.63 C 0 km/h
2055 04-02-2015 21:00:00 -2.05833 C 3.91 g/m*3 -2.06 C 0 km/h
2056 04-02-2015 22:00:00 -2.45833 C 3.84 g/m*3 -2.46 C 0.13333 km/h
2057 04-02-2015 23:00:00 -2.625 C 3.8 g/m*3 -2.63 C 0.93333 km/h
2058 05-02-2015 00:00:00 -2.86667 C 3.73 g/m*3 -2.87 C 1.46667 km/h
2059 05-02-2015 01:00:00 -3.39167 C 3.62 g/m*3 -3.39 C 0.26667 km/h
2060 05-02-2015 02:00:00 -3.70833 C 3.55 g/m*3 -3.71 C 1.46667 km/h
2061 05-02-2015 03:00:00 -3.76667 C 3.49 g/m*3 -3.77 C 2.8 km/h
2062 05-02-2015 04:00:00 -4.19167 C 3.38 g/m*3 -4.19 C 2.53333 km/h
2063 05-02-2015 05:00:00 -4.35 C 3.33 g/m*3 -4.35 C 1.2 km/h
2064 05-02-2015 06:00:00 -4.56667 C 3.29 g/m*3 -4.57 C 0.13333 km/h
2065 05-02-2015 07:00:00 -3.9 C 3.48 g/m*3 -3.9 C 0.66667 km/h
2066 05-02-2015 17:00:00 0.81667 C 3.63 g/m*3 -3.32 C 14.5 km/h
2067 05-02-2015 18:00:00 0.65833 C 3.67 g/m*3 -3.38 C 13.83333 km/h
2068 05-02-2015 19:00:00 0.49167 C 3.7 g/m*3 -3.2 C 11.96667 km/h
2069 05-02-2015 20:00:00 0.625 C 3.57 g/m*3 -3.4 C 13.7 km/h
2070 05-02-2015 21:00:00 0.325 C 3.49 g/m*3 -3.71 C 13.43333 km/h
2071 05-02-2015 22:00:00 0.00833 C 3.47 g/m*3 -3.56 C 11.025 km/h
2072 05-02-2015 23:00:00 -0.2 C 3.53 g/m*3 -3.36 C 9.275 km/h
2073 06-02-2015 00:00:00 -0.08333 C 3.56 g/m*3 -3.29 C 9.55 km/h
2074 06-02-2015 01:00:00 -0.06667 C 3.57 g/m*3 -4.32 C 14.09167 km/h
2075 06-02-2015 02:00:00 -0.10833 C 3.59 g/m*3 -3.6 C 10.625 km/h
Sensor: Nr:Datum:Temp:Abs-Feuchte:Windchill:Wind:
Aussen-T/F 2076 06-02-2015 03:00:00 -0.55 C 3.46 g/m*3 -4.02 C 10.19167 km/h
2077 06-02-2015 04:00:00 -0.55833 C 3.47 g/m*3 -3.49 C 8.31667 km/h
2078 06-02-2015 05:00:00 -0.40833 C 3.49 g/m*3 -3.71 C 9.66667 km/h
2079 06-02-2015 06:00:00 -0.63333 C 3.45 g/m*3 -3.91 C 9.41667 km/h
2080 06-02-2015 07:00:00 -0.64167 C 3.46 g/m*3 -3.96 C 9.55 km/h
2081 06-02-2015 08:00:00 -0.25833 C 3.5 g/m*3 -4.2 C 12.36667 km/h
2082 06-02-2015 09:00:00 0.06667 C 3.53 g/m*3 -3.8 C 12.35833 km/h
2083 06-02-2015 10:00:00 0.28333 C 3.51 g/m*3 -4.05 C 14.90833 km/h
2084 06-02-2015 11:00:00 0.61667 C 3.53 g/m*3 -3.78 C 15.7 km/h
2085 06-02-2015 12:00:00 1.50833 C 3.54 g/m*3 -2.42 C 14.23333 km/h
2086 06-02-2015 13:00:00 2.51667 C 3.55 g/m*3 -1.76 C 17.83333 km/h
2087 06-02-2015 14:00:00 3.35 C 3.55 g/m*3 -0.67 C 17.45 km/h
2088 06-02-2015 15:00:00 3.75833 C 3.41 g/m*3 1.41 C 9 km/h
2089 06-02-2015 16:00:00 2.95 C 3.29 g/m*3 -0.27 C 12.2 km/h
2090 06-02-2015 17:00:00 1.41667 C 3.34 g/m*3 -0.88 C 7.38333 km/h
2091 06-02-2015 18:00:00 0.20833 C 3.35 g/m*3 -1.4 C 5.09167 km/h
2092 06-02-2015 19:00:00 -0.35 C 3.39 g/m*3 -0.35 C 2.8 km/h
2093 06-02-2015 20:00:00 -0.45833 C 3.42 g/m*3 -0.46 C 4.00833 km/h
2094 06-02-2015 21:00:00 -0.46667 C 3.41 g/m*3 -0.47 C 4.69167 km/h
2095 06-02-2015 22:00:00 -0.88333 C 3.41 g/m*3 -3.06 C 6.04167 km/h
2096 06-02-2015 23:00:00 -1.09167 C 3.31 g/m*3 -4 C 7.925 km/h
2097 07-02-2015 00:00:00 -1.31667 C 3.26 g/m*3 -4.91 C 10.08333 km/h
2098 07-02-2015 01:00:00 -1.71667 C 3.21 g/m*3 -3.71 C 5.35833 km/h
2099 07-02-2015 02:00:00 -3.00833 C 3.18 g/m*3 -3.01 C 4.13333 km/h
2100 07-02-2015 03:00:00 -3.43333 C 3.17 g/m*3 -3.43 C 4.8 km/h
Sensor: Nr:Datum:Temp:Abs-Feuchte:Windchill:Wind:
Aussen-T/F 2101 07-02-2015 04:00:00 -3.65 C 3.1 g/m*3 -3.65 C 4.26667 km/h
2102 07-02-2015 05:00:00 -3.81667 C 3.1 g/m*3 -3.82 C 4.93333 km/h
2103 07-02-2015 06:00:00 -3.89167 C 3.07 g/m*3 -3.89 C 4.53333 km/h
2104 07-02-2015 07:00:00 -4.63333 C 3.01 g/m*3 -4.63 C 0 km/h
2105 07-02-2015 08:00:00 -4.95 C 3.01 g/m*3 -4.95 C 0.4 km/h
2106 07-02-2015 09:00:00 -4.40833 C 3.12 g/m*3 -4.41 C 1.2 km/h
2107 07-02-2015 10:00:00 -3.25833 C 3.27 g/m*3 -3.26 C 2.66667 km/h
2108 07-02-2015 11:00:00 -2.2 C 3.46 g/m*3 -2.2 C 4.00833 km/h
2109 07-02-2015 12:00:00 -0.93333 C 3.61 g/m*3 -0.93 C 3.06667 km/h
2110 07-02-2015 13:00:00 -0.04167 C 3.8 g/m*3 -0.04 C 3.6 km/h
2111 07-02-2015 14:00:00 1.73333 C 4.05 g/m*3 1.73 C 4 km/h
2112 07-02-2015 15:00:00 2.48333 C 4.09 g/m*3 2.48 C 4.13333 km/h
2113 07-02-2015 16:00:00 3.525 C 3.74 g/m*3 0.64 C 11.15 km/h
2114 07-02-2015 17:00:00 2.38333 C 3.83 g/m*3 2.38 C 4.28333 km/h
2115 07-02-2015 18:00:00 2.01667 C 4.2 g/m*3 2.02 C 3.06667 km/h
2116 07-02-2015 19:00:00 2.69167 C 4.42 g/m*3 2.69 C 4.675 km/h
2117 07-02-2015 20:00:00 2.675 C 4.88 g/m*3 0.85 C 6.575 km/h
2118 07-02-2015 21:00:00 2.64167 C 5.29 g/m*3 1.26 C 5.35 km/h
2119 07-02-2015 22:00:00 2.75833 C 5.49 g/m*3 1.34 C 5.48333 km/h
2120 07-02-2015 23:00:00 3.19167 C 5.68 g/m*3 0.41 C 10.36667 km/h
2121 08-02-2015 00:00:00 3.48333 C 5.77 g/m*3 1.23 C 8.45833 km/h
2122 08-02-2015 01:00:00 3.875 C 5.87 g/m*3 1.21 C 10.48333 km/h
2123 08-02-2015 02:00:00 3.96667 C 5.85 g/m*3 1.9 C 8.06667 km/h
2124 08-02-2015 03:00:00 3.68333 C 5.8 g/m*3 1.85 C 7.10833 km/h
2125 08-02-2015 04:00:00 4.15 C 5.71 g/m*3 1.08 C 12.76667 km/h
Sensor: Nr:Datum:Temp:Abs-Feuchte:Windchill:Wind:
Aussen-T/F 2126 08-02-2015 05:00:00 4.29167 C 5.53 g/m*3 1 C 14.23333 km/h
2127 08-02-2015 06:00:00 4.25833 C 5.39 g/m*3 1.44 C 11.55833 km/h
2128 08-02-2015 07:00:00 3.625 C 5.38 g/m*3 0.68 C 11.55 km/h
2129 08-02-2015 08:00:00 3.26667 C 5.17 g/m*3 0.64 C 9.79167 km/h
2130 08-02-2015 09:00:00 3.55833 C 5.07 g/m*3 0.83 C 10.475 km/h
2131 08-02-2015 10:00:00 3.325 C 5.27 g/m*3 -0.19 C 14.23333 km/h
2132 08-02-2015 11:00:00 3.93333 C 5.07 g/m*3 -0.24 C 19.7 km/h
2133 08-02-2015 12:00:00 4.11667 C 4.85 g/m*3 0.31 C 17.3 km/h
2134 08-02-2015 13:00:00 4.71667 C 4.52 g/m*3 0.95 C 18.1 km/h
2135 08-02-2015 14:00:00 4.89167 C 4.42 g/m*3 1.02 C 19.3 km/h
2136 08-02-2015 15:00:00 4.80833 C 4.13 g/m*3 1.14 C 17.56667 km/h
2137 08-02-2015 16:00:00 4.225 C 3.91 g/m*3 0.96 C 13.95833 km/h
2138 08-02-2015 17:00:00 3.125 C 4.17 g/m*3 3.13 C 4.95 km/h
2139 08-02-2015 18:00:00 1.46667 C 4.25 g/m*3 1.47 C 3.06667 km/h
2140 08-02-2015 19:00:00 1.19167 C 4.26 g/m*3 1.19 C 3.46667 km/h
2141 08-02-2015 20:00:00 0.65 C 4.23 g/m*3 0.65 C 2.8 km/h
2142 08-02-2015 21:00:00 0.13333 C 4.3 g/m*3 0.13 C 2.4 km/h
2143 08-02-2015 22:00:00 0.65 C 4.47 g/m*3 0.65 C 2.13333 km/h
2144 08-02-2015 23:00:00 1.275 C 4.65 g/m*3 1.27 C 3.46667 km/h
2145 09-02-2015 00:00:00 1.425 C 4.68 g/m*3 1.43 C 1.46667 km/h
2146 09-02-2015 01:00:00 1.50833 C 4.8 g/m*3 1.51 C 1.33333 km/h
2147 09-02-2015 02:00:00 1.7 C 4.9 g/m*3 1.7 C 1.2 km/h
2148 09-02-2015 03:00:00 1.825 C 4.96 g/m*3 1.83 C 2.4 km/h
2149 09-02-2015 04:00:00 2.41667 C 5.23 g/m*3 2.42 C 3.46667 km/h
2150 09-02-2015 05:00:00 2.35833 C 5.27 g/m*3 2.36 C 2.53333 km/h
Sensor: Nr:Datum:Temp:Abs-Feuchte:Windchill:Wind:
Aussen-T/F 2151 09-02-2015 06:00:00 2.725 C 5.34 g/m*3 2.73 C 2.8 km/h
2152 09-02-2015 07:00:00 3.375 C 5.51 g/m*3 1.66 C 6.58333 km/h
2153 09-02-2015 08:00:00 4.30833 C 5.7 g/m*3 1.7 C 10.61667 km/h
2154 09-02-2015 09:00:00 4.65833 C 5.61 g/m*3 2.64 C 8.34167 km/h
2155 09-02-2015 10:00:00 4.84167 C 5.8 g/m*3 2.97 C 7.925 km/h
2156 09-02-2015 11:00:00 4.75 C 6.03 g/m*3 3.13 C 6.975 km/h
2157 09-02-2015 12:00:00 5.54167 C 6.24 g/m*3 3.62 C 8.59167 km/h
2158 09-02-2015 13:00:00 5.825 C 6.36 g/m*3 3.54 C 10.48333 km/h
2159 09-02-2015 14:00:00 5.53333 C 6.34 g/m*3 4.04 C 6.98333 km/h
2160 09-02-2015 15:00:00 5.25 C 6.33 g/m*3 3.96 C 6.16667 km/h
2161 09-02-2015 16:00:00 5.09167 C 6.36 g/m*3 5.09 C 4.54167 km/h
2162 09-02-2015 17:00:00 4.91667 C 6.3 g/m*3 4.92 C 3.73333 km/h
2163 09-02-2015 18:00:00 5.075 C 6.35 g/m*3 5.08 C 4.81667 km/h
2164 09-02-2015 19:00:00 5.075 C 6.38 g/m*3 5.08 C 3.60833 km/h
2165 09-02-2015 20:00:00 5 C 6.35 g/m*3 5 C 1.86667 km/h
2166 09-02-2015 21:00:00 4.98333 C 6.4 g/m*3 4.98 C 2 km/h
2167 09-02-2015 22:00:00 4.7 C 6.37 g/m*3 4.7 C 1.73333 km/h
2168 09-02-2015 23:00:00 4.7 C 6.39 g/m*3 4.7 C 2.66667 km/h
2169 10-02-2015 00:00:00 4.51667 C 6.28 g/m*3 4.52 C 1.06667 km/h
2170 10-02-2015 01:00:00 4.24167 C 6.21 g/m*3 4.24 C 0.8 km/h
2171 10-02-2015 02:00:00 4.2 C 6.2 g/m*3 4.2 C 2.13333 km/h
2172 10-02-2015 03:00:00 4.28333 C 6.23 g/m*3 4.28 C 1.33333 km/h
2173 10-02-2015 04:00:00 4.26667 C 6.26 g/m*3 4.27 C 0.8 km/h
2174 10-02-2015 05:00:00 4.275 C 6.28 g/m*3 4.28 C 0.26667 km/h
2175 10-02-2015 06:00:00 4.23333 C 6.26 g/m*3 4.23 C 0.13333 km/h
Sensor: Nr:Datum:Temp:Abs-Feuchte:Windchill:Wind:
Aussen-T/F 2176 10-02-2015 07:00:00 4.39167 C 6.33 g/m*3 4.39 C 0.93333 km/h
2177 10-02-2015 08:00:00 4.41667 C 6.34 g/m*3 4.42 C 1.06667 km/h
2178 10-02-2015 09:00:00 4.66667 C 6.45 g/m*3 4.67 C 0.13333 km/h
2179 10-02-2015 10:00:00 5.10833 C 6.63 g/m*3 5.11 C 1.46667 km/h
2180 10-02-2015 11:00:00 5.70833 C 6.72 g/m*3 5.71 C 1.6 km/h
2181 10-02-2015 12:00:00 6.05 C 6.44 g/m*3 3.92 C 9.95 km/h
2182 10-02-2015 13:00:00 6.31667 C 6.33 g/m*3 4.73 C 7.8 km/h
2183 10-02-2015 14:00:00 6.2 C 6.31 g/m*3 6.2 C 4.53333 km/h
2184 10-02-2015 15:00:00 6.10833 C 6.21 g/m*3 6.11 C 4.80833 km/h
2185 10-02-2015 16:00:00 5.85 C 6.07 g/m*3 4.48 C 6.70833 km/h
2186 10-02-2015 17:00:00 5.65 C 6.01 g/m*3 4.64 C 5.49167 km/h
2187 10-02-2015 18:00:00 5.45 C 6 g/m*3 5.45 C 4.00833 km/h
2188 10-02-2015 19:00:00 5.23333 C 6 g/m*3 5.23 C 2.675 km/h
2189 10-02-2015 20:00:00 4.94167 C 5.87 g/m*3 4.94 C 2.4 km/h
2190 10-02-2015 21:00:00 4.675 C 5.86 g/m*3 4.68 C 0.53333 km/h
2191 10-02-2015 22:00:00 4.28333 C 5.92 g/m*3 4.28 C 0 km/h
2192 10-02-2015 23:00:00 4.1 C 5.89 g/m*3 4.1 C 0 km/h
2193 11-02-2015 00:00:00 3.95 C 5.88 g/m*3 3.95 C 0 km/h
2194 11-02-2015 01:00:00 3.9 C 5.86 g/m*3 3.9 C 0.4 km/h
2195 11-02-2015 02:00:00 3.9 C 5.8 g/m*3 3.9 C 0.4 km/h
2196 11-02-2015 03:00:00 3.85833 C 5.71 g/m*3 3.86 C 0.4 km/h
2197 11-02-2015 04:00:00 3.825 C 5.6 g/m*3 3.83 C 1.46667 km/h
2198 11-02-2015 05:00:00 3.74167 C 5.58 g/m*3 3.74 C 0.8 km/h
2199 11-02-2015 06:00:00 3.68333 C 5.49 g/m*3 3.68 C 3.6 km/h
2200 11-02-2015 07:00:00 3.475 C 5.38 g/m*3 3.48 C 2.66667 km/h
Sensor: Nr:Datum:Temp:Abs-Feuchte:Windchill:Wind:
Aussen-T/F 2201 11-02-2015 08:00:00 3.4 C 5.37 g/m*3 3.4 C 1.86667 km/h
2202 11-02-2015 09:00:00 3.50833 C 5.4 g/m*3 3.51 C 2.8 km/h
2203 11-02-2015 10:00:00 3.675 C 5.37 g/m*3 3.68 C 4.28333 km/h
2204 11-02-2015 11:00:00 4.03333 C 5.42 g/m*3 2.9 C 5.21667 km/h
2205 11-02-2015 12:00:00 4.33333 C 5.44 g/m*3 3.14 C 5.48333 km/h
2206 11-02-2015 13:00:00 4.775 C 5.55 g/m*3 3 C 7.525 km/h
2207 11-02-2015 14:00:00 5.26667 C 5.61 g/m*3 3.77 C 6.85 km/h
2208 11-02-2015 15:00:00 5.29167 C 5.62 g/m*3 4.29 C 5.33333 km/h
2209 11-02-2015 16:00:00 4.825 C 5.53 g/m*3 4.83 C 3.475 km/h
2210 11-02-2015 17:00:00 4.03333 C 5.42 g/m*3 4.03 C 1.6 km/h
2211 11-02-2015 18:00:00 3.34167 C 5.32 g/m*3 3.34 C 2.13333 km/h
2212 11-02-2015 19:00:00 3.15833 C 5.24 g/m*3 3.16 C 3.60833 km/h
2213 11-02-2015 20:00:00 3.10833 C 5.24 g/m*3 3.11 C 1.6 km/h
2214 11-02-2015 21:00:00 3.05 C 5.23 g/m*3 3.05 C 3.60833 km/h
2215 11-02-2015 22:00:00 2.95 C 5.2 g/m*3 2.95 C 2.94167 km/h
2216 11-02-2015 23:00:00 2.81667 C 5.22 g/m*3 2.82 C 1.2 km/h
2217 12-02-2015 00:00:00 2.8 C 5.26 g/m*3 2.8 C 1.06667 km/h
2218 12-02-2015 01:00:00 2.86667 C 5.3 g/m*3 2.87 C 0.53333 km/h
2219 12-02-2015 02:00:00 2.84167 C 5.29 g/m*3 2.84 C 0.26667 km/h
2220 12-02-2015 03:00:00 2.8 C 5.27 g/m*3 2.8 C 0.66667 km/h
2221 12-02-2015 04:00:00 2.775 C 5.26 g/m*3 2.78 C 1.86667 km/h
2222 12-02-2015 05:00:00 2.69167 C 5.23 g/m*3 2.69 C 1.46667 km/h
2223 12-02-2015 06:00:00 2.58333 C 5.18 g/m*3 2.58 C 1.46667 km/h
2224 12-02-2015 07:00:00 2.44167 C 5.14 g/m*3 2.44 C 0.53333 km/h
2225 12-02-2015 08:00:00 2.4 C 5.14 g/m*3 2.4 C 0.93333 km/h
Sensor: Nr:Datum:Temp:Abs-Feuchte:Windchill:Wind:
Aussen-T/F 2226 12-02-2015 09:00:00 2.525 C 5.18 g/m*3 2.53 C 2.26667 km/h
2227 12-02-2015 10:00:00 2.65833 C 5.22 g/m*3 2.66 C 4.14167 km/h
2228 12-02-2015 11:00:00 2.93333 C 5.26 g/m*3 1.7 C 5.08333 km/h
2229 12-02-2015 12:00:00 3.30833 C 5.33 g/m*3 2.07 C 5.225 km/h
2230 12-02-2015 13:00:00 3.89167 C 5.45 g/m*3 2.79 C 5.08333 km/h
2231 12-02-2015 14:00:00 4.98333 C 5.68 g/m*3 3.88 C 5.49167 km/h
2232 12-02-2015 15:00:00 5.3 C 5.67 g/m*3 3.58 C 7.65 km/h
2233 12-02-2015 16:00:00 4.64167 C 5.54 g/m*3 4.64 C 4.4 km/h
2234 12-02-2015 17:00:00 3.44167 C 5.31 g/m*3 1.44 C 7.50833 km/h
2235 12-02-2015 18:00:00 2.30833 C 5.11 g/m*3 0.93 C 5.225 km/h
2236 12-02-2015 19:00:00 1.35833 C 4.87 g/m*3 1.36 C 1.46667 km/h
2237 12-02-2015 20:00:00 0.73333 C 4.79 g/m*3 0.73 C 0.8 km/h
2238 12-02-2015 21:00:00 1.1 C 4.92 g/m*3 1.1 C 0.13333 km/h
2239 12-02-2015 22:00:00 1.2 C 4.96 g/m*3 1.2 C 0.53333 km/h
2240 12-02-2015 23:00:00 1.55 C 5.08 g/m*3 1.55 C 0.26667 km/h
2241 13-02-2015 00:00:00 1.73333 C 5.07 g/m*3 1.73 C 0.13333 km/h
2242 13-02-2015 01:00:00 1.675 C 5.05 g/m*3 1.68 C 0 km/h
2243 13-02-2015 02:00:00 1.675 C 5.05 g/m*3 1.68 C 0.4 km/h
2244 13-02-2015 03:00:00 1.8 C 5.07 g/m*3 1.8 C 1.6 km/h
2245 13-02-2015 04:00:00 1.78333 C 5.04 g/m*3 1.78 C 2.00833 km/h
2246 13-02-2015 05:00:00 1.675 C 4.96 g/m*3 1.68 C 1.46667 km/h
2247 13-02-2015 06:00:00 1.6 C 4.94 g/m*3 1.6 C 3.73333 km/h
2248 13-02-2015 07:00:00 1.53333 C 4.95 g/m*3 1.53 C 2.14167 km/h
2249 13-02-2015 08:00:00 1.55 C 4.93 g/m*3 1.55 C 2.80833 km/h
2250 13-02-2015 09:00:00 1.80833 C 4.99 g/m*3 1.81 C 3.33333 km/h
Sensor: Nr:Datum:Temp:Abs-Feuchte:Windchill:Wind:
Aussen-T/F 2251 13-02-2015 10:00:00 2.225 C 5.04 g/m*3 2.23 C 4.94167 km/h
2252 13-02-2015 11:00:00 2.45833 C 5 g/m*3 0.84 C 5.89167 km/h
2253 13-02-2015 12:00:00 3.31667 C 5.18 g/m*3 3.32 C 4.53333 km/h
2254 13-02-2015 13:00:00 4.9 C 5.51 g/m*3 3.6 C 6.025 km/h
2255 13-02-2015 14:00:00 5.80833 C 5.68 g/m*3 4.56 C 6.29167 km/h
2256 13-02-2015 15:00:00 5.73333 C 5.61 g/m*3 4.47 C 6.30833 km/h
2257 13-02-2015 16:00:00 4.825 C 5.41 g/m*3 3.34 C 6.55 km/h
2258 13-02-2015 17:00:00 3.54167 C 5.16 g/m*3 1.72 C 6.975 km/h
2259 13-02-2015 18:00:00 1.78333 C 4.87 g/m*3 1.78 C 1.6 km/h
2260 13-02-2015 19:00:00 0.80833 C 4.73 g/m*3 0.81 C 1.6 km/h
2261 13-02-2015 20:00:00 0.95833 C 4.81 g/m*3 0.96 C 2.675 km/h
2262 13-02-2015 21:00:00 0.73333 C 4.73 g/m*3 0.73 C 3.46667 km/h
2263 13-02-2015 22:00:00 0.39167 C 4.68 g/m*3 0.39 C 2.66667 km/h
2264 13-02-2015 23:00:00 0.25833 C 4.67 g/m*3 0.26 C 2.4 km/h
2265 14-02-2015 00:00:00 0.18333 C 4.66 g/m*3 0.18 C 3.73333 km/h
2266 14-02-2015 01:00:00 0.4 C 4.73 g/m*3 0.4 C 2.26667 km/h
2267 14-02-2015 02:00:00 0.05 C 4.62 g/m*3 0.05 C 3.33333 km/h
2268 14-02-2015 03:00:00 -0.19167 C 4.54 g/m*3 -0.19 C 2.13333 km/h
2269 14-02-2015 04:00:00 -0.13333 C 4.58 g/m*3 -0.13 C 3.34167 km/h
2270 14-02-2015 05:00:00 1.075 C 4.9 g/m*3 1.08 C 2.93333 km/h
2271 14-02-2015 06:00:00 2.46667 C 5.09 g/m*3 0.61 C 6.55833 km/h
2272 14-02-2015 07:00:00 2.6 C 5.03 g/m*3 1.06 C 5.74167 km/h
2273 14-02-2015 08:00:00 2.725 C 5.06 g/m*3 1.15 C 5.88333 km/h
2274 14-02-2015 09:00:00 3.575 C 5.13 g/m*3 1.81 C 6.825 km/h
2275 14-02-2015 10:00:00 4.275 C 5.31 g/m*3 1.93 C 9.40833 km/h
Sensor: Nr:Datum:Temp:Abs-Feuchte:Windchill:Wind:
Aussen-T/F 2276 14-02-2015 11:00:00 5.19167 C 5.57 g/m*3 5.19 C 3.86667 km/h
2277 14-02-2015 12:00:00 6.43333 C 5.87 g/m*3 4.87 C 7.78333 km/h
2278 14-02-2015 13:00:00 6.875 C 5.85 g/m*3 5.75 C 6.43333 km/h
2279 14-02-2015 14:00:00 7.925 C 6.12 g/m*3 7.93 C 4.26667 km/h
2280 14-02-2015 15:00:00 9.00833 C 6.27 g/m*3 8.04 C 7.11667 km/h
2281 14-02-2015 16:00:00 8.59167 C 6.4 g/m*3 8.59 C 3.46667 km/h
2282 14-02-2015 17:00:00 5.94167 C 6.06 g/m*3 5.94 C 4.4 km/h
2283 14-02-2015 18:00:00 4.50833 C 5.85 g/m*3 4.51 C 3.2 km/h
2284 14-02-2015 19:00:00 4.68333 C 5.91 g/m*3 4.68 C 2.93333 km/h
2285 14-02-2015 20:00:00 4.1 C 5.67 g/m*3 4.1 C 4.8 km/h
2286 14-02-2015 21:00:00 2.825 C 5.36 g/m*3 2.83 C 4.8 km/h
2287 14-02-2015 22:00:00 3.175 C 5.5 g/m*3 3.18 C 1.73333 km/h
2288 14-02-2015 23:00:00 3.34167 C 5.59 g/m*3 3.34 C 0.8 km/h
2289 15-02-2015 00:00:00 2.26667 C 5.15 g/m*3 2.27 C 2.66667 km/h
2290 15-02-2015 01:00:00 1.64167 C 4.91 g/m*3 1.64 C 4.53333 km/h
2291 15-02-2015 02:00:00 0.36667 C 4.62 g/m*3 0.37 C 3.46667 km/h
2292 15-02-2015 03:00:00 -0.10833 C 4.52 g/m*3 -0.11 C 3.2 km/h
2293 15-02-2015 04:00:00 -0.525 C 4.42 g/m*3 -0.53 C 3.46667 km/h
2294 15-02-2015 05:00:00 -0.78333 C 4.34 g/m*3 -0.78 C 1.73333 km/h
2295 15-02-2015 06:00:00 -1.20833 C 4.21 g/m*3 -1.21 C 0.53333 km/h
2296 15-02-2015 07:00:00 -1.475 C 4.15 g/m*3 -1.48 C 0.13333 km/h
2297 15-02-2015 08:00:00 -1.425 C 4.18 g/m*3 -1.43 C 0 km/h
2298 15-02-2015 09:00:00 -0.99167 C 4.34 g/m*3 -0.99 C 0 km/h
2299 15-02-2015 10:00:00 0.05 C 4.63 g/m*3 0.05 C 2 km/h
2300 15-02-2015 11:00:00 1.45833 C 4.9 g/m*3 1.46 C 2.53333 km/h
Sensor: Nr:Datum:Temp:Abs-Feuchte:Windchill:Wind:
Aussen-T/F 2301 15-02-2015 12:00:00 2.775 C 5.18 g/m*3 2.78 C 2.4 km/h
2302 15-02-2015 13:00:00 5.70833 C 5.46 g/m*3 5.71 C 4.95833 km/h
2303 15-02-2015 14:00:00 6.75 C 5.71 g/m*3 6.75 C 4.66667 km/h
2304 15-02-2015 15:00:00 6.81667 C 5.92 g/m*3 6.82 C 1.06667 km/h
2305 15-02-2015 16:00:00 5.98333 C 5.84 g/m*3 5.98 C 4.4 km/h
2306 15-02-2015 17:00:00 4.88333 C 5.49 g/m*3 3.54 C 6.13333 km/h
2307 15-02-2015 18:00:00 3.33333 C 5.15 g/m*3 1.53 C 6.83333 km/h
2308 15-02-2015 19:00:00 2.65 C 5.1 g/m*3 1.17 C 5.6 km/h
2309 15-02-2015 20:00:00 1.95833 C 5 g/m*3 1.96 C 4.26667 km/h
2310 15-02-2015 21:00:00 1.15833 C 4.78 g/m*3 1.16 C 4 km/h
2311 15-02-2015 22:00:00 0.33333 C 4.59 g/m*3 0.33 C 1.2 km/h
2312 15-02-2015 23:00:00 -0.15 C 4.5 g/m*3 -0.15 C 2.13333 km/h
2313 16-02-2015 00:00:00 -0.64167 C 4.36 g/m*3 -0.64 C 1.46667 km/h
2314 16-02-2015 01:00:00 -0.9 C 4.3 g/m*3 -0.9 C 0.13333 km/h
2315 16-02-2015 02:00:00 -0.70833 C 4.38 g/m*3 -0.71 C 0.13333 km/h
2316 16-02-2015 03:00:00 -0.49167 C 4.45 g/m*3 -0.49 C 0 km/h
2317 16-02-2015 04:00:00 -0.19167 C 4.54 g/m*3 -0.19 C 0 km/h
2318 16-02-2015 05:00:00 0.15 C 4.65 g/m*3 0.15 C 0 km/h
2319 16-02-2015 06:00:00 0.55 C 4.75 g/m*3 0.55 C 0.4 km/h
2320 16-02-2015 07:00:00 0.875 C 4.85 g/m*3 0.88 C 0.53333 km/h
2321 16-02-2015 08:00:00 1.3 C 4.92 g/m*3 1.3 C 0.4 km/h
2322 16-02-2015 09:00:00 2 C 4.94 g/m*3 2 C 1.06667 km/h
2323 16-02-2015 10:00:00 2.53333 C 4.95 g/m*3 2.53 C 3.33333 km/h
2324 16-02-2015 11:00:00 2.9 C 5 g/m*3 1.3 C 6.025 km/h
2325 16-02-2015 12:00:00 3.18333 C 5.05 g/m*3 1.1 C 7.65833 km/h
Sensor: Nr:Datum:Temp:Abs-Feuchte:Windchill:Wind:
Aussen-T/F 2326 16-02-2015 13:00:00 3.60833 C 5.15 g/m*3 1.8 C 6.975 km/h
2327 16-02-2015 14:00:00 4.15833 C 5.25 g/m*3 2.66 C 6.29167 km/h
2328 16-02-2015 15:00:00 4.00833 C 5.19 g/m*3 4.01 C 4.66667 km/h
2329 16-02-2015 16:00:00 3.86667 C 5.17 g/m*3 3.87 C 4.4 km/h
2330 16-02-2015 17:00:00 3.45 C 5.07 g/m*3 3.45 C 4.14167 km/h
2331 16-02-2015 18:00:00 2.775 C 5 g/m*3 2.78 C 3.075 km/h
2332 16-02-2015 19:00:00 2.50833 C 4.93 g/m*3 2.51 C 1.86667 km/h
2333 16-02-2015 20:00:00 2.4 C 4.91 g/m*3 2.4 C 1.33333 km/h
2334 16-02-2015 21:00:00 2.4 C 4.92 g/m*3 2.4 C 0.68571 km/h
2335 16-02-2015 22:00:00 2.35 C 4.93 g/m*3 2.35 C 2.26667 km/h
2336 16-02-2015 23:00:00 2.3 C 4.93 g/m*3 2.3 C 1.86667 km/h
2337 17-02-2015 00:00:00 2.30833 C 4.94 g/m*3 2.31 C 1.6 km/h
2338 17-02-2015 01:00:00 2.40833 C 4.99 g/m*3 2.41 C 0.8 km/h
2339 17-02-2015 02:00:00 2.38333 C 5.03 g/m*3 2.38 C 0.53333 km/h
2340 17-02-2015 03:00:00 2.3 C 4.93 g/m*3 2.3 C 2.14167 km/h
2341 17-02-2015 04:00:00 2.125 C 4.89 g/m*3 2.13 C 3.075 km/h
2342 17-02-2015 05:00:00 1.93333 C 4.9 g/m*3 1.93 C 4.26667 km/h
2343 17-02-2015 06:00:00 1.9 C 4.95 g/m*3 1.9 C 4.13333 km/h
2344 17-02-2015 07:00:00 1.9 C 4.95 g/m*3 1.9 C 4.80833 km/h
2345 17-02-2015 08:00:00 1.95 C 4.93 g/m*3 0.58 C 5.09167 km/h
2346 17-02-2015 09:00:00 2.15833 C 5 g/m*3 0.5 C 5.88333 km/h
2347 17-02-2015 10:00:00 2.48333 C 5.11 g/m*3 2.48 C 3.46667 km/h
2348 17-02-2015 11:00:00 2.925 C 5.25 g/m*3 2.93 C 3.6 km/h
2349 17-02-2015 12:00:00 3.475 C 5.43 g/m*3 3.48 C 3.46667 km/h
2350 17-02-2015 13:00:00 4.475 C 5.58 g/m*3 4.47 C 2.53333 km/h
Sensor: Nr:Datum:Temp:Abs-Feuchte:Windchill:Wind:
Aussen-T/F 2351 17-02-2015 14:00:00 4.75833 C 5.59 g/m*3 4.76 C 4.41667 km/h
2352 17-02-2015 15:00:00 4.86667 C 5.66 g/m*3 4.87 C 2.8 km/h
2353 17-02-2015 16:00:00 4.875 C 5.68 g/m*3 4.88 C 1.86667 km/h
2354 17-02-2015 17:00:00 4.68333 C 5.72 g/m*3 4.68 C 0 km/h
2355 17-02-2015 18:00:00 4.33333 C 5.8 g/m*3 4.33 C 0.4 km/h
2356 17-02-2015 19:00:00 4.2 C 5.83 g/m*3 4.2 C 0 km/h
2357 17-02-2015 20:00:00 4.3 C 5.91 g/m*3 4.3 C 0.13333 km/h
2358 17-02-2015 21:00:00 4.24167 C 5.95 g/m*3 4.24 C 0.13333 km/h
2359 17-02-2015 22:00:00 4.23333 C 6.01 g/m*3 4.23 C 0.13333 km/h
2360 17-02-2015 23:00:00 4.25833 C 6.02 g/m*3 4.26 C 0.13333 km/h
2361 18-02-2015 00:00:00 4.25 C 5.93 g/m*3 4.25 C 2 km/h
2362 18-02-2015 01:00:00 4.18333 C 5.88 g/m*3 4.18 C 0.26667 km/h
2363 18-02-2015 02:00:00 4.1 C 5.89 g/m*3 4.1 C 2.26667 km/h
2364 18-02-2015 03:00:00 4.1 C 5.95 g/m*3 4.1 C 0.4 km/h
2365 18-02-2015 04:00:00 4.1 C 5.95 g/m*3 4.1 C 0.13333 km/h
2366 18-02-2015 05:00:00 4 C 5.94 g/m*3 4 C 0 km/h
2367 18-02-2015 06:00:00 3.63333 C 5.82 g/m*3 3.63 C 0 km/h
2368 18-02-2015 07:00:00 3.71667 C 5.93 g/m*3 3.72 C 0 km/h
2369 18-02-2015 08:00:00 3.9 C 6 g/m*3 3.9 C 1.33333 km/h
2370 18-02-2015 09:00:00 4.14167 C 6.04 g/m*3 4.14 C 0.13333 km/h
2371 18-02-2015 10:00:00 5.01667 C 6.25 g/m*3 5.02 C 2.13333 km/h
2372 18-02-2015 11:00:00 5.73333 C 6.34 g/m*3 5.73 C 2.8 km/h
2373 18-02-2015 12:00:00 6.01667 C 6.31 g/m*3 6.02 C 3.06667 km/h
2374 18-02-2015 13:00:00 6.74167 C 6.29 g/m*3 6.74 C 4.53333 km/h
2375 18-02-2015 14:00:00 6.83333 C 6.13 g/m*3 6.83 C 4 km/h
Sensor: Nr:Datum:Temp:Abs-Feuchte:Windchill:Wind:
Aussen-T/F 2376 18-02-2015 15:00:00 6.88333 C 6.07 g/m*3 6.88 C 2.13333 km/h
2377 18-02-2015 16:00:00 6.70833 C 5.92 g/m*3 6.71 C 1.33333 km/h
2378 18-02-2015 17:00:00 6.13333 C 5.57 g/m*3 6.13 C 1.86667 km/h
2379 18-02-2015 18:00:00 3.9 C 5.38 g/m*3 3.9 C 3.06667 km/h
2380 18-02-2015 19:00:00 1.90833 C 4.96 g/m*3 1.91 C 3.86667 km/h
2381 18-02-2015 20:00:00 1.29167 C 4.83 g/m*3 1.29 C 4.66667 km/h
2382 18-02-2015 21:00:00 0.64167 C 4.69 g/m*3 0.64 C 2.8 km/h
2383 18-02-2015 22:00:00 0.54167 C 4.65 g/m*3 0.54 C 3.46667 km/h
2384 18-02-2015 23:00:00 -0.2 C 4.43 g/m*3 -0.2 C 0.66667 km/h
2385 19-02-2015 00:00:00 -0.76667 C 4.32 g/m*3 -0.77 C 1.33333 km/h
2386 19-02-2015 01:00:00 -1.24167 C 4.21 g/m*3 -1.24 C 0.66667 km/h
2387 19-02-2015 02:00:00 -1.45 C 4.16 g/m*3 -1.45 C 0.26667 km/h
2388 19-02-2015 03:00:00 -1.65833 C 4.12 g/m*3 -1.66 C 0.13333 km/h
2389 19-02-2015 04:00:00 -1.18333 C 4.28 g/m*3 -1.18 C 0 km/h
2390 19-02-2015 05:00:00 -0.38333 C 4.53 g/m*3 -0.38 C 1.6 km/h
2391 19-02-2015 06:00:00 0.29167 C 4.7 g/m*3 0.29 C 2.14167 km/h
2392 19-02-2015 07:00:00 0.64167 C 4.66 g/m*3 0.64 C 1.86667 km/h
2393 19-02-2015 08:00:00 0.64167 C 4.58 g/m*3 0.64 C 4.675 km/h
2394 19-02-2015 09:00:00 0.7 C 4.55 g/m*3 -0.95 C 5.35 km/h
2395 19-02-2015 10:00:00 0.83333 C 4.5 g/m*3 -1.74 C 7.93333 km/h
2396 19-02-2015 11:00:00 1.36667 C 4.57 g/m*3 -1.27 C 8.46667 km/h
2397 19-02-2015 12:00:00 2.025 C 4.7 g/m*3 -0.49 C 8.46667 km/h
2398 19-02-2015 13:00:00 2.20833 C 4.71 g/m*3 -0.12 C 7.91667 km/h
2399 19-02-2015 14:00:00 2.53333 C 4.73 g/m*3 0.46 C 7.25833 km/h
2400 19-02-2015 15:00:00 2.75833 C 4.74 g/m*3 0.34 C 8.59167 km/h
Sensor: Nr:Datum:Temp:Abs-Feuchte:Windchill:Wind:
Aussen-T/F 2401 19-02-2015 16:00:00 2.55833 C 4.72 g/m*3 0.17 C 8.325 km/h
2402 19-02-2015 17:00:00 2.575 C 4.77 g/m*3 2.58 C 4.54167 km/h
2403 19-02-2015 18:00:00 2.33333 C 4.72 g/m*3 2.33 C 3.06667 km/h
2404 19-02-2015 19:00:00 2.2 C 4.67 g/m*3 2.2 C 4.55 km/h
2405 19-02-2015 20:00:00 1.94167 C 4.59 g/m*3 1.94 C 3.475 km/h
2406 19-02-2015 21:00:00 1.45833 C 4.54 g/m*3 1.46 C 1.875 km/h
2407 19-02-2015 22:00:00 1.1 C 4.53 g/m*3 1.1 C 2.66667 km/h
2408 19-02-2015 23:00:00 1.28333 C 4.6 g/m*3 1.28 C 0.53333 km/h
2409 20-02-2015 00:00:00 0.85 C 4.62 g/m*3 0.85 C 0 km/h
2410 20-02-2015 01:00:00 1.375 C 4.73 g/m*3 1.38 C 0.66667 km/h
2411 20-02-2015 02:00:00 1.79167 C 4.88 g/m*3 1.79 C 0.8 km/h
2412 20-02-2015 03:00:00 3.825 C 5.35 g/m*3 1.7 C 8.20833 km/h
2413 20-02-2015 04:00:00 4.43333 C 5.37 g/m*3 3.2 C 5.63333 km/h
2414 20-02-2015 05:00:00 3.875 C 5.37 g/m*3 3.88 C 2.66667 km/h
2415 20-02-2015 06:00:00 3.475 C 5.45 g/m*3 3.48 C 1.46667 km/h
2416 20-02-2015 07:00:00 3.31667 C 5.47 g/m*3 3.32 C 1.06667 km/h
2417 20-02-2015 08:00:00 4.61667 C 5.8 g/m*3 4.62 C 2.53333 km/h
2418 20-02-2015 09:00:00 6.65 C 6.09 g/m*3 5.49 C 6.425 km/h
2419 20-02-2015 10:00:00 7.375 C 6.27 g/m*3 6.75 C 5.08333 km/h
2420 20-02-2015 11:00:00 8.90833 C 6.56 g/m*3 6.67 C 14.225 km/h
2421 20-02-2015 12:00:00 9.54167 C 6.56 g/m*3 7.28 C 15.56667 km/h
2422 20-02-2015 13:00:00 9.81667 C 6.48 g/m*3 7.32 C 18.25 km/h
2423 20-02-2015 14:00:00 9.80833 C 6.5 g/m*3 8.66 C 8.6 km/h
2424 20-02-2015 15:00:00 10.55833 C 6.46 g/m*3 9.62 C 8.19167 km/h
2425 20-02-2015 16:00:00 11.60833 C 6.24 g/m*3 11.61 C 10.225 km/h
Sensor: Nr:Datum:Temp:Abs-Feuchte:Windchill:Wind:
Aussen-T/F 2426 20-02-2015 17:00:00 11.21667 C 6.22 g/m*3 11.22 C 4.41667 km/h
2427 20-02-2015 18:00:00 9.45 C 6.45 g/m*3 9.45 C 2.66667 km/h
2428 20-02-2015 19:00:00 9.11667 C 6.39 g/m*3 9.12 C 2.94167 km/h
2429 20-02-2015 20:00:00 9.78333 C 6.33 g/m*3 8.83 C 7.64167 km/h
2430 20-02-2015 21:00:00 9.49167 C 6.63 g/m*3 8.71 C 6.7 km/h
2431 20-02-2015 22:00:00 8.31667 C 6.78 g/m*3 8.32 C 4.68333 km/h
2432 20-02-2015 23:00:00 7.93333 C 6.69 g/m*3 7.93 C 2.53333 km/h
2433 21-02-2015 00:00:00 7.21667 C 6.73 g/m*3 7.22 C 2.53333 km/h
2434 21-02-2015 01:00:00 7.44167 C 6.67 g/m*3 7.44 C 3.6 km/h
2435 21-02-2015 02:00:00 7.425 C 6.57 g/m*3 6.76 C 5.21667 km/h
2436 21-02-2015 03:00:00 6.94167 C 6.59 g/m*3 6.94 C 3.34167 km/h
2437 21-02-2015 04:00:00 7.325 C 6.57 g/m*3 6.05 C 7.24167 km/h
2438 21-02-2015 05:00:00 6.71667 C 6.63 g/m*3 5.69 C 6.025 km/h
2439 21-02-2015 06:00:00 6.5 C 6.67 g/m*3 5.12 C 7.11667 km/h
2440 21-02-2015 07:00:00 6.36667 C 6.55 g/m*3 4.22 C 10.35 km/h
2441 21-02-2015 08:00:00 5.29167 C 5.8 g/m*3 2.91 C 10.475 km/h
2442 21-02-2015 09:00:00 4.66667 C 5.76 g/m*3 3.67 C 5.08333 km/h
2443 21-02-2015 10:00:00 4.85833 C 5.87 g/m*3 3.84 C 5.225 km/h
2444 21-02-2015 11:00:00 5.28333 C 5.97 g/m*3 5.28 C 4.81667 km/h
2445 21-02-2015 12:00:00 5.7 C 6.04 g/m*3 4.15 C 7.25833 km/h
2446 21-02-2015 13:00:00 5.8 C 6.2 g/m*3 4.91 C 5.20833 km/h
2447 21-02-2015 14:00:00 6.73333 C 6.14 g/m*3 4.79 C 9.68333 km/h
2448 21-02-2015 15:00:00 6.33333 C 5.8 g/m*3 4.38 C 9.39167 km/h
2449 21-02-2015 16:00:00 6.28333 C 5.52 g/m*3 4.73 C 7.65 km/h
2450 21-02-2015 17:00:00 5.55833 C 5.41 g/m*3 5.56 C 4.275 km/h
Sensor: Nr:Datum:Temp:Abs-Feuchte:Windchill:Wind:
Aussen-T/F 2451 21-02-2015 18:00:00 4.33333 C 5.41 g/m*3 4.33 C 3.86667 km/h
2452 21-02-2015 19:00:00 3.1 C 5.31 g/m*3 3.1 C 3.06667 km/h
2453 21-02-2015 20:00:00 2.35 C 5.22 g/m*3 2.35 C 1.46667 km/h
2454 21-02-2015 21:00:00 1.75 C 5.08 g/m*3 1.75 C 0.26667 km/h
2455 21-02-2015 22:00:00 1.3 C 4.96 g/m*3 1.3 C 0 km/h
2456 21-02-2015 23:00:00 1.33333 C 5.01 g/m*3 1.33 C 0 km/h
2457 22-02-2015 00:00:00 1.61667 C 5.13 g/m*3 1.62 C 1.33333 km/h
2458 22-02-2015 01:00:00 1.68333 C 5.17 g/m*3 1.68 C 0 km/h
2459 22-02-2015 02:00:00 2.10833 C 5.33 g/m*3 2.11 C 0.13333 km/h
2460 22-02-2015 03:00:00 2.38333 C 5.46 g/m*3 2.38 C 0 km/h
2461 22-02-2015 04:00:00 2.55 C 5.48 g/m*3 2.55 C 0.53333 km/h
2462 22-02-2015 05:00:00 2.73333 C 5.53 g/m*3 2.73 C 0 km/h
2463 22-02-2015 06:00:00 2.8 C 5.57 g/m*3 2.8 C 0.66667 km/h
2464 22-02-2015 07:00:00 2.94167 C 5.54 g/m*3 2.94 C 2.4 km/h
2465 22-02-2015 08:00:00 3.09167 C 5.5 g/m*3 3.09 C 2 km/h
2466 22-02-2015 09:00:00 3.66667 C 5.51 g/m*3 3.67 C 0.8 km/h
2467 22-02-2015 10:00:00 4.45 C 5.57 g/m*3 4.45 C 3.33333 km/h
2468 22-02-2015 11:00:00 5.05 C 5.44 g/m*3 5.05 C 1.86667 km/h
2469 22-02-2015 12:00:00 6.16667 C 5.25 g/m*3 6.17 C 4.54167 km/h
2470 22-02-2015 13:00:00 7.73333 C 5.09 g/m*3 6.7 C 6.575 km/h
2471 22-02-2015 14:00:00 7.525 C 4.62 g/m*3 6.36 C 6.96667 km/h
2472 22-02-2015 15:00:00 7.70833 C 4.64 g/m*3 6.95 C 5.63333 km/h
2473 22-02-2015 16:00:00 7.51667 C 4.71 g/m*3 6.53 C 6.30833 km/h
2474 22-02-2015 17:00:00 6.39167 C 4.83 g/m*3 5.31 C 6.03333 km/h
2475 22-02-2015 18:00:00 3.13333 C 4.78 g/m*3 3.13 C 2.53333 km/h
Sensor: Nr:Datum:Temp:Abs-Feuchte:Windchill:Wind:
Aussen-T/F 2476 22-02-2015 19:00:00 1.95833 C 4.67 g/m*3 1.96 C 4 km/h
2477 22-02-2015 20:00:00 1.51667 C 4.62 g/m*3 1.52 C 4.13333 km/h
2478 22-02-2015 21:00:00 1.2 C 4.58 g/m*3 1.2 C 3.73333 km/h
2479 22-02-2015 22:00:00 1.2 C 4.55 g/m*3 1.2 C 3.6 km/h
2480 22-02-2015 23:00:00 2.175 C 4.66 g/m*3 0.67 C 5.49167 km/h
2481 23-02-2015 00:00:00 2.96667 C 4.71 g/m*3 2.97 C 3.75 km/h
2482 23-02-2015 01:00:00 3.675 C 4.63 g/m*3 2.49 C 5.225 km/h
2483 23-02-2015 02:00:00 3.99167 C 4.67 g/m*3 3.99 C 4.275 km/h
2484 23-02-2015 03:00:00 4.19167 C 4.63 g/m*3 4.19 C 2.94167 km/h
2485 23-02-2015 04:00:00 4.36667 C 4.54 g/m*3 2.53 C 7.50833 km/h
2486 23-02-2015 05:00:00 4.28333 C 4.62 g/m*3 2.07 C 8.86667 km/h
2487 23-02-2015 06:00:00 3.59167 C 4.89 g/m*3 3.59 C 4.41667 km/h
2488 23-02-2015 07:00:00 1.875 C 5.01 g/m*3 1.88 C 0.4 km/h
2489 23-02-2015 08:00:00 1.13333 C 4.92 g/m*3 1.13 C 0 km/h
2490 23-02-2015 09:00:00 1.075 C 4.96 g/m*3 1.08 C 0 km/h
2491 23-02-2015 10:00:00 1.1 C 4.98 g/m*3 1.1 C 0.13333 km/h
2492 23-02-2015 11:00:00 1.24167 C 5.07 g/m*3 1.24 C 0 km/h
2493 23-02-2015 12:00:00 1.83333 C 5.3 g/m*3 1.83 C 0.26667 km/h
2494 23-02-2015 13:00:00 3.01667 C 5.77 g/m*3 3.02 C 2.40833 km/h
2495 23-02-2015 14:00:00 4.21667 C 6.22 g/m*3 4.22 C 3.08333 km/h
2496 23-02-2015 15:00:00 5.075 C 6.5 g/m*3 3.79 C 6.05 km/h
2497 23-02-2015 16:00:00 5.61667 C 6.58 g/m*3 3.91 C 7.79167 km/h
2498 23-02-2015 17:00:00 5.55 C 6.61 g/m*3 5.55 C 3.60833 km/h
2499 23-02-2015 18:00:00 4.74167 C 6.32 g/m*3 4.74 C 3.2 km/h
2500 23-02-2015 19:00:00 4.74167 C 6.4 g/m*3 3.24 C 6.56667 km/h
Sensor: Nr:Datum:Temp:Abs-Feuchte:Windchill:Wind:
Aussen-T/F 2501 23-02-2015 20:00:00 4.825 C 6.34 g/m*3 4.83 C 4 km/h
2502 23-02-2015 21:00:00 3.74167 C 5.98 g/m*3 3.74 C 2.93333 km/h
2503 23-02-2015 22:00:00 3.30833 C 5.84 g/m*3 3.31 C 2.93333 km/h
2504 23-02-2015 23:00:00 3.10833 C 5.81 g/m*3 3.11 C 2 km/h
2505 24-02-2015 00:00:00 2.96667 C 5.75 g/m*3 2.97 C 1.2 km/h
2506 24-02-2015 01:00:00 2.4 C 5.54 g/m*3 2.4 C 1.46667 km/h
2507 24-02-2015 02:00:00 2.01667 C 5.4 g/m*3 2.02 C 2.13333 km/h
2508 24-02-2015 03:00:00 3.31667 C 5.76 g/m*3 1.98 C 5.475 km/h
2509 24-02-2015 04:00:00 4.29167 C 5.59 g/m*3 1.77 C 10.20833 km/h
2510 24-02-2015 05:00:00 3.975 C 5.42 g/m*3 1.85 C 8.31667 km/h
2511 24-02-2015 06:00:00 3.74167 C 5.36 g/m*3 2.27 C 6.025 km/h
2512 24-02-2015 07:00:00 4.075 C 5.37 g/m*3 2.14 C 7.65 km/h
2513 24-02-2015 08:00:00 4.15 C 5.34 g/m*3 1.01 C 13.15 km/h
2514 24-02-2015 09:00:00 4.475 C 5.44 g/m*3 0.82 C 16.9 km/h
2515 24-02-2015 10:00:00 5.20833 C 5.65 g/m*3 1.64 C 17.56667 km/h
2516 24-02-2015 11:00:00 5.81667 C 5.78 g/m*3 2.13 C 19.70833 km/h
2517 24-02-2015 12:00:00 6.675 C 5.96 g/m*3 3.32 C 18.76667 km/h
2518 24-02-2015 13:00:00 6.9 C 5.97 g/m*3 3.98 C 15.83333 km/h
2519 24-02-2015 14:00:00 7.10833 C 6 g/m*3 4.66 C 12.9 km/h
2520 24-02-2015 15:00:00 7.05 C 5.96 g/m*3 4.53 C 13.3 km/h
2521 24-02-2015 16:00:00 7.175 C 6.06 g/m*3 5.32 C 9.68333 km/h
2522 24-02-2015 17:00:00 6.85833 C 6.03 g/m*3 5.47 C 7.39167 km/h
2523 24-02-2015 18:00:00 5.58333 C 5.91 g/m*3 4.62 C 5.34167 km/h
2524 24-02-2015 19:00:00 5.225 C 5.91 g/m*3 4.26 C 5.20833 km/h
2525 24-02-2015 20:00:00 5.575 C 5.89 g/m*3 4.25 C 6.43333 km/h
Sensor: Nr:Datum:Temp:Abs-Feuchte:Windchill:Wind:
Aussen-T/F 2526 24-02-2015 21:00:00 5.275 C 5.9 g/m*3 3.66 C 7.25 km/h
2527 24-02-2015 22:00:00 4.19167 C 5.69 g/m*3 3.08 C 5.21667 km/h
2528 24-02-2015 23:00:00 3.21667 C 5.52 g/m*3 3.22 C 4.81667 km/h
2529 25-02-2015 00:00:00 3.50833 C 5.62 g/m*3 3.51 C 4.40833 km/h
2530 25-02-2015 01:00:00 2.93333 C 5.51 g/m*3 2.93 C 3.06667 km/h
2531 25-02-2015 02:00:00 3.025 C 5.57 g/m*3 3.03 C 1.06667 km/h
2532 25-02-2015 03:00:00 2.78333 C 5.53 g/m*3 2.78 C 1.33333 km/h
2533 25-02-2015 04:00:00 2.58333 C 5.43 g/m*3 2.58 C 1.46667 km/h
2534 25-02-2015 05:00:00 2.14167 C 5.3 g/m*3 2.14 C 2.13333 km/h
2535 25-02-2015 06:00:00 1.4 C 5.05 g/m*3 1.4 C 1.2 km/h
2536 25-02-2015 07:00:00 0.925 C 4.91 g/m*3 0.93 C 0.53333 km/h
2537 25-02-2015 08:00:00 1.49167 C 5.16 g/m*3 1.49 C 2.8 km/h
2538 25-02-2015 09:00:00 2.90833 C 5.52 g/m*3 0.27 C 9.55 km/h
2539 25-02-2015 10:00:00 4.38333 C 5.69 g/m*3 1.37 C 12.76667 km/h
2540 25-02-2015 11:00:00 5.25833 C 5.73 g/m*3 2.92 C 10.225 km/h
2541 25-02-2015 12:00:00 7.00833 C 5.98 g/m*3 5.18 C 9.40833 km/h
2542 25-02-2015 13:00:00 7.83333 C 5.99 g/m*3 5.72 C 11.83333 km/h
2543 25-02-2015 14:00:00 7.925 C 5.88 g/m*3 5.68 C 12.76667 km/h
2544 25-02-2015 15:00:00 7.89167 C 5.8 g/m*3 5.68 C 12.5 km/h
2545 25-02-2015 16:00:00 7.25 C 5.77 g/m*3 5.41 C 9.68333 km/h
2546 25-02-2015 17:00:00 5.99167 C 6.24 g/m*3 5.99 C 2.00833 km/h
2547 25-02-2015 18:00:00 4.75 C 6.28 g/m*3 4.75 C 1.46667 km/h
2548 25-02-2015 19:00:00 4.21667 C 6.17 g/m*3 4.22 C 0.13333 km/h
2549 25-02-2015 20:00:00 4.10833 C 6.15 g/m*3 4.11 C 0 km/h
2550 25-02-2015 21:00:00 4.14167 C 6.23 g/m*3 4.14 C 0.26667 km/h
Sensor: Nr:Datum:Temp:Abs-Feuchte:Windchill:Wind:
Aussen-T/F 2551 25-02-2015 22:00:00 4.15833 C 6.23 g/m*3 4.16 C 0 km/h
2552 25-02-2015 23:00:00 4.2 C 6.25 g/m*3 4.2 C 0 km/h
2553 26-02-2015 00:00:00 4.2 C 6.25 g/m*3 4.2 C 0 km/h
2554 26-02-2015 01:00:00 4.29167 C 6.29 g/m*3 4.29 C 1.33333 km/h
2555 26-02-2015 02:00:00 4.19167 C 6.25 g/m*3 4.19 C 1.06667 km/h
2556 26-02-2015 03:00:00 3.58333 C 6 g/m*3 3.58 C 0.8 km/h
2557 26-02-2015 04:00:00 3.4 C 5.96 g/m*3 3.4 C 0 km/h
2558 26-02-2015 05:00:00 3.5 C 6.01 g/m*3 3.5 C 0 km/h
2559 26-02-2015 06:00:00 3.525 C 6.03 g/m*3 3.53 C 0 km/h
2560 26-02-2015 07:00:00 3.25833 C 5.93 g/m*3 3.26 C 0 km/h
2561 26-02-2015 08:00:00 3.35833 C 5.97 g/m*3 3.36 C 0.13333 km/h
2562 26-02-2015 09:00:00 4.46667 C 6.43 g/m*3 4.47 C 3.46667 km/h
2563 26-02-2015 10:00:00 6.40833 C 7.13 g/m*3 6.41 C 4.68333 km/h
2564 26-02-2015 11:00:00 8.04167 C 7.12 g/m*3 8.04 C 4.14167 km/h
2565 26-02-2015 12:00:00 8.45833 C 6.89 g/m*3 8.46 C 4.95 km/h
2566 26-02-2015 13:00:00 8.85 C 6.85 g/m*3 8.85 C 4.54167 km/h
2567 26-02-2015 14:00:00 9.225 C 6.83 g/m*3 9.23 C 4.26667 km/h
2568 26-02-2015 15:00:00 9.575 C 6.66 g/m*3 8.74 C 6.975 km/h
2569 26-02-2015 16:00:00 9.21667 C 6.59 g/m*3 8.42 C 6.58333 km/h
2570 26-02-2015 17:00:00 8.45 C 6.65 g/m*3 8.45 C 1.73333 km/h
2571 26-02-2015 18:00:00 7.1 C 6.77 g/m*3 7.1 C 0.66667 km/h
2572 26-02-2015 19:00:00 6.49167 C 6.73 g/m*3 6.49 C 1.86667 km/h
2573 26-02-2015 20:00:00 6.4 C 6.71 g/m*3 6.4 C 1.06667 km/h
2574 26-02-2015 21:00:00 6.43333 C 6.73 g/m*3 6.43 C 0.8 km/h
2575 26-02-2015 22:00:00 6.60833 C 6.73 g/m*3 6.61 C 3.46667 km/h
Sensor: Nr:Datum:Temp:Abs-Feuchte:Windchill:Wind:
Aussen-T/F 2576 26-02-2015 23:00:00 6.49167 C 6.86 g/m*3 6.49 C 0.4 km/h
2577 27-02-2015 00:00:00 5.9 C 6.87 g/m*3 5.9 C 0 km/h
2578 27-02-2015 01:00:00 5.79167 C 6.88 g/m*3 5.79 C 0.4 km/h
2579 27-02-2015 02:00:00 5.65833 C 6.87 g/m*3 5.66 C 0 km/h
2580 27-02-2015 03:00:00 5.69167 C 6.9 g/m*3 5.69 C 0 km/h
2581 27-02-2015 04:00:00 5.61667 C 6.87 g/m*3 5.62 C 0 km/h
2582 27-02-2015 05:00:00 5.56667 C 6.84 g/m*3 5.57 C 0 km/h
2583 27-02-2015 06:00:00 5.45 C 6.82 g/m*3 5.45 C 0 km/h
2584 27-02-2015 07:00:00 5.53333 C 6.89 g/m*3 5.53 C 4.425 km/h
2585 27-02-2015 08:00:00 4.91667 C 6.41 g/m*3 1.81 C 13.96667 km/h
2586 27-02-2015 09:00:00 4.29167 C 6.07 g/m*3 0.81 C 15.44167 km/h
2587 27-02-2015 10:00:00 4.99167 C 6.24 g/m*3 1.57 C 16.1 km/h
2588 27-02-2015 11:00:00 5.45 C 6.4 g/m*3 3.42 C 9 km/h
2589 27-02-2015 12:00:00 6.11667 C 6.52 g/m*3 3.55 C 12.36667 km/h
2590 27-02-2015 13:00:00 6.15833 C 6.36 g/m*3 3.92 C 10.61667 km/h
2591 27-02-2015 14:00:00 5.91667 C 6.14 g/m*3 3.76 C 9.96667 km/h
2592 27-02-2015 15:00:00 5.96667 C 6.16 g/m*3 4 C 9.15 km/h
2593 27-02-2015 16:00:00 5.90833 C 5.96 g/m*3 4.05 C 8.6 km/h
2594 27-02-2015 17:00:00 5.83333 C 5.89 g/m*3 5.83 C 4.68333 km/h
2595 27-02-2015 18:00:00 5.11667 C 5.92 g/m*3 5.12 C 1.73333 km/h
2596 27-02-2015 19:00:00 4.25 C 5.75 g/m*3 4.25 C 3.33333 km/h
2597 27-02-2015 20:00:00 3.13333 C 5.46 g/m*3 3.13 C 3.06667 km/h
2598 27-02-2015 21:00:00 2.70833 C 5.38 g/m*3 2.71 C 0.93333 km/h
2599 27-02-2015 22:00:00 2.40833 C 5.28 g/m*3 2.41 C 1.73333 km/h
2600 27-02-2015 23:00:00 2.04167 C 5.13 g/m*3 2.04 C 2 km/h
Sensor: Nr:Datum:Temp:Abs-Feuchte:Windchill:Wind:
Aussen-T/F 2601 28-02-2015 00:00:00 2.39167 C 5.2 g/m*3 2.39 C 2.8 km/h
2602 28-02-2015 01:00:00 1.2 C 4.86 g/m*3 1.2 C 0.26667 km/h
2603 28-02-2015 02:00:00 0.33333 C 4.69 g/m*3 0.33 C 1.06667 km/h
2604 28-02-2015 03:00:00 0.01667 C 4.63 g/m*3 0.02 C 0.53333 km/h
2605 28-02-2015 04:00:00 -0.29167 C 4.55 g/m*3 -0.29 C 0.53333 km/h
2606 28-02-2015 05:00:00 -0.76667 C 4.41 g/m*3 -0.77 C 0.4 km/h
2607 28-02-2015 06:00:00 -1.00833 C 4.34 g/m*3 -1.01 C 0 km/h
2608 28-02-2015 07:00:00 -1.10833 C 4.34 g/m*3 -1.11 C 0.4 km/h
2609 28-02-2015 08:00:00 -1.03333 C 4.37 g/m*3 -1.03 C 1.2 km/h
2610 28-02-2015 09:00:00 -0.475 C 4.56 g/m*3 -0.48 C 0.93333 km/h
2611 28-02-2015 10:00:00 0.28333 C 4.82 g/m*3 0.28 C 1.2 km/h
2612 28-02-2015 11:00:00 1.15833 C 5.14 g/m*3 1.16 C 1.73333 km/h
2613 28-02-2015 12:00:00 4.24167 C 5.57 g/m*3 1.86 C 9.53333 km/h
2614 28-02-2015 13:00:00 6.69167 C 5.12 g/m*3 4.27 C 12.23333 km/h
2615 28-02-2015 14:00:00 7.48333 C 5.2 g/m*3 5.1 C 13.03333 km/h
2616 28-02-2015 15:00:00 8.39167 C 4.94 g/m*3 6.74 C 9.81667 km/h
2617 28-02-2015 16:00:00 7.88333 C 4.7 g/m*3 6.16 C 9.68333 km/h
2618 28-02-2015 17:00:00 5.825 C 5.23 g/m*3 5.83 C 3.06667 km/h
2619 28-02-2015 18:00:00 3.33333 C 5.1 g/m*3 2.06 C 5.33333 km/h
2620 28-02-2015 19:00:00 2.24167 C 4.93 g/m*3 0.65 C 5.73333 km/h
2621 28-02-2015 20:00:00 1.85833 C 4.82 g/m*3 1.86 C 4.8 km/h
2622 28-02-2015 21:00:00 1.84167 C 4.79 g/m*3 1.84 C 4.8 km/h
2623 28-02-2015 22:00:00 2.46667 C 4.85 g/m*3 2.47 C 3.6 km/h
2624 28-02-2015 23:00:00 3.96667 C 4.81 g/m*3 3.97 C 3.75 km/h
2625 01-03-2015 00:00:00 4.11667 C 4.91 g/m*3 4.12 C 2.13333 km/h
Sensor: Nr:Datum:Temp:Abs-Feuchte:Windchill:Wind:
Aussen-T/F 2626 01-03-2015 01:00:00 4.56667 C 4.84 g/m*3 4.57 C 3.74167 km/h
2627 01-03-2015 02:00:00 5.20833 C 4.8 g/m*3 5.21 C 4.275 km/h
2628 01-03-2015 03:00:00 5.15833 C 5.17 g/m*3 5.16 C 4.81667 km/h
2629 01-03-2015 04:00:00 4.19167 C 5.83 g/m*3 4.19 C 1.6 km/h
2630 01-03-2015 05:00:00 3.80833 C 5.89 g/m*3 3.81 C 0.66667 km/h
2631 01-03-2015 06:00:00 4.10833 C 6.01 g/m*3 4.11 C 2.8 km/h
2632 01-03-2015 07:00:00 4.49167 C 6.21 g/m*3 4.49 C 2.53333 km/h
2633 01-03-2015 08:00:00 5.48333 C 6.61 g/m*3 3.9 C 7.24167 km/h
2634 01-03-2015 09:00:00 6.99167 C 6.99 g/m*3 5.13 C 9.54167 km/h
2635 01-03-2015 10:00:00 7.78333 C 7.35 g/m*3 6.21 C 8.875 km/h
2636 01-03-2015 11:00:00 8.94167 C 7.58 g/m*3 7.08 C 11.7 km/h
2637 01-03-2015 12:00:00 10.29167 C 7.93 g/m*3 8.62 C 12.36667 km/h
2638 01-03-2015 13:00:00 11.425 C 7.27 g/m*3 11.43 C 23.05833 km/h
2639 01-03-2015 14:00:00 11.56667 C 6.57 g/m*3 11.57 C 15.3 km/h
2640 01-03-2015 15:00:00 11.8 C 6.92 g/m*3 11.8 C 13.95833 km/h
2641 01-03-2015 16:00:00 11.85833 C 7.09 g/m*3 11.86 C 16.36667 km/h
2642 01-03-2015 17:00:00 10.50833 C 7.16 g/m*3 9.29 C 9.675 km/h
2643 01-03-2015 18:00:00 8.175 C 7.23 g/m*3 8.18 C 3.73333 km/h
2644 01-03-2015 19:00:00 7.68333 C 7.04 g/m*3 7.68 C 2.93333 km/h
2645 01-03-2015 20:00:00 8.45833 C 6.9 g/m*3 8.46 C 4.15 km/h
2646 01-03-2015 21:00:00 9.125 C 6.92 g/m*3 9.13 C 4.14167 km/h
2647 01-03-2015 22:00:00 9.39167 C 7.14 g/m*3 7.94 C 9.8 km/h
2648 01-03-2015 23:00:00 10.025 C 7.16 g/m*3 8.58 C 10.48333 km/h
2649 02-03-2015 00:00:00 9.69167 C 7.25 g/m*3 8.09 C 11.025 km/h
2650 02-03-2015 01:00:00 9.06667 C 7.62 g/m*3 7.53 C 9.925 km/h
Sensor: Nr:Datum:Temp:Abs-Feuchte:Windchill:Wind:
Aussen-T/F 2651 02-03-2015 02:00:00 9.2 C 7.47 g/m*3 6.86 C 15.56667 km/h
2652 02-03-2015 03:00:00 7.86667 C 6.49 g/m*3 5.39 C 14.23333 km/h
2653 02-03-2015 04:00:00 7.21667 C 6.21 g/m*3 6 C 6.96667 km/h
2654 02-03-2015 05:00:00 6.78333 C 6.18 g/m*3 6.07 C 5.09167 km/h
2655 02-03-2015 06:00:00 6.51667 C 5.86 g/m*3 4.93 C 7.93333 km/h
2656 02-03-2015 07:00:00 5.84167 C 5.91 g/m*3 3.88 C 8.99167 km/h
2657 02-03-2015 08:00:00 5.26667 C 5.85 g/m*3 2.71 C 11.29167 km/h
2658 02-03-2015 09:00:00 5.05 C 5.91 g/m*3 2.18 C 12.75 km/h
2659 02-03-2015 10:00:00 5.63333 C 5.92 g/m*3 5.63 C 4.41667 km/h
2660 02-03-2015 11:00:00 6.90833 C 5.75 g/m*3 5.56 C 7.25 km/h
2661 02-03-2015 12:00:00 8.58333 C 5.36 g/m*3 5.99 C 16.36667 km/h
2662 02-03-2015 13:00:00 9.375 C 5.02 g/m*3 6.68 C 19.04167 km/h
2663 02-03-2015 14:00:00 9.55833 C 4.74 g/m*3 7.11 C 17.16667 km/h
2664 02-03-2015 15:00:00 9.475 C 4.6 g/m*3 6.85 C 18.63333 km/h
2665 02-03-2015 16:00:00 5.98333 C 5.7 g/m*3 2.5 C 18.375 km/h
2666 02-03-2015 17:00:00 4.675 C 5.74 g/m*3 1.01 C 17.30833 km/h
2667 02-03-2015 18:00:00 3.30833 C 5.31 g/m*3 -0.02 C 13.16667 km/h
2668 02-03-2015 19:00:00 2.74167 C 5.31 g/m*3 1.21 C 5.76667 km/h
2669 02-03-2015 20:00:00 2.33333 C 5.27 g/m*3 -1.05 C 12.35833 km/h
2670 02-03-2015 21:00:00 2.33333 C 5.16 g/m*3 -0.83 C 11.3 km/h
2671 02-03-2015 22:00:00 2.23333 C 5.2 g/m*3 0.69 C 5.625 km/h
2672 02-03-2015 23:00:00 1.875 C 5.12 g/m*3 0.44 C 5.21667 km/h
2673 03-03-2015 00:00:00 2.225 C 5.08 g/m*3 0.06 C 7.38333 km/h
2674 03-03-2015 01:00:00 3.225 C 5.06 g/m*3 0.64 C 9.55833 km/h
2675 03-03-2015 02:00:00 3.15833 C 4.96 g/m*3 0.8 C 8.60833 km/h
Sensor: Nr:Datum:Temp:Abs-Feuchte:Windchill:Wind:
Aussen-T/F 2676 03-03-2015 03:00:00 2.31667 C 4.88 g/m*3 0.39 C 6.70833 km/h
2677 03-03-2015 04:00:00 1.70833 C 4.84 g/m*3 0.15 C 5.475 km/h
2678 03-03-2015 05:00:00 2.45833 C 4.98 g/m*3 1.16 C 5.09167 km/h
2679 03-03-2015 06:00:00 2.8 C 5.01 g/m*3 1.14 C 6.15833 km/h
2680 03-03-2015 07:00:00 2.775 C 4.99 g/m*3 0.42 C 8.34167 km/h
2681 03-03-2015 08:00:00 2.64167 C 5.02 g/m*3 0.76 C 6.71667 km/h
2682 03-03-2015 09:00:00 3.39167 C 5.21 g/m*3 1.19 C 8.2 km/h
2683 03-03-2015 10:00:00 5.475 C 5.51 g/m*3 2.47 C 14.1 km/h
2684 03-03-2015 11:00:00 7.375 C 5.51 g/m*3 4.62 C 15.43333 km/h
2685 03-03-2015 12:00:00 8.575 C 5.53 g/m*3 5.75 C 18.36667 km/h
2686 03-03-2015 13:00:00 9.575 C 5.43 g/m*3 6.83 C 20.10833 km/h
2687 03-03-2015 14:00:00 10.61667 C 5.52 g/m*3 8.01 C 21.575 km/h
2688 03-03-2015 15:00:00 10.65 C 5.5 g/m*3 8.16 C 20.36667 km/h
2689 03-03-2015 16:00:00 10.44167 C 5.45 g/m*3 8.12 C 18.1 km/h
2690 03-03-2015 17:00:00 9.40833 C 5.61 g/m*3 7.16 C 15.16667 km/h
2691 03-03-2015 18:00:00 8.425 C 5.98 g/m*3 5.48 C 19.175 km/h
2692 03-03-2015 19:00:00 5.89167 C 6.34 g/m*3 3.5 C 11.14167 km/h
2693 03-03-2015 20:00:00 5.325 C 6.29 g/m*3 4.32 C 5.34167 km/h
2694 03-03-2015 21:00:00 5.63333 C 6.23 g/m*3 3.73 C 8.59167 km/h
2695 03-03-2015 22:00:00 4.84167 C 5.92 g/m*3 2.55 C 9.65833 km/h
2696 03-03-2015 23:00:00 3.74167 C 5.63 g/m*3 1.29 C 9.40833 km/h
2697 04-03-2015 00:00:00 3.64167 C 5.64 g/m*3 2.2 C 5.9 km/h
2698 04-03-2015 01:00:00 3.85 C 5.59 g/m*3 1.55 C 8.875 km/h
2699 04-03-2015 02:00:00 3.38333 C 5.5 g/m*3 1.3 C 7.76667 km/h
2700 04-03-2015 03:00:00 2.975 C 5.5 g/m*3 1.54 C 5.61667 km/h
Sensor: Nr:Datum:Temp:Abs-Feuchte:Windchill:Wind:
Aussen-T/F 2701 04-03-2015 04:00:00 2.26667 C 5.32 g/m*3 2.27 C 3.2 km/h
2702 04-03-2015 05:00:00 1.675 C 5.13 g/m*3 1.68 C 3.60833 km/h
2703 04-03-2015 06:00:00 1.525 C 5.11 g/m*3 1.53 C 3.73333 km/h
2704 04-03-2015 07:00:00 1.43333 C 5.04 g/m*3 1.43 C 3.6 km/h
2705 04-03-2015 08:00:00 2.20833 C 5.17 g/m*3 0.3 C 6.58333 km/h
2706 04-03-2015 09:00:00 3.55 C 5.23 g/m*3 0.33 C 12.9 km/h
2707 04-03-2015 10:00:00 4.35 C 5.39 g/m*3 1.26 C 13.15833 km/h
2708 04-03-2015 11:00:00 5.71667 C 5.57 g/m*3 2.65 C 14.9 km/h
2709 04-03-2015 12:00:00 7.05833 C 5.58 g/m*3 4.28 C 15.03333 km/h
2710 04-03-2015 13:00:00 8.20833 C 5.47 g/m*3 5.75 C 14.63333 km/h
2711 04-03-2015 14:00:00 8.01667 C 5.21 g/m*3 5.59 C 14.09167 km/h
2712 04-03-2015 15:00:00 7.81667 C 5 g/m*3 5.49 C 13.16667 km/h
2713 04-03-2015 16:00:00 7.60833 C 5.15 g/m*3 5.68 C 10.49167 km/h
2714 04-03-2015 17:00:00 6.63333 C 5.45 g/m*3 4.44 C 10.85 km/h
2715 04-03-2015 18:00:00 4.675 C 5.78 g/m*3 2.81 C 7.79167 km/h
2716 04-03-2015 19:00:00 3.8 C 5.53 g/m*3 3.8 C 4.4 km/h
2717 04-03-2015 20:00:00 3.70833 C 5.45 g/m*3 2.43 C 5.46667 km/h
2718 04-03-2015 21:00:00 4.78333 C 5.44 g/m*3 2.9 C 7.925 km/h
2719 04-03-2015 22:00:00 4.84167 C 5.64 g/m*3 2.61 C 9.39167 km/h
2720 04-03-2015 23:00:00 4.7 C 5.75 g/m*3 2.73 C 8.2 km/h
2721 05-03-2015 00:00:00 4.85 C 5.7 g/m*3 2.68 C 9.13333 km/h
2722 05-03-2015 01:00:00 4.3 C 5.53 g/m*3 2.09 C 8.86667 km/h
2723 05-03-2015 02:00:00 4.475 C 5.61 g/m*3 2.57 C 7.79167 km/h
2724 05-03-2015 03:00:00 3.91667 C 5.5 g/m*3 2.2 C 6.84167 km/h
2725 05-03-2015 04:00:00 3.375 C 5.39 g/m*3 3.38 C 4.40833 km/h
Sensor: Nr:Datum:Temp:Abs-Feuchte:Windchill:Wind:
Aussen-T/F 2726 05-03-2015 05:00:00 3.71667 C 5.48 g/m*3 3.72 C 3.6 km/h
2727 05-03-2015 06:00:00 3.21667 C 5.39 g/m*3 3.22 C 3.74167 km/h
2728 05-03-2015 07:00:00 2.525 C 5.26 g/m*3 2.53 C 3.60833 km/h
2729 05-03-2015 08:00:00 3.05 C 5.48 g/m*3 3.05 C 2.53333 km/h
2730 05-03-2015 09:00:00 4.20833 C 5.68 g/m*3 2.71 C 6.3 km/h
2731 05-03-2015 10:00:00 5.24167 C 5.8 g/m*3 3.44 C 7.93333 km/h
2732 05-03-2015 11:00:00 5.75833 C 5.83 g/m*3 3.94 C 8.34167 km/h
2733 05-03-2015 12:00:00 6.55 C 5.95 g/m*3 4.36 C 10.76667 km/h
2734 05-03-2015 13:00:00 7.575 C 5.97 g/m*3 5.72 C 10.08333 km/h
2735 05-03-2015 14:00:00 7.68333 C 5.75 g/m*3 5.51 C 11.95833 km/h
2736 05-03-2015 15:00:00 8.25833 C 5.62 g/m*3 6.34 C 11.16667 km/h
2737 05-03-2015 16:00:00 8.15833 C 5.64 g/m*3 6.65 C 8.88333 km/h
2738 05-03-2015 17:00:00 7.55833 C 5.48 g/m*3 6.82 C 5.5 km/h
2739 05-03-2015 18:00:00 6.25833 C 5.89 g/m*3 6.26 C 1.6 km/h
2740 05-03-2015 19:00:00 5.41667 C 5.96 g/m*3 5.42 C 3.33333 km/h
2741 05-03-2015 20:00:00 5.15833 C 5.99 g/m*3 5.16 C 0.8 km/h
2742 05-03-2015 21:00:00 4.41667 C 5.8 g/m*3 4.42 C 2.26667 km/h
2743 05-03-2015 22:00:00 3.64167 C 5.53 g/m*3 3.64 C 3.2 km/h
2744 05-03-2015 23:00:00 2.775 C 5.35 g/m*3 2.78 C 0.8 km/h
2745 06-03-2015 00:00:00 2.08333 C 5.14 g/m*3 2.08 C 0.26667 km/h
2746 06-03-2015 01:00:00 1.60833 C 5.03 g/m*3 1.61 C 0.8 km/h
2747 06-03-2015 02:00:00 1.15 C 4.89 g/m*3 1.15 C 0.26667 km/h
2748 06-03-2015 03:00:00 1.11667 C 4.92 g/m*3 1.12 C 0 km/h
2749 06-03-2015 04:00:00 0.45833 C 4.7 g/m*3 0.46 C 0.13333 km/h
2750 06-03-2015 05:00:00 -0.01667 C 4.59 g/m*3 -0.02 C 0.13333 km/h
Sensor: Nr:Datum:Temp:Abs-Feuchte:Windchill:Wind:
Aussen-T/F 2751 06-03-2015 06:00:00 -0.41667 C 4.48 g/m*3 -0.42 C 0.13333 km/h
2752 06-03-2015 07:00:00 -0.44167 C 4.51 g/m*3 -0.44 C 0.93333 km/h
2753 06-03-2015 08:00:00 -0.03333 C 4.64 g/m*3 -0.03 C 0.26667 km/h
2754 06-03-2015 09:00:00 1.11667 C 5.02 g/m*3 1.12 C 1.2 km/h
2755 06-03-2015 10:00:00 3.45 C 5.69 g/m*3 3.45 C 2.81667 km/h
2756 06-03-2015 11:00:00 6.8 C 6.14 g/m*3 5.67 C 6.41667 km/h
2757 06-03-2015 12:00:00 9.00833 C 5.98 g/m*3 8.56 C 5.21667 km/h
2758 06-03-2015 13:00:00 9.30833 C 5.96 g/m*3 9.31 C 4.54167 km/h
2759 06-03-2015 14:00:00 9.88333 C 5.98 g/m*3 9.52 C 5.33333 km/h
2760 06-03-2015 15:00:00 10.05 C 5.65 g/m*3 10.05 C 3.73333 km/h
2761 06-03-2015 16:00:00 10.11667 C 5.65 g/m*3 10.12 C 3.60833 km/h
2762 06-03-2015 17:00:00 9.56667 C 6 g/m*3 9.57 C 3.34167 km/h
2763 06-03-2015 18:00:00 6.95 C 6.1 g/m*3 6.95 C 3.2 km/h
2764 06-03-2015 19:00:00 5.23333 C 5.8 g/m*3 5.23 C 3.73333 km/h
2765 06-03-2015 20:00:00 4.625 C 5.67 g/m*3 4.63 C 3.33333 km/h
2766 06-03-2015 21:00:00 3.65 C 5.43 g/m*3 3.65 C 1.33333 km/h
2767 06-03-2015 22:00:00 2.53333 C 5.16 g/m*3 2.53 C 0 km/h
2768 06-03-2015 23:00:00 1.78333 C 4.98 g/m*3 1.78 C 0 km/h
2769 07-03-2015 00:00:00 1.35 C 4.89 g/m*3 1.35 C 0.26667 km/h
2770 07-03-2015 01:00:00 0.70833 C 4.71 g/m*3 0.71 C 0.26667 km/h
2771 07-03-2015 02:00:00 0.3 C 4.64 g/m*3 0.3 C 0.13333 km/h
2772 07-03-2015 03:00:00 0.03333 C 4.56 g/m*3 0.03 C 0.4 km/h
2773 07-03-2015 04:00:00 -0.35 C 4.47 g/m*3 -0.35 C 0 km/h
2774 07-03-2015 05:00:00 -0.6 C 4.42 g/m*3 -0.6 C 0 km/h
2775 07-03-2015 06:00:00 -0.675 C 4.4 g/m*3 -0.68 C 0.66667 km/h
Sensor: Nr:Datum:Temp:Abs-Feuchte:Windchill:Wind:
Aussen-T/F 2776 07-03-2015 07:00:00 -0.49167 C 4.5 g/m*3 -0.49 C 0.26667 km/h
2777 07-03-2015 08:00:00 0.15 C 4.7 g/m*3 0.15 C 0.53333 km/h
2778 07-03-2015 09:00:00 1.33333 C 5.07 g/m*3 1.33 C 0.53333 km/h
2779 07-03-2015 10:00:00 3.43333 C 5.5 g/m*3 3.43 C 2.53333 km/h
2780 07-03-2015 11:00:00 5.56667 C 5.86 g/m*3 5.57 C 2.26667 km/h
2781 07-03-2015 12:00:00 8.71667 C 6.54 g/m*3 8.72 C 2.8 km/h
2782 07-03-2015 13:00:00 12.10833 C 6.71 g/m*3 12.11 C 2.53333 km/h
2783 07-03-2015 14:00:00 13.65833 C 6.12 g/m*3 13.66 C 4.53333 km/h
2784 07-03-2015 15:00:00 13.66667 C 6.02 g/m*3 13.67 C 5.21667 km/h
2785 07-03-2015 16:00:00 12.75833 C 6.06 g/m*3 12.76 C 4.68333 km/h
2786 07-03-2015 17:00:00 11.575 C 6.02 g/m*3 11.58 C 6.85 km/h
2787 07-03-2015 18:00:00 9.71667 C 6.13 g/m*3 8.75 C 7.65833 km/h
2788 07-03-2015 19:00:00 8.125 C 6.01 g/m*3 6.82 C 7.93333 km/h
2789 07-03-2015 20:00:00 6.11667 C 5.91 g/m*3 6.12 C 3.33333 km/h
2790 07-03-2015 21:00:00 4.69167 C 5.74 g/m*3 4.69 C 3.73333 km/h
2791 07-03-2015 22:00:00 3.93333 C 5.57 g/m*3 3.93 C 0.8 km/h
2792 07-03-2015 23:00:00 3.21667 C 5.39 g/m*3 3.22 C 0.8 km/h
2793 08-03-2015 00:00:00 2.525 C 5.22 g/m*3 2.53 C 0.13333 km/h
2794 08-03-2015 01:00:00 2.01667 C 5.12 g/m*3 2.02 C 0 km/h
2795 08-03-2015 02:00:00 1.75 C 5.08 g/m*3 1.75 C 0 km/h
2796 08-03-2015 03:00:00 1.18333 C 4.89 g/m*3 1.18 C 0 km/h
2797 08-03-2015 04:00:00 0.68333 C 4.77 g/m*3 0.68 C 0.13333 km/h
2798 08-03-2015 05:00:00 0.11667 C 4.61 g/m*3 0.12 C 0 km/h
2799 08-03-2015 06:00:00 -0.2 C 4.54 g/m*3 -0.2 C 0.13333 km/h
2800 08-03-2015 07:00:00 -0.35833 C 4.52 g/m*3 -0.36 C 0 km/h
Sensor: Nr:Datum:Temp:Abs-Feuchte:Windchill:Wind:
Aussen-T/F 2801 08-03-2015 08:00:00 -0.05833 C 4.63 g/m*3 -0.06 C 0 km/h
2802 08-03-2015 09:00:00 0.95833 C 4.97 g/m*3 0.96 C 0.13333 km/h
2803 08-03-2015 10:00:00 3.20833 C 5.74 g/m*3 3.21 C 0.13333 km/h
2804 08-03-2015 11:00:00 5.93333 C 6.51 g/m*3 5.93 C 0.13333 km/h
2805 08-03-2015 12:00:00 9.68333 C 7.56 g/m*3 9.68 C 1.73333 km/h
2806 08-03-2015 13:00:00 12.83333 C 7.9 g/m*3 12.83 C 0.53333 km/h
2807 08-03-2015 14:00:00 15.7 C 7.3 g/m*3 15.7 C 2.26667 km/h
2808 08-03-2015 15:00:00 16.7 C 7.47 g/m*3 16.7 C 2.93333 km/h
2809 08-03-2015 16:00:00 15.55 C 7.61 g/m*3 15.55 C 3.2 km/h
2810 08-03-2015 17:00:00 13.75833 C 7.32 g/m*3 13.76 C 4.28333 km/h
2811 08-03-2015 18:00:00 10.16667 C 7.01 g/m*3 9.92 C 5.06667 km/h
2812 08-03-2015 19:00:00 8.35 C 6.66 g/m*3 8.35 C 3.73333 km/h
2813 08-03-2015 20:00:00 7.275 C 6.47 g/m*3 7.28 C 2.26667 km/h
2814 08-03-2015 21:00:00 6.61667 C 6.31 g/m*3 6.62 C 2.8 km/h
2815 08-03-2015 22:00:00 5.98333 C 6.11 g/m*3 5.98 C 1.73333 km/h
2816 08-03-2015 23:00:00 4.975 C 5.86 g/m*3 4.97 C 1.33333 km/h
2817 09-03-2015 00:00:00 4.51667 C 5.82 g/m*3 4.52 C 1.86667 km/h
2818 09-03-2015 01:00:00 3.85833 C 5.64 g/m*3 3.86 C 1.86667 km/h
2819 09-03-2015 02:00:00 3.3 C 5.55 g/m*3 3.3 C 2.26667 km/h
2820 09-03-2015 03:00:00 3.5 C 5.67 g/m*3 3.5 C 2 km/h
2821 09-03-2015 04:00:00 3.15833 C 5.59 g/m*3 3.16 C 0.4 km/h
2822 09-03-2015 05:00:00 3.65833 C 5.83 g/m*3 3.66 C 0.66667 km/h
2823 09-03-2015 06:00:00 4.13333 C 5.97 g/m*3 4.13 C 0.4 km/h
2824 09-03-2015 07:00:00 4.50833 C 6.08 g/m*3 4.51 C 0 km/h
2825 09-03-2015 08:00:00 5.28333 C 6.28 g/m*3 5.28 C 0.13333 km/h
Sensor: Nr:Datum:Temp:Abs-Feuchte:Windchill:Wind:
Aussen-T/F 2826 09-03-2015 09:00:00 6.53333 C 6.62 g/m*3 6.53 C 0.4 km/h
2827 09-03-2015 10:00:00 7.975 C 7.11 g/m*3 7.98 C 0.66667 km/h
2828 09-03-2015 11:00:00 9.725 C 7.68 g/m*3 9.73 C 3.2 km/h
2829 09-03-2015 12:00:00 12.55 C 8.23 g/m*3 12.55 C 5.75833 km/h
2830 09-03-2015 13:00:00 14.26667 C 8.49 g/m*3 14.27 C 7.65 km/h
2831 09-03-2015 14:00:00 15.03333 C 8.43 g/m*3 15.03 C 6.3 km/h
2832 09-03-2015 15:00:00 15.69167 C 8.44 g/m*3 15.69 C 7.10833 km/h
2833 09-03-2015 16:00:00 14.55833 C 8.15 g/m*3 14.56 C 6.84167 km/h
2834 09-03-2015 17:00:00 12.53333 C 8.24 g/m*3 12.53 C 2.13333 km/h
2835 09-03-2015 18:00:00 9.925 C 7.75 g/m*3 9.93 C 4.13333 km/h
2836 09-03-2015 19:00:00 8.31667 C 7.32 g/m*3 8.32 C 2.26667 km/h
2837 09-03-2015 20:00:00 7.46667 C 7.12 g/m*3 7.47 C 0.66667 km/h
2838 09-03-2015 21:00:00 6.55 C 6.82 g/m*3 6.55 C 0.13333 km/h
2839 09-03-2015 22:00:00 5.66667 C 6.56 g/m*3 5.67 C 0.13333 km/h
2840 09-03-2015 23:00:00 4.81667 C 6.29 g/m*3 4.82 C 0.13333 km/h
2841 10-03-2015 00:00:00 4.29167 C 6.16 g/m*3 4.29 C 0.4 km/h
2842 10-03-2015 01:00:00 3.94167 C 6.06 g/m*3 3.94 C 0.26667 km/h
2843 10-03-2015 02:00:00 3.53333 C 5.92 g/m*3 3.53 C 0.13333 km/h
2844 10-03-2015 03:00:00 3.28333 C 5.82 g/m*3 3.28 C 0.8 km/h
2845 10-03-2015 04:00:00 2.55 C 5.55 g/m*3 2.55 C 0.13333 km/h
2846 10-03-2015 05:00:00 2.31667 C 5.51 g/m*3 2.32 C 0.53333 km/h
2847 10-03-2015 06:00:00 2.9 C 5.73 g/m*3 2.9 C 0.4 km/h
2848 10-03-2015 07:00:00 3.53333 C 5.98 g/m*3 3.53 C 1.33333 km/h
2849 10-03-2015 08:00:00 4.04167 C 6.19 g/m*3 4.04 C 0.8 km/h
2850 10-03-2015 09:00:00 4.61667 C 6.43 g/m*3 4.62 C 0 km/h
Sensor: Nr:Datum:Temp:Abs-Feuchte:Windchill:Wind:
Aussen-T/F 2851 10-03-2015 10:00:00 5.2 C 6.68 g/m*3 5.2 C 0.53333 km/h
2852 10-03-2015 11:00:00 5.74167 C 6.92 g/m*3 5.74 C 0 km/h
2853 10-03-2015 12:00:00 6.45833 C 7.29 g/m*3 6.46 C 0 km/h
2854 10-03-2015 13:00:00 7.40833 C 7.8 g/m*3 7.41 C 0.13333 km/h
2855 10-03-2015 14:00:00 8.10833 C 8.12 g/m*3 8.11 C 1.2 km/h
2856 10-03-2015 15:00:00 8.625 C 8.41 g/m*3 8.63 C 0.53333 km/h
2857 10-03-2015 16:00:00 8.9 C 8.51 g/m*3 8.9 C 1.33333 km/h
2858 10-03-2015 17:00:00 9.25833 C 8.65 g/m*3 9.26 C 1.33333 km/h
2859 10-03-2015 18:00:00 7.96667 C 7.87 g/m*3 7.97 C 3.86667 km/h
2860 10-03-2015 19:00:00 6.79167 C 7.37 g/m*3 6.79 C 1.6 km/h
2861 10-03-2015 20:00:00 6.225 C 7.15 g/m*3 6.23 C 0.8 km/h
2862 10-03-2015 21:00:00 5.68333 C 6.91 g/m*3 5.68 C 0 km/h
2863 10-03-2015 22:00:00 6.10833 C 7.16 g/m*3 6.11 C 0.4 km/h
2864 10-03-2015 23:00:00 6.03333 C 7.13 g/m*3 6.03 C 0.53333 km/h
2865 11-03-2015 00:00:00 5.25 C 6.75 g/m*3 5.25 C 0 km/h
2866 11-03-2015 01:00:00 3.54167 C 5.99 g/m*3 3.54 C 2.8 km/h
2867 11-03-2015 02:00:00 2.825 C 5.74 g/m*3 2.83 C 2.4 km/h
2868 11-03-2015 03:00:00 2.03333 C 5.43 g/m*3 2.03 C 0.26667 km/h
2869 11-03-2015 04:00:00 1.18333 C 5.11 g/m*3 1.18 C 0 km/h
2870 11-03-2015 05:00:00 1.13333 C 5.13 g/m*3 1.13 C 0 km/h
2871 11-03-2015 06:00:00 2.025 C 5.45 g/m*3 2.03 C 1.46667 km/h
2872 11-03-2015 07:00:00 2.18333 C 5.51 g/m*3 2.18 C 2.13333 km/h
2873 11-03-2015 08:00:00 2.26667 C 5.54 g/m*3 2.27 C 1.86667 km/h
2874 11-03-2015 09:00:00 2.63333 C 5.68 g/m*3 2.63 C 2.13333 km/h
2875 11-03-2015 10:00:00 3.075 C 5.85 g/m*3 3.08 C 1.86667 km/h
Sensor: Nr:Datum:Temp:Abs-Feuchte:Windchill:Wind:
Aussen-T/F 2876 11-03-2015 11:00:00 3.64167 C 5.92 g/m*3 3.64 C 1.2 km/h
2877 11-03-2015 12:00:00 6.64167 C 6.21 g/m*3 6.64 C 2.93333 km/h
2878 11-03-2015 13:00:00 9.20833 C 6.12 g/m*3 9.21 C 3.33333 km/h
2879 11-03-2015 14:00:00 9.55833 C 5.73 g/m*3 9.56 C 4.68333 km/h
2880 11-03-2015 15:00:00 10.69167 C 5.71 g/m*3 10.48 C 5.21667 km/h
2881 11-03-2015 16:00:00 9.96667 C 5.35 g/m*3 9.97 C 4 km/h
2882 11-03-2015 17:00:00 8.44167 C 6.05 g/m*3 8.44 C 3.06667 km/h
2883 11-03-2015 18:00:00 6.10833 C 5.93 g/m*3 6.11 C 4.94167 km/h
2884 11-03-2015 19:00:00 4.45 C 5.61 g/m*3 4.45 C 2.4 km/h
2885 11-03-2015 20:00:00 3.35 C 5.38 g/m*3 3.35 C 0 km/h
2886 11-03-2015 21:00:00 2.53333 C 5.15 g/m*3 2.53 C 0 km/h
2887 11-03-2015 22:00:00 1.675 C 4.88 g/m*3 1.68 C 0 km/h
2888 11-03-2015 23:00:00 1.075 C 4.74 g/m*3 1.08 C 0 km/h
2889 12-03-2015 00:00:00 0.44167 C 4.61 g/m*3 0.44 C 0 km/h
2890 12-03-2015 01:00:00 -0.1 C 4.48 g/m*3 -0.1 C 0 km/h
2891 12-03-2015 02:00:00 -0.46667 C 4.42 g/m*3 -0.47 C 0 km/h
2892 12-03-2015 03:00:00 -0.66667 C 4.4 g/m*3 -0.67 C 0.26667 km/h
2893 12-03-2015 04:00:00 -0.84167 C 4.34 g/m*3 -0.84 C 0 km/h
2894 12-03-2015 05:00:00 -1.15833 C 4.25 g/m*3 -1.16 C 0.13333 km/h
2895 12-03-2015 06:00:00 -1.41667 C 4.2 g/m*3 -1.42 C 0 km/h
2896 12-03-2015 07:00:00 -1.40833 C 4.22 g/m*3 -1.41 C 0 km/h
2897 12-03-2015 08:00:00 -1.11667 C 4.31 g/m*3 -1.12 C 0 km/h
2898 12-03-2015 09:00:00 -0.075 C 4.67 g/m*3 -0.08 C 0 km/h
2899 12-03-2015 10:00:00 1.85 C 5.29 g/m*3 1.85 C 0.93333 km/h
2900 12-03-2015 11:00:00 4.38333 C 6.07 g/m*3 4.38 C 0.93333 km/h
Sensor: Nr:Datum:Temp:Abs-Feuchte:Windchill:Wind:
Aussen-T/F 2901 12-03-2015 12:00:00 9.625 C 6.61 g/m*3 8.64 C 7.65 km/h
2902 12-03-2015 13:00:00 11.60833 C 6.2 g/m*3 11.61 C 6.7 km/h
2903 12-03-2015 14:00:00 11.74167 C 5.88 g/m*3 11.74 C 7.38333 km/h
2904 12-03-2015 15:00:00 12.59167 C 5.6 g/m*3 12.59 C 8.99167 km/h
2905 12-03-2015 16:00:00 11.9 C 5.35 g/m*3 11.9 C 6.99167 km/h
2906 12-03-2015 17:00:00 11.05833 C 5.53 g/m*3 11.06 C 5.9 km/h
2907 12-03-2015 18:00:00 7.4 C 5.86 g/m*3 6.56 C 5.73333 km/h
2908 12-03-2015 19:00:00 5.44167 C 5.64 g/m*3 3.93 C 6.96667 km/h
2909 12-03-2015 20:00:00 4.4 C 5.53 g/m*3 4.4 C 0.66667 km/h
2910 12-03-2015 21:00:00 3.46667 C 5.32 g/m*3 3.47 C 0 km/h
2911 12-03-2015 22:00:00 3.05 C 5.19 g/m*3 3.05 C 3.46667 km/h
2912 12-03-2015 23:00:00 2.425 C 4.9 g/m*3 2.42 C 3.6 km/h
2913 13-03-2015 00:00:00 2.21667 C 4.86 g/m*3 2.22 C 3.46667 km/h
2914 13-03-2015 01:00:00 2.25833 C 4.88 g/m*3 2.26 C 3.73333 km/h
2915 13-03-2015 02:00:00 2.14167 C 4.85 g/m*3 2.14 C 3.6 km/h
2916 13-03-2015 03:00:00 1.275 C 4.68 g/m*3 1.27 C 2.4 km/h
2917 13-03-2015 04:00:00 0.49167 C 4.54 g/m*3 0.49 C 2.66667 km/h
2918 13-03-2015 05:00:00 0.14167 C 4.5 g/m*3 0.14 C 3.6 km/h
2919 13-03-2015 06:00:00 -0.06667 C 4.49 g/m*3 -0.07 C 3.33333 km/h
2920 13-03-2015 07:00:00 -0.09167 C 4.5 g/m*3 -0.09 C 1.33333 km/h
2921 13-03-2015 08:00:00 0.325 C 4.66 g/m*3 0.33 C 1.33333 km/h
2922 13-03-2015 09:00:00 1.88333 C 5.07 g/m*3 1.88 C 4.41667 km/h
2923 13-03-2015 10:00:00 4.825 C 5.17 g/m*3 2.98 C 7.80833 km/h
2924 13-03-2015 11:00:00 6.09167 C 5.17 g/m*3 3.94 C 10.09167 km/h
2925 13-03-2015 12:00:00 7.58333 C 5.03 g/m*3 5.46 C 11.56667 km/h
Sensor: Nr:Datum:Temp:Abs-Feuchte:Windchill:Wind:
Aussen-T/F 2926 13-03-2015 13:00:00 7.9 C 4.78 g/m*3 6.13 C 9.94167 km/h
2927 13-03-2015 14:00:00 7.78333 C 4.68 g/m*3 5.7 C 11.55 km/h
2928 13-03-2015 15:00:00 7.81667 C 4.55 g/m*3 6.55 C 7.53333 km/h
2929 13-03-2015 16:00:00 7.43333 C 4.56 g/m*3 6.21 C 7.11667 km/h
2930 13-03-2015 17:00:00 7.01667 C 4.71 g/m*3 7.02 C 4.00833 km/h
2931 13-03-2015 18:00:00 6.3 C 4.84 g/m*3 6.3 C 2.53333 km/h
2932 13-03-2015 19:00:00 5.99167 C 5.01 g/m*3 5.99 C 3.2 km/h
2933 13-03-2015 20:00:00 5.48333 C 5.11 g/m*3 5.48 C 2.13333 km/h
2934 13-03-2015 21:00:00 5.24167 C 5.14 g/m*3 5.24 C 2.95 km/h
2935 13-03-2015 22:00:00 4.84167 C 5.07 g/m*3 4.84 C 3.06667 km/h
2936 13-03-2015 23:00:00 4.6 C 5.06 g/m*3 4.6 C 2.675 km/h
2937 14-03-2015 00:00:00 4.225 C 4.98 g/m*3 4.22 C 2.4 km/h
2938 14-03-2015 01:00:00 3.90833 C 4.9 g/m*3 3.91 C 1.33333 km/h
2939 14-03-2015 02:00:00 3.83333 C 4.87 g/m*3 3.83 C 0.93333 km/h
2940 14-03-2015 03:00:00 3.69167 C 4.88 g/m*3 3.69 C 0.8 km/h
2941 14-03-2015 04:00:00 3.15 C 4.83 g/m*3 3.15 C 1.86667 km/h
2942 14-03-2015 05:00:00 2.425 C 4.73 g/m*3 2.42 C 2.13333 km/h
2943 14-03-2015 06:00:00 1.45833 C 4.61 g/m*3 1.46 C 2.66667 km/h
2944 14-03-2015 07:00:00 2.06667 C 4.84 g/m*3 2.07 C 0.13333 km/h
2945 14-03-2015 08:00:00 3.15833 C 4.97 g/m*3 3.16 C 1.73333 km/h
2946 14-03-2015 09:00:00 4.25833 C 5.09 g/m*3 4.26 C 3.73333 km/h
2947 14-03-2015 10:00:00 5.20833 C 5.21 g/m*3 3.51 C 7.525 km/h
2948 14-03-2015 11:00:00 5.575 C 5.32 g/m*3 3.56 C 9.01667 km/h
2949 14-03-2015 12:00:00 5.96667 C 5.49 g/m*3 4.18 C 8.35 km/h
2950 14-03-2015 13:00:00 7.09167 C 5.81 g/m*3 4.96 C 11.025 km/h
Sensor: Nr:Datum:Temp:Abs-Feuchte:Windchill:Wind:
Aussen-T/F 2951 14-03-2015 14:00:00 7.33333 C 5.85 g/m*3 5.71 C 8.725 km/h
2952 14-03-2015 15:00:00 7.55833 C 5.97 g/m*3 6.09 C 8.20833 km/h
2953 14-03-2015 16:00:00 6.84167 C 6.27 g/m*3 6.84 C 3.06667 km/h
2954 14-03-2015 17:00:00 5.81667 C 6.39 g/m*3 5.82 C 0.8 km/h
2955 14-03-2015 18:00:00 5.06667 C 6.3 g/m*3 5.07 C 0.8 km/h
2956 14-03-2015 19:00:00 4.625 C 6.2 g/m*3 4.63 C 1.73333 km/h
2957 14-03-2015 20:00:00 4.175 C 5.94 g/m*3 4.18 C 1.46667 km/h
2958 14-03-2015 21:00:00 3.975 C 5.87 g/m*3 3.98 C 1.86667 km/h
2959 14-03-2015 22:00:00 4.025 C 5.84 g/m*3 4.03 C 1.6 km/h
2960 14-03-2015 23:00:00 3.875 C 5.75 g/m*3 3.88 C 1.33333 km/h
2961 15-03-2015 00:00:00 3.9 C 5.73 g/m*3 3.9 C 1.33333 km/h
2962 15-03-2015 01:00:00 3.74167 C 5.68 g/m*3 3.74 C 0.66667 km/h
2963 15-03-2015 02:00:00 3.66667 C 5.72 g/m*3 3.67 C 0.26667 km/h
2964 15-03-2015 03:00:00 3.78333 C 5.78 g/m*3 3.78 C 0.53333 km/h
2965 15-03-2015 04:00:00 3.7 C 5.86 g/m*3 3.7 C 0.53333 km/h
2966 15-03-2015 05:00:00 3.675 C 5.91 g/m*3 3.68 C 0.93333 km/h
2967 15-03-2015 06:00:00 3.60833 C 5.9 g/m*3 3.61 C 0.66667 km/h
2968 15-03-2015 07:00:00 3.7 C 5.98 g/m*3 3.7 C 0.93333 km/h
2969 15-03-2015 08:00:00 4.00833 C 6.11 g/m*3 4.01 C 1.06667 km/h
2970 15-03-2015 09:00:00 4.625 C 6.26 g/m*3 4.63 C 1.2 km/h
2971 15-03-2015 10:00:00 5.34167 C 6.3 g/m*3 4.15 C 5.89167 km/h
2972 15-03-2015 11:00:00 5.84167 C 6.25 g/m*3 5.84 C 4.8 km/h
2973 15-03-2015 12:00:00 6.30833 C 6.22 g/m*3 4.79 C 7.525 km/h
2974 15-03-2015 13:00:00 6.89167 C 6.33 g/m*3 5.41 C 7.78333 km/h
2975 15-03-2015 14:00:00 7.225 C 6.29 g/m*3 6.08 C 6.70833 km/h
Sensor: Nr:Datum:Temp:Abs-Feuchte:Windchill:Wind:
Aussen-T/F 2976 15-03-2015 15:00:00 7.06667 C 6.21 g/m*3 7.07 C 4.69167 km/h
2977 15-03-2015 16:00:00 6.99167 C 6.21 g/m*3 6.99 C 4 km/h
2978 15-03-2015 17:00:00 6.725 C 6.15 g/m*3 6.73 C 3.46667 km/h
2979 15-03-2015 18:00:00 6.175 C 6.15 g/m*3 6.18 C 1.6 km/h
2980 15-03-2015 19:00:00 4.68333 C 5.86 g/m*3 3.7 C 5.06667 km/h
2981 15-03-2015 20:00:00 3.28333 C 5.51 g/m*3 1.85 C 5.73333 km/h
2982 15-03-2015 21:00:00 2.56667 C 5.38 g/m*3 2.57 C 2.93333 km/h
2983 15-03-2015 22:00:00 1.85833 C 5.17 g/m*3 1.86 C 0.8 km/h
2984 15-03-2015 23:00:00 1.28333 C 5.01 g/m*3 1.28 C 0.93333 km/h
2985 16-03-2015 00:00:00 0.85833 C 4.89 g/m*3 0.86 C 0.26667 km/h
2986 16-03-2015 01:00:00 0.43333 C 4.78 g/m*3 0.43 C 0 km/h
2987 16-03-2015 02:00:00 0.025 C 4.66 g/m*3 0.03 C 0 km/h
2988 16-03-2015 03:00:00 -0.28333 C 4.56 g/m*3 -0.28 C 0 km/h
2989 16-03-2015 04:00:00 -0.64167 C 4.45 g/m*3 -0.64 C 0 km/h
2990 16-03-2015 05:00:00 -0.875 C 4.41 g/m*3 -0.88 C 0.13333 km/h
2991 16-03-2015 06:00:00 -0.8 C 4.45 g/m*3 -0.8 C 0 km/h
2992 16-03-2015 07:00:00 -0.85 C 4.43 g/m*3 -0.85 C 0.26667 km/h
2993 16-03-2015 08:00:00 0.03333 C 4.72 g/m*3 0.03 C 0.13333 km/h
2994 16-03-2015 09:00:00 1.975 C 5.44 g/m*3 1.98 C 0 km/h
2995 16-03-2015 10:00:00 3.56667 C 6.04 g/m*3 3.57 C 0 km/h
2996 16-03-2015 11:00:00 5.95 C 6.49 g/m*3 4.85 C 5.90833 km/h
2997 16-03-2015 12:00:00 9.05 C 6.59 g/m*3 7.66 C 9.13333 km/h
2998 16-03-2015 13:00:00 11.00833 C 6.74 g/m*3 11.01 C 9.55833 km/h
2999 16-03-2015 14:00:00 12.14167 C 6.9 g/m*3 12.14 C 7.53333 km/h
3000 16-03-2015 15:00:00 12.91667 C 6.92 g/m*3 12.92 C 8.46667 km/h
Sensor: Nr:Datum:Temp:Abs-Feuchte:Windchill:Wind:
Aussen-T/F 3001 16-03-2015 16:00:00 12.96667 C 6.83 g/m*3 12.97 C 5.21667 km/h
3002 16-03-2015 17:00:00 11.58333 C 7.52 g/m*3 11.58 C 1.33333 km/h
3003 16-03-2015 18:00:00 8.7 C 7.04 g/m*3 8.7 C 4.00833 km/h
3004 16-03-2015 19:00:00 6.68333 C 6.48 g/m*3 6.68 C 3.86667 km/h
3005 16-03-2015 20:00:00 5.5 C 6.19 g/m*3 5.5 C 1.6 km/h
3006 16-03-2015 21:00:00 4.8 C 6.03 g/m*3 4.8 C 0 km/h
3007 16-03-2015 22:00:00 4.2 C 5.86 g/m*3 4.2 C 0.26667 km/h
3008 16-03-2015 23:00:00 3.46667 C 5.64 g/m*3 3.47 C 0 km/h
3009 17-03-2015 00:00:00 2.76667 C 5.48 g/m*3 2.77 C 0 km/h
3010 17-03-2015 01:00:00 2.21667 C 5.31 g/m*3 2.22 C 0 km/h
3011 17-03-2015 02:00:00 1.65 C 5.15 g/m*3 1.65 C 0 km/h
3012 17-03-2015 03:00:00 1.25833 C 5.05 g/m*3 1.26 C 0 km/h
3013 17-03-2015 04:00:00 0.83333 C 4.93 g/m*3 0.83 C 0 km/h
3014 17-03-2015 05:00:00 0.59167 C 4.84 g/m*3 0.59 C 0 km/h
3015 17-03-2015 06:00:00 0.4 C 4.8 g/m*3 0.4 C 0 km/h
3016 17-03-2015 07:00:00 0.56667 C 4.89 g/m*3 0.57 C 0 km/h
3017 17-03-2015 08:00:00 1.025 C 5.04 g/m*3 1.02 C 0.26667 km/h
3018 17-03-2015 09:00:00 2.175 C 5.48 g/m*3 2.17 C 0 km/h
3019 17-03-2015 10:00:00 5.10833 C 6.7 g/m*3 5.11 C 0.13333 km/h
3020 17-03-2015 11:00:00 8.13333 C 7.46 g/m*3 8.13 C 0.93333 km/h
3021 17-03-2015 12:00:00 12.975 C 7.82 g/m*3 12.98 C 3.46667 km/h
3022 17-03-2015 13:00:00 15.45833 C 7.44 g/m*3 15.46 C 6.41667 km/h
3023 17-03-2015 14:00:00 16.76667 C 7.57 g/m*3 16.77 C 7.65833 km/h
3024 17-03-2015 15:00:00 18.23333 C 7.27 g/m*3 18.23 C 7.65833 km/h
3025 17-03-2015 16:00:00 17.48333 C 6.8 g/m*3 17.48 C 5.89167 km/h
Sensor: Nr:Datum:Temp:Abs-Feuchte:Windchill:Wind:
Aussen-T/F 3026 17-03-2015 17:00:00 15.44167 C 7.85 g/m*3 15.44 C 3.46667 km/h
3027 17-03-2015 18:00:00 12.29167 C 7.73 g/m*3 12.29 C 6.7 km/h
3028 17-03-2015 19:00:00 10.28333 C 7.37 g/m*3 9.59 C 6.84167 km/h
3029 17-03-2015 20:00:00 8.9 C 7.19 g/m*3 8.9 C 3.60833 km/h
3030 17-03-2015 21:00:00 7.79167 C 6.87 g/m*3 7.79 C 0.93333 km/h
3031 17-03-2015 22:00:00 6.46667 C 6.53 g/m*3 6.47 C 0.26667 km/h
3032 17-03-2015 23:00:00 5.575 C 6.32 g/m*3 5.58 C 0 km/h
3033 18-03-2015 00:00:00 4.98333 C 6.19 g/m*3 4.98 C 0.13333 km/h
3034 18-03-2015 01:00:00 4.175 C 5.93 g/m*3 4.18 C 0.13333 km/h
3035 18-03-2015 02:00:00 3.66667 C 5.83 g/m*3 3.67 C 0.26667 km/h
3036 18-03-2015 03:00:00 3.21667 C 5.72 g/m*3 3.22 C 0 km/h
3037 18-03-2015 04:00:00 2.81667 C 5.58 g/m*3 2.82 C 0.13333 km/h
3038 18-03-2015 05:00:00 2.375 C 5.44 g/m*3 2.38 C 0.13333 km/h
3039 18-03-2015 06:00:00 1.81667 C 5.27 g/m*3 1.82 C 0 km/h
3040 18-03-2015 07:00:00 1.94167 C 5.31 g/m*3 1.94 C 0 km/h
3041 18-03-2015 08:00:00 2.50833 C 5.58 g/m*3 2.51 C 0.13333 km/h
3042 18-03-2015 09:00:00 4.21667 C 6.26 g/m*3 4.22 C 0.13333 km/h
3043 18-03-2015 10:00:00 7.29167 C 7.35 g/m*3 7.29 C 0.13333 km/h
3044 18-03-2015 11:00:00 10.49167 C 8.08 g/m*3 10.49 C 0.53333 km/h
3045 18-03-2015 12:00:00 14.78333 C 8.67 g/m*3 14.78 C 2.8 km/h
3046 18-03-2015 13:00:00 17.19167 C 8.39 g/m*3 17.19 C 4.66667 km/h
3047 18-03-2015 14:00:00 17.61667 C 8.17 g/m*3 17.62 C 10.9 km/h
3048 18-03-2015 15:00:00 17.4 C 8.13 g/m*3 17.4 C 14.23333 km/h
3049 18-03-2015 16:00:00 16.83333 C 7.71 g/m*3 16.83 C 13.7 km/h
3050 18-03-2015 17:00:00 16.30833 C 7.87 g/m*3 16.31 C 9.425 km/h
Sensor: Nr:Datum:Temp:Abs-Feuchte:Windchill:Wind:
Aussen-T/F 3051 18-03-2015 18:00:00 14.26667 C 8.04 g/m*3 14.27 C 4.54167 km/h
3052 18-03-2015 19:00:00 12.04167 C 7.8 g/m*3 12.04 C 4.95 km/h
3053 18-03-2015 20:00:00 12.30833 C 7.74 g/m*3 12.31 C 7.65833 km/h
3054 18-03-2015 21:00:00 11.25833 C 8.08 g/m*3 11.26 C 5.76667 km/h
3055 18-03-2015 22:00:00 9.64167 C 7.95 g/m*3 9.64 C 4.95 km/h
3056 18-03-2015 23:00:00 8.99167 C 7.85 g/m*3 7.84 C 7.925 km/h
3057 19-03-2015 00:00:00 8.73333 C 7.76 g/m*3 7.89 C 6.45 km/h
3058 19-03-2015 01:00:00 8.35833 C 7.71 g/m*3 6.84 C 9.13333 km/h
3059 19-03-2015 02:00:00 7.95833 C 7.62 g/m*3 6.39 C 9.00833 km/h
3060 19-03-2015 03:00:00 7.54167 C 7.51 g/m*3 6.27 C 7.38333 km/h
3061 19-03-2015 04:00:00 7.225 C 7.46 g/m*3 5.67 C 8.35 km/h
3062 19-03-2015 05:00:00 6.99167 C 7.36 g/m*3 5.53 C 7.78333 km/h
3063 19-03-2015 06:00:00 6.86667 C 7.35 g/m*3 5.41 C 7.66667 km/h
3064 19-03-2015 07:00:00 6.8 C 7.32 g/m*3 5.37 C 7.51667 km/h
3065 19-03-2015 08:00:00 6.825 C 7.27 g/m*3 5.54 C 6.975 km/h
3066 19-03-2015 09:00:00 7.13333 C 7.27 g/m*3 7.13 C 3.86667 km/h
3067 19-03-2015 10:00:00 7.53333 C 7.31 g/m*3 7.53 C 4.4 km/h
3068 19-03-2015 11:00:00 7.48333 C 7.31 g/m*3 6 C 8.2 km/h
3069 19-03-2015 12:00:00 7.56667 C 7.4 g/m*3 6.2 C 7.8 km/h
3070 19-03-2015 13:00:00 7.625 C 7.42 g/m*3 6.05 C 8.74167 km/h
3071 19-03-2015 14:00:00 7.725 C 7.44 g/m*3 6 C 9.56667 km/h
3072 19-03-2015 15:00:00 8.11667 C 7.53 g/m*3 6.6 C 8.88333 km/h
3073 19-03-2015 16:00:00 8.175 C 7.57 g/m*3 6.67 C 8.89167 km/h
3074 19-03-2015 17:00:00 8.075 C 7.52 g/m*3 6.96 C 7.125 km/h
3075 19-03-2015 18:00:00 8.06667 C 7.47 g/m*3 6.98 C 6.98333 km/h
Sensor: Nr:Datum:Temp:Abs-Feuchte:Windchill:Wind:
Aussen-T/F 3076 19-03-2015 19:00:00 7.9 C 7.39 g/m*3 6.9 C 6.575 km/h
3077 19-03-2015 20:00:00 7.75 C 7.3 g/m*3 6.54 C 7.26667 km/h
3078 19-03-2015 21:00:00 7.625 C 7.26 g/m*3 6.81 C 5.75833 km/h
3079 19-03-2015 22:00:00 7.525 C 7.22 g/m*3 7.53 C 4.80833 km/h
3080 19-03-2015 23:00:00 7.38333 C 7.2 g/m*3 7.38 C 4 km/h
3081 20-03-2015 00:00:00 7.3 C 7.11 g/m*3 7.3 C 2.13333 km/h
3082 20-03-2015 01:00:00 7.15833 C 7.05 g/m*3 7.16 C 1.46667 km/h
3083 20-03-2015 02:00:00 6.94167 C 6.95 g/m*3 6.94 C 3.06667 km/h
3084 20-03-2015 03:00:00 6.775 C 6.83 g/m*3 6.78 C 4.80833 km/h
3085 20-03-2015 04:00:00 6.59167 C 6.71 g/m*3 6.59 C 3.86667 km/h
3086 20-03-2015 05:00:00 6.30833 C 6.64 g/m*3 6.31 C 2.8 km/h
3087 20-03-2015 06:00:00 6.13333 C 6.59 g/m*3 6.13 C 3.06667 km/h
3088 20-03-2015 07:00:00 6.13333 C 6.59 g/m*3 6.13 C 3.2 km/h
3089 20-03-2015 08:00:00 6.39167 C 6.62 g/m*3 6.39 C 4.4 km/h
3090 20-03-2015 09:00:00 6.725 C 6.62 g/m*3 6.73 C 4.4 km/h
3091 20-03-2015 10:00:00 6.79167 C 6.54 g/m*3 6.79 C 2.53333 km/h
3092 20-03-2015 11:00:00 7.08333 C 6.62 g/m*3 7.08 C 3.6 km/h
3093 20-03-2015 12:00:00 9.01667 C 7.05 g/m*3 8.53 C 5.35 km/h
3094 20-03-2015 13:00:00 11.075 C 7.21 g/m*3 11.08 C 4.81667 km/h
3095 20-03-2015 14:00:00 12.425 C 7.38 g/m*3 12.43 C 4.675 km/h
3096 20-03-2015 15:00:00 14.075 C 7.19 g/m*3 14.08 C 4.66667 km/h
3097 20-03-2015 16:00:00 13.83333 C 6.77 g/m*3 13.83 C 4.53333 km/h
3098 20-03-2015 17:00:00 13.28333 C 6.87 g/m*3 13.28 C 8.33333 km/h
3099 20-03-2015 18:00:00 10.53333 C 7.11 g/m*3 9.73 C 7.51667 km/h
3100 20-03-2015 19:00:00 8.175 C 6.78 g/m*3 7.61 C 5.225 km/h
Sensor: Nr:Datum:Temp:Abs-Feuchte:Windchill:Wind:
Aussen-T/F 3101 20-03-2015 20:00:00 6.31667 C 6.45 g/m*3 6.32 C 3.73333 km/h
3102 20-03-2015 21:00:00 5.1 C 6.21 g/m*3 5.1 C 2.8 km/h
3103 20-03-2015 22:00:00 4.55 C 6.12 g/m*3 4.55 C 2 km/h
3104 20-03-2015 23:00:00 5.075 C 6.39 g/m*3 5.08 C 1.33333 km/h
3105 21-03-2015 00:00:00 5.39167 C 6.47 g/m*3 5.39 C 0.93333 km/h
3106 21-03-2015 01:00:00 5.53333 C 6.48 g/m*3 5.53 C 0.53333 km/h
3107 21-03-2015 02:00:00 5.49167 C 6.43 g/m*3 5.49 C 4.13333 km/h
3108 21-03-2015 03:00:00 5.33333 C 6.37 g/m*3 5.33 C 4.81667 km/h
3109 21-03-2015 04:00:00 5.24167 C 6.32 g/m*3 3.58 C 7.39167 km/h
3110 21-03-2015 05:00:00 4.85833 C 6.19 g/m*3 3.89 C 5.075 km/h
3111 21-03-2015 06:00:00 4.64167 C 6.01 g/m*3 4.64 C 4.825 km/h
3112 21-03-2015 07:00:00 4.79167 C 5.95 g/m*3 4.79 C 2.13333 km/h
3113 21-03-2015 08:00:00 5.13333 C 6.04 g/m*3 5.13 C 1.06667 km/h
3114 21-03-2015 09:00:00 5.5 C 6.2 g/m*3 4.62 C 5.06667 km/h
3115 21-03-2015 10:00:00 5.29167 C 6.29 g/m*3 5.29 C 3.06667 km/h
3116 21-03-2015 11:00:00 5.45833 C 6.49 g/m*3 5.46 C 4.15833 km/h
3117 21-03-2015 12:00:00 6.38333 C 6.46 g/m*3 4.88 C 7.51667 km/h
3118 21-03-2015 13:00:00 7.49167 C 6.39 g/m*3 7.49 C 4.41667 km/h
3119 21-03-2015 14:00:00 7.65833 C 6.19 g/m*3 6.34 C 7.65833 km/h
3120 21-03-2015 15:00:00 7.54167 C 6.36 g/m*3 6.81 C 5.475 km/h
3121 21-03-2015 16:00:00 6.175 C 6.61 g/m*3 5.34 C 5.2 km/h
3122 21-03-2015 17:00:00 6.225 C 6.7 g/m*3 5.39 C 5.23333 km/h
3123 21-03-2015 18:00:00 6.10833 C 6.7 g/m*3 6.11 C 4.675 km/h
3124 21-03-2015 19:00:00 5.98333 C 6.6 g/m*3 5.98 C 2.80833 km/h
3125 21-03-2015 20:00:00 5.35833 C 6.58 g/m*3 5.36 C 2.53333 km/h
Sensor: Nr:Datum:Temp:Abs-Feuchte:Windchill:Wind:
Aussen-T/F 3126 21-03-2015 21:00:00 4.88333 C 6.44 g/m*3 4.88 C 2.93333 km/h
3127 21-03-2015 22:00:00 4.975 C 6.53 g/m*3 4.97 C 1.6 km/h
3128 21-03-2015 23:00:00 5.15833 C 6.65 g/m*3 5.16 C 0 km/h
3129 22-03-2015 00:00:00 5.36667 C 6.75 g/m*3 5.37 C 1.46667 km/h
3130 22-03-2015 01:00:00 5.35833 C 6.68 g/m*3 5.36 C 0 km/h
3131 22-03-2015 02:00:00 5.10833 C 6.57 g/m*3 5.11 C 0.26667 km/h
3132 22-03-2015 03:00:00 4.85 C 6.46 g/m*3 4.85 C 0.93333 km/h
3133 22-03-2015 04:00:00 5.13333 C 6.55 g/m*3 5.13 C 0.66667 km/h
3134 22-03-2015 05:00:00 5.25 C 6.46 g/m*3 5.25 C 4.025 km/h
3135 22-03-2015 06:00:00 5.10833 C 6.13 g/m*3 5.11 C 4.00833 km/h
3136 22-03-2015 07:00:00 4.96667 C 5.84 g/m*3 3.15 C 7.78333 km/h
3137 22-03-2015 08:00:00 5.01667 C 5.53 g/m*3 2.69 C 9.94167 km/h
3138 22-03-2015 09:00:00 5.3 C 5.47 g/m*3 2.35 C 13.56667 km/h
3139 22-03-2015 10:00:00 6.13333 C 5.61 g/m*3 3.28 C 14.1 km/h
3140 22-03-2015 11:00:00 6.75 C 5.7 g/m*3 4.1 C 13.7 km/h
3141 22-03-2015 12:00:00 8.01667 C 5.87 g/m*3 5.43 C 15.3 km/h
3142 22-03-2015 13:00:00 7.99167 C 5.74 g/m*3 5.52 C 14.36667 km/h
3143 22-03-2015 14:00:00 7.15833 C 5.5 g/m*3 4.48 C 14.5 km/h
3144 22-03-2015 15:00:00 7.00833 C 5.43 g/m*3 4.28 C 14.63333 km/h
3145 22-03-2015 16:00:00 7.33333 C 5.4 g/m*3 5.07 C 12.1 km/h
3146 22-03-2015 17:00:00 7.65833 C 5.38 g/m*3 5.69 C 10.75833 km/h
3147 22-03-2015 18:00:00 6.175 C 5.19 g/m*3 6.18 C 4.29167 km/h
3148 22-03-2015 19:00:00 3.65833 C 4.99 g/m*3 3.66 C 1.73333 km/h
3149 22-03-2015 20:00:00 2.15833 C 4.83 g/m*3 2.16 C 4.8 km/h
3150 22-03-2015 21:00:00 1.56667 C 4.71 g/m*3 1.57 C 4.26667 km/h
Sensor: Nr:Datum:Temp:Abs-Feuchte:Windchill:Wind:
Aussen-T/F 3151 22-03-2015 22:00:00 1.14167 C 4.64 g/m*3